<?xml version="1.0" encoding="UTF-8" standalone="no" ?>
<gpx xmlns="http://www.topografix.com/GPX/1/1" xmlns:xsi="http://www.w3.org/2001/XMLSchema-instance" xsi:schemaLocation="http://www.topografix.com/GPX/1/1 http://www.topografix.com/GPX/1/1/gpx.xsd" version="1.1" creator="VisuGPX - https://www.visugpx.com">
  <metadata>
    <name>Le JOCOU depuis GRIMONE</name>
    <desc><![CDATA[Belle randonnée, le JOCOU est à faire !!!]]></desc>
  </metadata>
  <trk>
    <name><![CDATA[2020-10-01 14-46-03]]></name>
    <trkseg>
      <trkpt lat="44.69622" lon="5.63459">
        <ele>1108.06</ele>
        <time>2020-10-01T06:39:29Z</time>
      </trkpt>
      <trkpt lat="44.69619" lon="5.63461">
        <ele>1108.54</ele>
        <time>2020-10-01T06:39:55Z</time>
      </trkpt>
      <trkpt lat="44.69612" lon="5.6346">
        <ele>1106.61</ele>
        <time>2020-10-01T06:40:24Z</time>
      </trkpt>
      <trkpt lat="44.69618" lon="5.63458">
        <ele>1107.1</ele>
        <time>2020-10-01T06:40:52Z</time>
      </trkpt>
      <trkpt lat="44.69623" lon="5.6346">
        <ele>1107.1</ele>
        <time>2020-10-01T06:41:16Z</time>
      </trkpt>
      <trkpt lat="44.69622" lon="5.63461">
        <ele>1107.1</ele>
        <time>2020-10-01T06:41:34Z</time>
      </trkpt>
      <trkpt lat="44.69613" lon="5.63469">
        <ele>1107.1</ele>
        <time>2020-10-01T06:41:44Z</time>
      </trkpt>
      <trkpt lat="44.69612" lon="5.6347">
        <ele>1107.58</ele>
        <time>2020-10-01T06:41:45Z</time>
      </trkpt>
      <trkpt lat="44.6961" lon="5.6347">
        <ele>1108.06</ele>
        <time>2020-10-01T06:41:46Z</time>
      </trkpt>
      <trkpt lat="44.69601" lon="5.63478">
        <ele>1110.94</ele>
        <time>2020-10-01T06:41:57Z</time>
      </trkpt>
      <trkpt lat="44.69586" lon="5.63491">
        <ele>1111.42</ele>
        <time>2020-10-01T06:42:13Z</time>
      </trkpt>
      <trkpt lat="44.6957" lon="5.63518">
        <ele>1112.38</ele>
        <time>2020-10-01T06:42:31Z</time>
      </trkpt>
      <trkpt lat="44.69568" lon="5.63532">
        <ele>1112.86</ele>
        <time>2020-10-01T06:42:36Z</time>
      </trkpt>
      <trkpt lat="44.69565" lon="5.63531">
        <ele>1113.82</ele>
        <time>2020-10-01T06:42:48Z</time>
      </trkpt>
      <trkpt lat="44.69564" lon="5.63523">
        <ele>1113.82</ele>
        <time>2020-10-01T06:43:00Z</time>
      </trkpt>
      <trkpt lat="44.69563" lon="5.63523">
        <ele>1112.86</ele>
        <time>2020-10-01T06:43:15Z</time>
      </trkpt>
      <trkpt lat="44.69563" lon="5.63523">
        <ele>1111.42</ele>
        <time>2020-10-01T06:43:21Z</time>
      </trkpt>
      <trkpt lat="44.69564" lon="5.63522">
        <ele>1114.31</ele>
        <time>2020-10-01T06:43:35Z</time>
      </trkpt>
      <trkpt lat="44.69564" lon="5.63522">
        <ele>1111.9</ele>
        <time>2020-10-01T06:43:56Z</time>
      </trkpt>
      <trkpt lat="44.69564" lon="5.63523">
        <ele>1111.9</ele>
        <time>2020-10-01T06:44:10Z</time>
      </trkpt>
      <trkpt lat="44.69564" lon="5.63522">
        <ele>1111.42</ele>
        <time>2020-10-01T06:44:28Z</time>
      </trkpt>
      <trkpt lat="44.69564" lon="5.63522">
        <ele>1111.9</ele>
        <time>2020-10-01T06:44:43Z</time>
      </trkpt>
      <trkpt lat="44.69565" lon="5.63521">
        <ele>1110.46</ele>
        <time>2020-10-01T06:45:10Z</time>
      </trkpt>
      <trkpt lat="44.69564" lon="5.63522">
        <ele>1110.46</ele>
        <time>2020-10-01T06:45:33Z</time>
      </trkpt>
      <trkpt lat="44.69563" lon="5.63522">
        <ele>1110.94</ele>
        <time>2020-10-01T06:45:48Z</time>
      </trkpt>
      <trkpt lat="44.69564" lon="5.63521">
        <ele>1110.46</ele>
        <time>2020-10-01T06:46:11Z</time>
      </trkpt>
      <trkpt lat="44.69565" lon="5.63521">
        <ele>1110.46</ele>
        <time>2020-10-01T06:46:42Z</time>
      </trkpt>
      <trkpt lat="44.69564" lon="5.63521">
        <ele>1110.46</ele>
        <time>2020-10-01T06:47:18Z</time>
      </trkpt>
      <trkpt lat="44.69567" lon="5.63521">
        <ele>1110.46</ele>
        <time>2020-10-01T06:47:47Z</time>
      </trkpt>
      <trkpt lat="44.6957" lon="5.63513">
        <ele>1110.46</ele>
        <time>2020-10-01T06:47:56Z</time>
      </trkpt>
      <trkpt lat="44.69571" lon="5.63512">
        <ele>1110.94</ele>
        <time>2020-10-01T06:47:57Z</time>
      </trkpt>
      <trkpt lat="44.69572" lon="5.63511">
        <ele>1110.94</ele>
        <time>2020-10-01T06:47:58Z</time>
      </trkpt>
      <trkpt lat="44.69573" lon="5.63509">
        <ele>1111.42</ele>
        <time>2020-10-01T06:47:59Z</time>
      </trkpt>
      <trkpt lat="44.69574" lon="5.63508">
        <ele>1111.42</ele>
        <time>2020-10-01T06:48:00Z</time>
      </trkpt>
      <trkpt lat="44.69578" lon="5.63504">
        <ele>1111.42</ele>
        <time>2020-10-01T06:48:05Z</time>
      </trkpt>
      <trkpt lat="44.69587" lon="5.63492">
        <ele>1110.94</ele>
        <time>2020-10-01T06:48:16Z</time>
      </trkpt>
      <trkpt lat="44.69588" lon="5.63492">
        <ele>1110.94</ele>
        <time>2020-10-01T06:48:17Z</time>
      </trkpt>
      <trkpt lat="44.69589" lon="5.63491">
        <ele>1110.94</ele>
        <time>2020-10-01T06:48:18Z</time>
      </trkpt>
      <trkpt lat="44.69594" lon="5.63491">
        <ele>1110.46</ele>
        <time>2020-10-01T06:48:24Z</time>
      </trkpt>
      <trkpt lat="44.69592" lon="5.63502">
        <ele>1111.42</ele>
        <time>2020-10-01T06:48:40Z</time>
      </trkpt>
      <trkpt lat="44.69588" lon="5.63514">
        <ele>1114.79</ele>
        <time>2020-10-01T06:48:57Z</time>
      </trkpt>
      <trkpt lat="44.69586" lon="5.63533">
        <ele>1117.19</ele>
        <time>2020-10-01T06:49:14Z</time>
      </trkpt>
      <trkpt lat="44.69586" lon="5.63534">
        <ele>1117.67</ele>
        <time>2020-10-01T06:49:15Z</time>
      </trkpt>
      <trkpt lat="44.69588" lon="5.63542">
        <ele>1118.63</ele>
        <time>2020-10-01T06:49:22Z</time>
      </trkpt>
      <trkpt lat="44.69596" lon="5.63554">
        <ele>1119.59</ele>
        <time>2020-10-01T06:49:33Z</time>
      </trkpt>
      <trkpt lat="44.69597" lon="5.63555">
        <ele>1119.59</ele>
        <time>2020-10-01T06:49:34Z</time>
      </trkpt>
      <trkpt lat="44.69598" lon="5.63555">
        <ele>1119.59</ele>
        <time>2020-10-01T06:49:35Z</time>
      </trkpt>
      <trkpt lat="44.69605" lon="5.63565">
        <ele>1119.59</ele>
        <time>2020-10-01T06:49:44Z</time>
      </trkpt>
      <trkpt lat="44.69606" lon="5.63566">
        <ele>1119.59</ele>
        <time>2020-10-01T06:49:45Z</time>
      </trkpt>
      <trkpt lat="44.69607" lon="5.63567">
        <ele>1119.59</ele>
        <time>2020-10-01T06:49:46Z</time>
      </trkpt>
      <trkpt lat="44.69608" lon="5.63568">
        <ele>1119.59</ele>
        <time>2020-10-01T06:49:47Z</time>
      </trkpt>
      <trkpt lat="44.69614" lon="5.63582">
        <ele>1119.59</ele>
        <time>2020-10-01T06:50:00Z</time>
      </trkpt>
      <trkpt lat="44.69623" lon="5.63599">
        <ele>1122</ele>
        <time>2020-10-01T06:50:17Z</time>
      </trkpt>
      <trkpt lat="44.69632" lon="5.63596">
        <ele>1122.96</ele>
        <time>2020-10-01T06:50:31Z</time>
      </trkpt>
      <trkpt lat="44.69637" lon="5.63588">
        <ele>1123.92</ele>
        <time>2020-10-01T06:50:42Z</time>
      </trkpt>
      <trkpt lat="44.69642" lon="5.63578">
        <ele>1124.4</ele>
        <time>2020-10-01T06:50:54Z</time>
      </trkpt>
      <trkpt lat="44.69644" lon="5.63562">
        <ele>1124.4</ele>
        <time>2020-10-01T06:51:08Z</time>
      </trkpt>
      <trkpt lat="44.69647" lon="5.63546">
        <ele>1126.8</ele>
        <time>2020-10-01T06:51:26Z</time>
      </trkpt>
      <trkpt lat="44.69658" lon="5.63543">
        <ele>1129.21</ele>
        <time>2020-10-01T06:51:42Z</time>
      </trkpt>
      <trkpt lat="44.69665" lon="5.6355">
        <ele>1131.61</ele>
        <time>2020-10-01T06:51:57Z</time>
      </trkpt>
      <trkpt lat="44.69671" lon="5.63559">
        <ele>1132.09</ele>
        <time>2020-10-01T06:52:10Z</time>
      </trkpt>
      <trkpt lat="44.69679" lon="5.63563">
        <ele>1134.97</ele>
        <time>2020-10-01T06:52:24Z</time>
      </trkpt>
      <trkpt lat="44.69686" lon="5.63565">
        <ele>1136.9</ele>
        <time>2020-10-01T06:52:36Z</time>
      </trkpt>
      <trkpt lat="44.69689" lon="5.63565">
        <ele>1137.38</ele>
        <time>2020-10-01T06:52:56Z</time>
      </trkpt>
      <trkpt lat="44.69697" lon="5.6356">
        <ele>1138.34</ele>
        <time>2020-10-01T06:53:13Z</time>
      </trkpt>
      <trkpt lat="44.69705" lon="5.63546">
        <ele>1140.74</ele>
        <time>2020-10-01T06:53:32Z</time>
      </trkpt>
      <trkpt lat="44.69714" lon="5.63537">
        <ele>1143.63</ele>
        <time>2020-10-01T06:53:51Z</time>
      </trkpt>
      <trkpt lat="44.69725" lon="5.63534">
        <ele>1146.03</ele>
        <time>2020-10-01T06:54:07Z</time>
      </trkpt>
      <trkpt lat="44.69734" lon="5.63528">
        <ele>1147.95</ele>
        <time>2020-10-01T06:54:19Z</time>
      </trkpt>
      <trkpt lat="44.69736" lon="5.63526">
        <ele>1148.43</ele>
        <time>2020-10-01T06:54:21Z</time>
      </trkpt>
      <trkpt lat="44.69749" lon="5.63515">
        <ele>1150.35</ele>
        <time>2020-10-01T06:54:38Z</time>
      </trkpt>
      <trkpt lat="44.69758" lon="5.63503">
        <ele>1150.84</ele>
        <time>2020-10-01T06:54:58Z</time>
      </trkpt>
      <trkpt lat="44.69764" lon="5.63478">
        <ele>1151.8</ele>
        <time>2020-10-01T06:55:15Z</time>
      </trkpt>
      <trkpt lat="44.69764" lon="5.63476">
        <ele>1151.8</ele>
        <time>2020-10-01T06:55:16Z</time>
      </trkpt>
      <trkpt lat="44.69766" lon="5.63452">
        <ele>1152.76</ele>
        <time>2020-10-01T06:55:35Z</time>
      </trkpt>
      <trkpt lat="44.69761" lon="5.63418">
        <ele>1154.68</ele>
        <time>2020-10-01T06:56:03Z</time>
      </trkpt>
      <trkpt lat="44.69759" lon="5.63387">
        <ele>1156.6</ele>
        <time>2020-10-01T06:56:26Z</time>
      </trkpt>
      <trkpt lat="44.69762" lon="5.63367">
        <ele>1158.05</ele>
        <time>2020-10-01T06:56:43Z</time>
      </trkpt>
      <trkpt lat="44.69767" lon="5.63343">
        <ele>1160.45</ele>
        <time>2020-10-01T06:57:03Z</time>
      </trkpt>
      <trkpt lat="44.69778" lon="5.63329">
        <ele>1163.33</ele>
        <time>2020-10-01T06:57:24Z</time>
      </trkpt>
      <trkpt lat="44.6979" lon="5.63323">
        <ele>1165.74</ele>
        <time>2020-10-01T06:57:42Z</time>
      </trkpt>
      <trkpt lat="44.69804" lon="5.63317">
        <ele>1168.62</ele>
        <time>2020-10-01T06:58:01Z</time>
      </trkpt>
      <trkpt lat="44.69816" lon="5.6331">
        <ele>1171.02</ele>
        <time>2020-10-01T06:58:18Z</time>
      </trkpt>
      <trkpt lat="44.69827" lon="5.63302">
        <ele>1173.91</ele>
        <time>2020-10-01T06:58:35Z</time>
      </trkpt>
      <trkpt lat="44.69839" lon="5.63295">
        <ele>1177.27</ele>
        <time>2020-10-01T06:58:50Z</time>
      </trkpt>
      <trkpt lat="44.69846" lon="5.63288">
        <ele>1179.19</ele>
        <time>2020-10-01T06:59:00Z</time>
      </trkpt>
      <trkpt lat="44.69856" lon="5.63275">
        <ele>1182.08</ele>
        <time>2020-10-01T06:59:16Z</time>
      </trkpt>
      <trkpt lat="44.69858" lon="5.63272">
        <ele>1183.04</ele>
        <time>2020-10-01T06:59:19Z</time>
      </trkpt>
      <trkpt lat="44.69867" lon="5.63259">
        <ele>1184.96</ele>
        <time>2020-10-01T06:59:33Z</time>
      </trkpt>
      <trkpt lat="44.69869" lon="5.63255">
        <ele>1185.44</ele>
        <time>2020-10-01T06:59:37Z</time>
      </trkpt>
      <trkpt lat="44.69872" lon="5.6325">
        <ele>1186.4</ele>
        <time>2020-10-01T06:59:41Z</time>
      </trkpt>
      <trkpt lat="44.69874" lon="5.63244">
        <ele>1185.92</ele>
        <time>2020-10-01T06:59:45Z</time>
      </trkpt>
      <trkpt lat="44.69874" lon="5.63242">
        <ele>1185.92</ele>
        <time>2020-10-01T06:59:46Z</time>
      </trkpt>
      <trkpt lat="44.69875" lon="5.6324">
        <ele>1185.44</ele>
        <time>2020-10-01T06:59:47Z</time>
      </trkpt>
      <trkpt lat="44.69875" lon="5.63238">
        <ele>1185.44</ele>
        <time>2020-10-01T06:59:48Z</time>
      </trkpt>
      <trkpt lat="44.69876" lon="5.63237">
        <ele>1185.44</ele>
        <time>2020-10-01T06:59:49Z</time>
      </trkpt>
      <trkpt lat="44.69876" lon="5.63235">
        <ele>1185.92</ele>
        <time>2020-10-01T06:59:50Z</time>
      </trkpt>
      <trkpt lat="44.6988" lon="5.63227">
        <ele>1188.33</ele>
        <time>2020-10-01T06:59:56Z</time>
      </trkpt>
      <trkpt lat="44.69889" lon="5.63201">
        <ele>1189.29</ele>
        <time>2020-10-01T07:00:16Z</time>
      </trkpt>
      <trkpt lat="44.69895" lon="5.63178">
        <ele>1191.21</ele>
        <time>2020-10-01T07:00:30Z</time>
      </trkpt>
      <trkpt lat="44.69903" lon="5.6316">
        <ele>1192.65</ele>
        <time>2020-10-01T07:00:43Z</time>
      </trkpt>
      <trkpt lat="44.69905" lon="5.63155">
        <ele>1193.13</ele>
        <time>2020-10-01T07:00:47Z</time>
      </trkpt>
      <trkpt lat="44.69905" lon="5.63153">
        <ele>1193.13</ele>
        <time>2020-10-01T07:00:48Z</time>
      </trkpt>
      <trkpt lat="44.69906" lon="5.63148">
        <ele>1193.61</ele>
        <time>2020-10-01T07:00:51Z</time>
      </trkpt>
      <trkpt lat="44.69907" lon="5.63146">
        <ele>1193.61</ele>
        <time>2020-10-01T07:00:52Z</time>
      </trkpt>
      <trkpt lat="44.69907" lon="5.63145">
        <ele>1193.61</ele>
        <time>2020-10-01T07:00:53Z</time>
      </trkpt>
      <trkpt lat="44.69907" lon="5.63143">
        <ele>1194.09</ele>
        <time>2020-10-01T07:00:54Z</time>
      </trkpt>
      <trkpt lat="44.69908" lon="5.63141">
        <ele>1194.09</ele>
        <time>2020-10-01T07:00:55Z</time>
      </trkpt>
      <trkpt lat="44.69908" lon="5.6314">
        <ele>1194.09</ele>
        <time>2020-10-01T07:00:56Z</time>
      </trkpt>
      <trkpt lat="44.69909" lon="5.63138">
        <ele>1194.58</ele>
        <time>2020-10-01T07:00:57Z</time>
      </trkpt>
      <trkpt lat="44.69915" lon="5.63115">
        <ele>1196.02</ele>
        <time>2020-10-01T07:01:14Z</time>
      </trkpt>
      <trkpt lat="44.69925" lon="5.63094">
        <ele>1198.42</ele>
        <time>2020-10-01T07:01:30Z</time>
      </trkpt>
      <trkpt lat="44.69931" lon="5.63072">
        <ele>1200.82</ele>
        <time>2020-10-01T07:01:47Z</time>
      </trkpt>
      <trkpt lat="44.6994" lon="5.63048">
        <ele>1204.19</ele>
        <time>2020-10-01T07:02:04Z</time>
      </trkpt>
      <trkpt lat="44.69946" lon="5.63028">
        <ele>1207.07</ele>
        <time>2020-10-01T07:02:22Z</time>
      </trkpt>
      <trkpt lat="44.69952" lon="5.63021">
        <ele>1209</ele>
        <time>2020-10-01T07:02:29Z</time>
      </trkpt>
      <trkpt lat="44.69952" lon="5.6302">
        <ele>1209</ele>
        <time>2020-10-01T07:02:30Z</time>
      </trkpt>
      <trkpt lat="44.69954" lon="5.63017">
        <ele>1209.48</ele>
        <time>2020-10-01T07:02:32Z</time>
      </trkpt>
      <trkpt lat="44.69954" lon="5.63014">
        <ele>1209.48</ele>
        <time>2020-10-01T07:02:34Z</time>
      </trkpt>
      <trkpt lat="44.69954" lon="5.62994">
        <ele>1211.4</ele>
        <time>2020-10-01T07:02:49Z</time>
      </trkpt>
      <trkpt lat="44.69956" lon="5.62976">
        <ele>1213.32</ele>
        <time>2020-10-01T07:03:01Z</time>
      </trkpt>
      <trkpt lat="44.69957" lon="5.6297">
        <ele>1213.8</ele>
        <time>2020-10-01T07:03:05Z</time>
      </trkpt>
      <trkpt lat="44.6996" lon="5.62965">
        <ele>1214.28</ele>
        <time>2020-10-01T07:03:09Z</time>
      </trkpt>
      <trkpt lat="44.69964" lon="5.62944">
        <ele>1217.17</ele>
        <time>2020-10-01T07:03:25Z</time>
      </trkpt>
      <trkpt lat="44.6997" lon="5.62921">
        <ele>1216.21</ele>
        <time>2020-10-01T07:03:41Z</time>
      </trkpt>
      <trkpt lat="44.69982" lon="5.62901">
        <ele>1214.76</ele>
        <time>2020-10-01T07:03:54Z</time>
      </trkpt>
      <trkpt lat="44.69982" lon="5.62899">
        <ele>1214.76</ele>
        <time>2020-10-01T07:03:55Z</time>
      </trkpt>
      <trkpt lat="44.69983" lon="5.62898">
        <ele>1214.76</ele>
        <time>2020-10-01T07:03:56Z</time>
      </trkpt>
      <trkpt lat="44.69983" lon="5.62896">
        <ele>1214.76</ele>
        <time>2020-10-01T07:03:57Z</time>
      </trkpt>
      <trkpt lat="44.69984" lon="5.62894">
        <ele>1214.76</ele>
        <time>2020-10-01T07:03:58Z</time>
      </trkpt>
      <trkpt lat="44.69984" lon="5.62892">
        <ele>1214.76</ele>
        <time>2020-10-01T07:03:59Z</time>
      </trkpt>
      <trkpt lat="44.69985" lon="5.6289">
        <ele>1214.76</ele>
        <time>2020-10-01T07:04:00Z</time>
      </trkpt>
      <trkpt lat="44.69985" lon="5.62889">
        <ele>1214.28</ele>
        <time>2020-10-01T07:04:01Z</time>
      </trkpt>
      <trkpt lat="44.69986" lon="5.62887">
        <ele>1214.28</ele>
        <time>2020-10-01T07:04:02Z</time>
      </trkpt>
      <trkpt lat="44.69986" lon="5.62885">
        <ele>1214.28</ele>
        <time>2020-10-01T07:04:03Z</time>
      </trkpt>
      <trkpt lat="44.69986" lon="5.62884">
        <ele>1214.28</ele>
        <time>2020-10-01T07:04:04Z</time>
      </trkpt>
      <trkpt lat="44.69986" lon="5.62882">
        <ele>1214.28</ele>
        <time>2020-10-01T07:04:05Z</time>
      </trkpt>
      <trkpt lat="44.69987" lon="5.6288">
        <ele>1214.76</ele>
        <time>2020-10-01T07:04:06Z</time>
      </trkpt>
      <trkpt lat="44.69987" lon="5.62879">
        <ele>1214.76</ele>
        <time>2020-10-01T07:04:07Z</time>
      </trkpt>
      <trkpt lat="44.69987" lon="5.62877">
        <ele>1214.76</ele>
        <time>2020-10-01T07:04:08Z</time>
      </trkpt>
      <trkpt lat="44.69987" lon="5.6287">
        <ele>1216.21</ele>
        <time>2020-10-01T07:04:12Z</time>
      </trkpt>
      <trkpt lat="44.69983" lon="5.62838">
        <ele>1216.21</ele>
        <time>2020-10-01T07:04:30Z</time>
      </trkpt>
      <trkpt lat="44.69984" lon="5.62814">
        <ele>1218.61</ele>
        <time>2020-10-01T07:04:47Z</time>
      </trkpt>
      <trkpt lat="44.69992" lon="5.62818">
        <ele>1220.05</ele>
        <time>2020-10-01T07:04:59Z</time>
      </trkpt>
      <trkpt lat="44.69996" lon="5.62821">
        <ele>1218.61</ele>
        <time>2020-10-01T07:05:06Z</time>
      </trkpt>
      <trkpt lat="44.69999" lon="5.62825">
        <ele>1221.97</ele>
        <time>2020-10-01T07:05:13Z</time>
      </trkpt>
      <trkpt lat="44.7" lon="5.62825">
        <ele>1221.97</ele>
        <time>2020-10-01T07:05:14Z</time>
      </trkpt>
      <trkpt lat="44.69999" lon="5.62825">
        <ele>1222.45</ele>
        <time>2020-10-01T07:05:35Z</time>
      </trkpt>
      <trkpt lat="44.69999" lon="5.62825">
        <ele>1222.45</ele>
        <time>2020-10-01T07:06:00Z</time>
      </trkpt>
      <trkpt lat="44.70001" lon="5.62826">
        <ele>1222.45</ele>
        <time>2020-10-01T07:06:25Z</time>
      </trkpt>
      <trkpt lat="44.70001" lon="5.62827">
        <ele>1222.45</ele>
        <time>2020-10-01T07:06:54Z</time>
      </trkpt>
      <trkpt lat="44.70002" lon="5.62825">
        <ele>1222.45</ele>
        <time>2020-10-01T07:07:12Z</time>
      </trkpt>
      <trkpt lat="44.70002" lon="5.6283">
        <ele>1222.45</ele>
        <time>2020-10-01T07:07:44Z</time>
      </trkpt>
      <trkpt lat="44.70002" lon="5.62831">
        <ele>1222.45</ele>
        <time>2020-10-01T07:08:09Z</time>
      </trkpt>
      <trkpt lat="44.70004" lon="5.62831">
        <ele>1222.45</ele>
        <time>2020-10-01T07:08:39Z</time>
      </trkpt>
      <trkpt lat="44.70004" lon="5.6283">
        <ele>1222.45</ele>
        <time>2020-10-01T07:09:08Z</time>
      </trkpt>
      <trkpt lat="44.70007" lon="5.62832">
        <ele>1222.45</ele>
        <time>2020-10-01T07:09:44Z</time>
      </trkpt>
      <trkpt lat="44.70009" lon="5.6283">
        <ele>1222.45</ele>
        <time>2020-10-01T07:10:06Z</time>
      </trkpt>
      <trkpt lat="44.70022" lon="5.62834">
        <ele>1224.38</ele>
        <time>2020-10-01T07:10:23Z</time>
      </trkpt>
      <trkpt lat="44.70041" lon="5.62841">
        <ele>1227.26</ele>
        <time>2020-10-01T07:10:45Z</time>
      </trkpt>
      <trkpt lat="44.70054" lon="5.62844">
        <ele>1229.18</ele>
        <time>2020-10-01T07:10:57Z</time>
      </trkpt>
      <trkpt lat="44.70076" lon="5.62844">
        <ele>1232.07</ele>
        <time>2020-10-01T07:11:18Z</time>
      </trkpt>
      <trkpt lat="44.70096" lon="5.62839">
        <ele>1235.43</ele>
        <time>2020-10-01T07:11:38Z</time>
      </trkpt>
      <trkpt lat="44.70116" lon="5.62835">
        <ele>1238.32</ele>
        <time>2020-10-01T07:11:57Z</time>
      </trkpt>
      <trkpt lat="44.7013" lon="5.62835">
        <ele>1240.24</ele>
        <time>2020-10-01T07:12:10Z</time>
      </trkpt>
      <trkpt lat="44.70149" lon="5.62834">
        <ele>1243.12</ele>
        <time>2020-10-01T07:12:28Z</time>
      </trkpt>
      <trkpt lat="44.70175" lon="5.62834">
        <ele>1246.01</ele>
        <time>2020-10-01T07:12:54Z</time>
      </trkpt>
      <trkpt lat="44.70197" lon="5.62833">
        <ele>1249.37</ele>
        <time>2020-10-01T07:13:15Z</time>
      </trkpt>
      <trkpt lat="44.70223" lon="5.62831">
        <ele>1252.25</ele>
        <time>2020-10-01T07:13:37Z</time>
      </trkpt>
      <trkpt lat="44.70244" lon="5.62829">
        <ele>1255.62</ele>
        <time>2020-10-01T07:13:56Z</time>
      </trkpt>
      <trkpt lat="44.7026" lon="5.62828">
        <ele>1258.5</ele>
        <time>2020-10-01T07:14:13Z</time>
      </trkpt>
      <trkpt lat="44.70272" lon="5.62827">
        <ele>1261.39</ele>
        <time>2020-10-01T07:14:28Z</time>
      </trkpt>
      <trkpt lat="44.70286" lon="5.62821">
        <ele>1264.75</ele>
        <time>2020-10-01T07:14:45Z</time>
      </trkpt>
      <trkpt lat="44.70304" lon="5.62811">
        <ele>1268.12</ele>
        <time>2020-10-01T07:15:07Z</time>
      </trkpt>
      <trkpt lat="44.70318" lon="5.62805">
        <ele>1270.04</ele>
        <time>2020-10-01T07:15:21Z</time>
      </trkpt>
      <trkpt lat="44.70328" lon="5.62799">
        <ele>1272.44</ele>
        <time>2020-10-01T07:15:32Z</time>
      </trkpt>
      <trkpt lat="44.70338" lon="5.62793">
        <ele>1275.33</ele>
        <time>2020-10-01T07:15:45Z</time>
      </trkpt>
      <trkpt lat="44.70351" lon="5.62785">
        <ele>1278.21</ele>
        <time>2020-10-01T07:16:01Z</time>
      </trkpt>
      <trkpt lat="44.70361" lon="5.62777">
        <ele>1281.09</ele>
        <time>2020-10-01T07:16:18Z</time>
      </trkpt>
      <trkpt lat="44.70373" lon="5.62766">
        <ele>1284.46</ele>
        <time>2020-10-01T07:16:34Z</time>
      </trkpt>
      <trkpt lat="44.70384" lon="5.62751">
        <ele>1286.38</ele>
        <time>2020-10-01T07:16:48Z</time>
      </trkpt>
      <trkpt lat="44.70394" lon="5.62735">
        <ele>1287.82</ele>
        <time>2020-10-01T07:17:03Z</time>
      </trkpt>
      <trkpt lat="44.70406" lon="5.62718">
        <ele>1289.75</ele>
        <time>2020-10-01T07:17:19Z</time>
      </trkpt>
      <trkpt lat="44.70417" lon="5.62706">
        <ele>1291.19</ele>
        <time>2020-10-01T07:17:32Z</time>
      </trkpt>
      <trkpt lat="44.70429" lon="5.62689">
        <ele>1293.59</ele>
        <time>2020-10-01T07:17:49Z</time>
      </trkpt>
      <trkpt lat="44.7044" lon="5.62674">
        <ele>1296.48</ele>
        <time>2020-10-01T07:18:05Z</time>
      </trkpt>
      <trkpt lat="44.70458" lon="5.62666">
        <ele>1299.36</ele>
        <time>2020-10-01T07:18:25Z</time>
      </trkpt>
      <trkpt lat="44.70464" lon="5.62675">
        <ele>1298.4</ele>
        <time>2020-10-01T07:18:40Z</time>
      </trkpt>
      <trkpt lat="44.70467" lon="5.62674">
        <ele>1299.36</ele>
        <time>2020-10-01T07:18:54Z</time>
      </trkpt>
      <trkpt lat="44.70465" lon="5.62666">
        <ele>1299.36</ele>
        <time>2020-10-01T07:19:07Z</time>
      </trkpt>
      <trkpt lat="44.70465" lon="5.62668">
        <ele>1299.36</ele>
        <time>2020-10-01T07:19:08Z</time>
      </trkpt>
      <trkpt lat="44.70467" lon="5.6268">
        <ele>1296.96</ele>
        <time>2020-10-01T07:19:23Z</time>
      </trkpt>
      <trkpt lat="44.70467" lon="5.6268">
        <ele>1300.32</ele>
        <time>2020-10-01T07:19:34Z</time>
      </trkpt>
      <trkpt lat="44.70467" lon="5.6268">
        <ele>1303.2</ele>
        <time>2020-10-01T07:19:44Z</time>
      </trkpt>
      <trkpt lat="44.70468" lon="5.6268">
        <ele>1300.8</ele>
        <time>2020-10-01T07:19:50Z</time>
      </trkpt>
      <trkpt lat="44.70466" lon="5.6268">
        <ele>1302.72</ele>
        <time>2020-10-01T07:20:05Z</time>
      </trkpt>
      <trkpt lat="44.70469" lon="5.62677">
        <ele>1300.8</ele>
        <time>2020-10-01T07:20:32Z</time>
      </trkpt>
      <trkpt lat="44.70464" lon="5.62677">
        <ele>1299.84</ele>
        <time>2020-10-01T07:21:04Z</time>
      </trkpt>
      <trkpt lat="44.70465" lon="5.6268">
        <ele>1299.36</ele>
        <time>2020-10-01T07:21:35Z</time>
      </trkpt>
      <trkpt lat="44.70469" lon="5.6268">
        <ele>1299.84</ele>
        <time>2020-10-01T07:21:53Z</time>
      </trkpt>
      <trkpt lat="44.70469" lon="5.6268">
        <ele>1300.32</ele>
        <time>2020-10-01T07:21:56Z</time>
      </trkpt>
      <trkpt lat="44.70475" lon="5.6268">
        <ele>1302.24</ele>
        <time>2020-10-01T07:22:08Z</time>
      </trkpt>
      <trkpt lat="44.70476" lon="5.62684">
        <ele>1305.13</ele>
        <time>2020-10-01T07:22:23Z</time>
      </trkpt>
      <trkpt lat="44.70481" lon="5.62693">
        <ele>1307.53</ele>
        <time>2020-10-01T07:22:40Z</time>
      </trkpt>
      <trkpt lat="44.70493" lon="5.62698">
        <ele>1310.41</ele>
        <time>2020-10-01T07:22:56Z</time>
      </trkpt>
      <trkpt lat="44.70508" lon="5.62702">
        <ele>1313.3</ele>
        <time>2020-10-01T07:23:13Z</time>
      </trkpt>
      <trkpt lat="44.70522" lon="5.62709">
        <ele>1316.18</ele>
        <time>2020-10-01T07:23:30Z</time>
      </trkpt>
      <trkpt lat="44.70536" lon="5.62715">
        <ele>1319.55</ele>
        <time>2020-10-01T07:23:48Z</time>
      </trkpt>
      <trkpt lat="44.70525" lon="5.62722">
        <ele>1322.43</ele>
        <time>2020-10-01T07:24:05Z</time>
      </trkpt>
      <trkpt lat="44.70513" lon="5.62732">
        <ele>1325.8</ele>
        <time>2020-10-01T07:24:22Z</time>
      </trkpt>
      <trkpt lat="44.70502" lon="5.62742">
        <ele>1328.68</ele>
        <time>2020-10-01T07:24:38Z</time>
      </trkpt>
      <trkpt lat="44.70489" lon="5.62759">
        <ele>1331.56</ele>
        <time>2020-10-01T07:24:58Z</time>
      </trkpt>
      <trkpt lat="44.7048" lon="5.62776">
        <ele>1334.93</ele>
        <time>2020-10-01T07:25:17Z</time>
      </trkpt>
      <trkpt lat="44.70471" lon="5.62798">
        <ele>1337.81</ele>
        <time>2020-10-01T07:25:37Z</time>
      </trkpt>
      <trkpt lat="44.7048" lon="5.62799">
        <ele>1340.7</ele>
        <time>2020-10-01T07:25:54Z</time>
      </trkpt>
      <trkpt lat="44.705" lon="5.62797">
        <ele>1344.06</ele>
        <time>2020-10-01T07:26:15Z</time>
      </trkpt>
      <trkpt lat="44.70515" lon="5.62794">
        <ele>1347.43</ele>
        <time>2020-10-01T07:26:35Z</time>
      </trkpt>
      <trkpt lat="44.7053" lon="5.62794">
        <ele>1350.31</ele>
        <time>2020-10-01T07:26:54Z</time>
      </trkpt>
      <trkpt lat="44.70525" lon="5.62806">
        <ele>1353.19</ele>
        <time>2020-10-01T07:27:14Z</time>
      </trkpt>
      <trkpt lat="44.70516" lon="5.62817">
        <ele>1356.56</ele>
        <time>2020-10-01T07:27:30Z</time>
      </trkpt>
      <trkpt lat="44.7051" lon="5.62831">
        <ele>1359.44</ele>
        <time>2020-10-01T07:27:44Z</time>
      </trkpt>
      <trkpt lat="44.70501" lon="5.62847">
        <ele>1362.81</ele>
        <time>2020-10-01T07:28:02Z</time>
      </trkpt>
      <trkpt lat="44.70495" lon="5.62865">
        <ele>1365.69</ele>
        <time>2020-10-01T07:28:21Z</time>
      </trkpt>
      <trkpt lat="44.70504" lon="5.62864">
        <ele>1368.57</ele>
        <time>2020-10-01T07:28:38Z</time>
      </trkpt>
      <trkpt lat="44.7052" lon="5.62861">
        <ele>1371.94</ele>
        <time>2020-10-01T07:28:57Z</time>
      </trkpt>
      <trkpt lat="44.70534" lon="5.6286">
        <ele>1374.82</ele>
        <time>2020-10-01T07:29:14Z</time>
      </trkpt>
      <trkpt lat="44.7055" lon="5.62859">
        <ele>1377.71</ele>
        <time>2020-10-01T07:29:31Z</time>
      </trkpt>
      <trkpt lat="44.70562" lon="5.62856">
        <ele>1381.07</ele>
        <time>2020-10-01T07:29:49Z</time>
      </trkpt>
      <trkpt lat="44.70576" lon="5.62852">
        <ele>1383.96</ele>
        <time>2020-10-01T07:30:07Z</time>
      </trkpt>
      <trkpt lat="44.70591" lon="5.62849">
        <ele>1386.84</ele>
        <time>2020-10-01T07:30:24Z</time>
      </trkpt>
      <trkpt lat="44.70599" lon="5.62851">
        <ele>1390.2</ele>
        <time>2020-10-01T07:30:42Z</time>
      </trkpt>
      <trkpt lat="44.70592" lon="5.62867">
        <ele>1393.57</ele>
        <time>2020-10-01T07:31:00Z</time>
      </trkpt>
      <trkpt lat="44.70584" lon="5.62881">
        <ele>1396.45</ele>
        <time>2020-10-01T07:31:16Z</time>
      </trkpt>
      <trkpt lat="44.70573" lon="5.62893">
        <ele>1399.82</ele>
        <time>2020-10-01T07:31:35Z</time>
      </trkpt>
      <trkpt lat="44.70565" lon="5.62902">
        <ele>1402.7</ele>
        <time>2020-10-01T07:31:50Z</time>
      </trkpt>
      <trkpt lat="44.70572" lon="5.62903">
        <ele>1405.58</ele>
        <time>2020-10-01T07:32:07Z</time>
      </trkpt>
      <trkpt lat="44.70585" lon="5.62906">
        <ele>1408.95</ele>
        <time>2020-10-01T07:32:24Z</time>
      </trkpt>
      <trkpt lat="44.70598" lon="5.62905">
        <ele>1411.83</ele>
        <time>2020-10-01T07:32:44Z</time>
      </trkpt>
      <trkpt lat="44.7059" lon="5.62918">
        <ele>1415.2</ele>
        <time>2020-10-01T07:33:03Z</time>
      </trkpt>
      <trkpt lat="44.70581" lon="5.62932">
        <ele>1418.56</ele>
        <time>2020-10-01T07:33:21Z</time>
      </trkpt>
      <trkpt lat="44.70575" lon="5.62942">
        <ele>1421.45</ele>
        <time>2020-10-01T07:33:42Z</time>
      </trkpt>
      <trkpt lat="44.70577" lon="5.62943">
        <ele>1421.93</ele>
        <time>2020-10-01T07:33:45Z</time>
      </trkpt>
      <trkpt lat="44.70596" lon="5.62949">
        <ele>1424.81</ele>
        <time>2020-10-01T07:34:05Z</time>
      </trkpt>
      <trkpt lat="44.70614" lon="5.62945">
        <ele>1428.18</ele>
        <time>2020-10-01T07:34:23Z</time>
      </trkpt>
      <trkpt lat="44.70624" lon="5.62938">
        <ele>1430.1</ele>
        <time>2020-10-01T07:34:37Z</time>
      </trkpt>
      <trkpt lat="44.70631" lon="5.62929">
        <ele>1432.02</ele>
        <time>2020-10-01T07:34:48Z</time>
      </trkpt>
      <trkpt lat="44.70634" lon="5.62926">
        <ele>1432.5</ele>
        <time>2020-10-01T07:34:52Z</time>
      </trkpt>
      <trkpt lat="44.70647" lon="5.62917">
        <ele>1434.91</ele>
        <time>2020-10-01T07:35:08Z</time>
      </trkpt>
      <trkpt lat="44.70661" lon="5.62909">
        <ele>1437.31</ele>
        <time>2020-10-01T07:35:25Z</time>
      </trkpt>
      <trkpt lat="44.70666" lon="5.62906">
        <ele>1437.79</ele>
        <time>2020-10-01T07:35:31Z</time>
      </trkpt>
      <trkpt lat="44.70677" lon="5.62905">
        <ele>1438.75</ele>
        <time>2020-10-01T07:35:43Z</time>
      </trkpt>
      <trkpt lat="44.7068" lon="5.62907">
        <ele>1438.27</ele>
        <time>2020-10-01T07:35:57Z</time>
      </trkpt>
      <trkpt lat="44.70676" lon="5.62909">
        <ele>1438.27</ele>
        <time>2020-10-01T07:36:02Z</time>
      </trkpt>
      <trkpt lat="44.70674" lon="5.62908">
        <ele>1438.27</ele>
        <time>2020-10-01T07:36:03Z</time>
      </trkpt>
      <trkpt lat="44.70661" lon="5.62918">
        <ele>1438.27</ele>
        <time>2020-10-01T07:36:18Z</time>
      </trkpt>
      <trkpt lat="44.7066" lon="5.62925">
        <ele>1437.31</ele>
        <time>2020-10-01T07:36:26Z</time>
      </trkpt>
      <trkpt lat="44.70659" lon="5.62931">
        <ele>1438.75</ele>
        <time>2020-10-01T07:36:33Z</time>
      </trkpt>
      <trkpt lat="44.70659" lon="5.62946">
        <ele>1441.15</ele>
        <time>2020-10-01T07:36:49Z</time>
      </trkpt>
      <trkpt lat="44.70659" lon="5.62947">
        <ele>1441.63</ele>
        <time>2020-10-01T07:36:50Z</time>
      </trkpt>
      <trkpt lat="44.7066" lon="5.62949">
        <ele>1441.63</ele>
        <time>2020-10-01T07:36:51Z</time>
      </trkpt>
      <trkpt lat="44.7066" lon="5.62951">
        <ele>1441.63</ele>
        <time>2020-10-01T07:36:52Z</time>
      </trkpt>
      <trkpt lat="44.7066" lon="5.62952">
        <ele>1442.11</ele>
        <time>2020-10-01T07:36:53Z</time>
      </trkpt>
      <trkpt lat="44.7066" lon="5.62954">
        <ele>1441.63</ele>
        <time>2020-10-01T07:36:54Z</time>
      </trkpt>
      <trkpt lat="44.70661" lon="5.62955">
        <ele>1441.63</ele>
        <time>2020-10-01T07:36:55Z</time>
      </trkpt>
      <trkpt lat="44.70669" lon="5.62977">
        <ele>1442.11</ele>
        <time>2020-10-01T07:37:11Z</time>
      </trkpt>
      <trkpt lat="44.70674" lon="5.63">
        <ele>1443.08</ele>
        <time>2020-10-01T07:37:28Z</time>
      </trkpt>
      <trkpt lat="44.70674" lon="5.63002">
        <ele>1444.04</ele>
        <time>2020-10-01T07:37:30Z</time>
      </trkpt>
      <trkpt lat="44.70681" lon="5.63032">
        <ele>1445</ele>
        <time>2020-10-01T07:37:54Z</time>
      </trkpt>
      <trkpt lat="44.70681" lon="5.63062">
        <ele>1447.4</ele>
        <time>2020-10-01T07:38:15Z</time>
      </trkpt>
      <trkpt lat="44.70678" lon="5.63097">
        <ele>1447.4</ele>
        <time>2020-10-01T07:38:34Z</time>
      </trkpt>
      <trkpt lat="44.70681" lon="5.63108">
        <ele>1450.77</ele>
        <time>2020-10-01T07:38:42Z</time>
      </trkpt>
      <trkpt lat="44.70681" lon="5.63109">
        <ele>1450.77</ele>
        <time>2020-10-01T07:38:43Z</time>
      </trkpt>
      <trkpt lat="44.70683" lon="5.63111">
        <ele>1450.77</ele>
        <time>2020-10-01T07:38:46Z</time>
      </trkpt>
      <trkpt lat="44.70684" lon="5.63113">
        <ele>1450.29</ele>
        <time>2020-10-01T07:38:47Z</time>
      </trkpt>
      <trkpt lat="44.70684" lon="5.63114">
        <ele>1450.29</ele>
        <time>2020-10-01T07:38:48Z</time>
      </trkpt>
      <trkpt lat="44.70691" lon="5.63129">
        <ele>1449.32</ele>
        <time>2020-10-01T07:39:04Z</time>
      </trkpt>
      <trkpt lat="44.70692" lon="5.63138">
        <ele>1449.81</ele>
        <time>2020-10-01T07:39:11Z</time>
      </trkpt>
      <trkpt lat="44.70693" lon="5.63142">
        <ele>1449.81</ele>
        <time>2020-10-01T07:39:14Z</time>
      </trkpt>
      <trkpt lat="44.70699" lon="5.63156">
        <ele>1451.25</ele>
        <time>2020-10-01T07:39:27Z</time>
      </trkpt>
      <trkpt lat="44.707" lon="5.63157">
        <ele>1451.25</ele>
        <time>2020-10-01T07:39:28Z</time>
      </trkpt>
      <trkpt lat="44.70701" lon="5.63159">
        <ele>1451.25</ele>
        <time>2020-10-01T07:39:29Z</time>
      </trkpt>
      <trkpt lat="44.70708" lon="5.6318">
        <ele>1452.69</ele>
        <time>2020-10-01T07:39:44Z</time>
      </trkpt>
      <trkpt lat="44.70713" lon="5.63208">
        <ele>1454.61</ele>
        <time>2020-10-01T07:40:09Z</time>
      </trkpt>
      <trkpt lat="44.70723" lon="5.63222">
        <ele>1455.57</ele>
        <time>2020-10-01T07:40:22Z</time>
      </trkpt>
      <trkpt lat="44.70731" lon="5.63228">
        <ele>1456.53</ele>
        <time>2020-10-01T07:40:29Z</time>
      </trkpt>
      <trkpt lat="44.70735" lon="5.63234">
        <ele>1457.02</ele>
        <time>2020-10-01T07:40:35Z</time>
      </trkpt>
      <trkpt lat="44.70738" lon="5.63236">
        <ele>1457.02</ele>
        <time>2020-10-01T07:40:38Z</time>
      </trkpt>
      <trkpt lat="44.70751" lon="5.63254">
        <ele>1458.94</ele>
        <time>2020-10-01T07:40:54Z</time>
      </trkpt>
      <trkpt lat="44.70761" lon="5.63267">
        <ele>1459.9</ele>
        <time>2020-10-01T07:41:08Z</time>
      </trkpt>
      <trkpt lat="44.70764" lon="5.63272">
        <ele>1459.9</ele>
        <time>2020-10-01T07:41:13Z</time>
      </trkpt>
      <trkpt lat="44.70765" lon="5.63273">
        <ele>1460.38</ele>
        <time>2020-10-01T07:41:14Z</time>
      </trkpt>
      <trkpt lat="44.70776" lon="5.63293">
        <ele>1461.82</ele>
        <time>2020-10-01T07:41:31Z</time>
      </trkpt>
      <trkpt lat="44.70777" lon="5.63294">
        <ele>1461.82</ele>
        <time>2020-10-01T07:41:32Z</time>
      </trkpt>
      <trkpt lat="44.70778" lon="5.63295">
        <ele>1461.82</ele>
        <time>2020-10-01T07:41:33Z</time>
      </trkpt>
      <trkpt lat="44.70793" lon="5.63307">
        <ele>1463.74</ele>
        <time>2020-10-01T07:41:49Z</time>
      </trkpt>
      <trkpt lat="44.70809" lon="5.63325">
        <ele>1464.71</ele>
        <time>2020-10-01T07:42:07Z</time>
      </trkpt>
      <trkpt lat="44.7081" lon="5.63326">
        <ele>1464.71</ele>
        <time>2020-10-01T07:42:08Z</time>
      </trkpt>
      <trkpt lat="44.70811" lon="5.63327">
        <ele>1464.71</ele>
        <time>2020-10-01T07:42:09Z</time>
      </trkpt>
      <trkpt lat="44.70827" lon="5.63341">
        <ele>1466.15</ele>
        <time>2020-10-01T07:42:26Z</time>
      </trkpt>
      <trkpt lat="44.70832" lon="5.63346">
        <ele>1466.15</ele>
        <time>2020-10-01T07:42:32Z</time>
      </trkpt>
      <trkpt lat="44.70833" lon="5.63347">
        <ele>1466.15</ele>
        <time>2020-10-01T07:42:33Z</time>
      </trkpt>
      <trkpt lat="44.70834" lon="5.63348">
        <ele>1466.15</ele>
        <time>2020-10-01T07:42:34Z</time>
      </trkpt>
      <trkpt lat="44.70834" lon="5.63349">
        <ele>1466.15</ele>
        <time>2020-10-01T07:42:35Z</time>
      </trkpt>
      <trkpt lat="44.70835" lon="5.6335">
        <ele>1466.15</ele>
        <time>2020-10-01T07:42:36Z</time>
      </trkpt>
      <trkpt lat="44.70836" lon="5.63351">
        <ele>1466.63</ele>
        <time>2020-10-01T07:42:37Z</time>
      </trkpt>
      <trkpt lat="44.70837" lon="5.63352">
        <ele>1466.63</ele>
        <time>2020-10-01T07:42:38Z</time>
      </trkpt>
      <trkpt lat="44.70839" lon="5.63353">
        <ele>1466.63</ele>
        <time>2020-10-01T07:42:40Z</time>
      </trkpt>
      <trkpt lat="44.7084" lon="5.63353">
        <ele>1466.63</ele>
        <time>2020-10-01T07:42:41Z</time>
      </trkpt>
      <trkpt lat="44.70841" lon="5.63354">
        <ele>1466.63</ele>
        <time>2020-10-01T07:42:42Z</time>
      </trkpt>
      <trkpt lat="44.70842" lon="5.63356">
        <ele>1466.63</ele>
        <time>2020-10-01T07:42:44Z</time>
      </trkpt>
      <trkpt lat="44.70845" lon="5.63361">
        <ele>1466.63</ele>
        <time>2020-10-01T07:42:49Z</time>
      </trkpt>
      <trkpt lat="44.7086" lon="5.63373">
        <ele>1469.03</ele>
        <time>2020-10-01T07:43:06Z</time>
      </trkpt>
      <trkpt lat="44.70866" lon="5.63377">
        <ele>1469.03</ele>
        <time>2020-10-01T07:43:12Z</time>
      </trkpt>
      <trkpt lat="44.70867" lon="5.63378">
        <ele>1469.03</ele>
        <time>2020-10-01T07:43:13Z</time>
      </trkpt>
      <trkpt lat="44.70868" lon="5.63379">
        <ele>1469.03</ele>
        <time>2020-10-01T07:43:14Z</time>
      </trkpt>
      <trkpt lat="44.70869" lon="5.63379">
        <ele>1469.03</ele>
        <time>2020-10-01T07:43:15Z</time>
      </trkpt>
      <trkpt lat="44.7087" lon="5.6338">
        <ele>1469.51</ele>
        <time>2020-10-01T07:43:16Z</time>
      </trkpt>
      <trkpt lat="44.70873" lon="5.63382">
        <ele>1469.51</ele>
        <time>2020-10-01T07:43:19Z</time>
      </trkpt>
      <trkpt lat="44.70874" lon="5.63383">
        <ele>1469.51</ele>
        <time>2020-10-01T07:43:20Z</time>
      </trkpt>
      <trkpt lat="44.70875" lon="5.63384">
        <ele>1469.51</ele>
        <time>2020-10-01T07:43:21Z</time>
      </trkpt>
      <trkpt lat="44.70887" lon="5.63393">
        <ele>1470.95</ele>
        <time>2020-10-01T07:43:34Z</time>
      </trkpt>
      <trkpt lat="44.7089" lon="5.63396">
        <ele>1470.95</ele>
        <time>2020-10-01T07:43:38Z</time>
      </trkpt>
      <trkpt lat="44.70891" lon="5.63396">
        <ele>1470.95</ele>
        <time>2020-10-01T07:43:39Z</time>
      </trkpt>
      <trkpt lat="44.70907" lon="5.63409">
        <ele>1472.4</ele>
        <time>2020-10-01T07:43:55Z</time>
      </trkpt>
      <trkpt lat="44.70923" lon="5.63419">
        <ele>1473.36</ele>
        <time>2020-10-01T07:44:11Z</time>
      </trkpt>
      <trkpt lat="44.7094" lon="5.63434">
        <ele>1474.8</ele>
        <time>2020-10-01T07:44:29Z</time>
      </trkpt>
      <trkpt lat="44.70946" lon="5.6344">
        <ele>1475.28</ele>
        <time>2020-10-01T07:44:36Z</time>
      </trkpt>
      <trkpt lat="44.70947" lon="5.6344">
        <ele>1475.28</ele>
        <time>2020-10-01T07:44:37Z</time>
      </trkpt>
      <trkpt lat="44.70962" lon="5.63452">
        <ele>1475.76</ele>
        <time>2020-10-01T07:44:52Z</time>
      </trkpt>
      <trkpt lat="44.7097" lon="5.63462">
        <ele>1476.24</ele>
        <time>2020-10-01T07:45:02Z</time>
      </trkpt>
      <trkpt lat="44.70971" lon="5.63463">
        <ele>1476.24</ele>
        <time>2020-10-01T07:45:03Z</time>
      </trkpt>
      <trkpt lat="44.70972" lon="5.63464">
        <ele>1476.72</ele>
        <time>2020-10-01T07:45:04Z</time>
      </trkpt>
      <trkpt lat="44.70973" lon="5.63465">
        <ele>1476.72</ele>
        <time>2020-10-01T07:45:05Z</time>
      </trkpt>
      <trkpt lat="44.70974" lon="5.63466">
        <ele>1476.72</ele>
        <time>2020-10-01T07:45:06Z</time>
      </trkpt>
      <trkpt lat="44.70975" lon="5.63467">
        <ele>1477.2</ele>
        <time>2020-10-01T07:45:07Z</time>
      </trkpt>
      <trkpt lat="44.70975" lon="5.63467">
        <ele>1477.2</ele>
        <time>2020-10-01T07:45:08Z</time>
      </trkpt>
      <trkpt lat="44.70976" lon="5.63468">
        <ele>1477.2</ele>
        <time>2020-10-01T07:45:09Z</time>
      </trkpt>
      <trkpt lat="44.70982" lon="5.63473">
        <ele>1477.68</ele>
        <time>2020-10-01T07:45:15Z</time>
      </trkpt>
      <trkpt lat="44.70991" lon="5.63488">
        <ele>1479.13</ele>
        <time>2020-10-01T07:45:30Z</time>
      </trkpt>
      <trkpt lat="44.70993" lon="5.6349">
        <ele>1479.61</ele>
        <time>2020-10-01T07:45:32Z</time>
      </trkpt>
      <trkpt lat="44.71008" lon="5.63508">
        <ele>1481.05</ele>
        <time>2020-10-01T07:45:48Z</time>
      </trkpt>
      <trkpt lat="44.71014" lon="5.63518">
        <ele>1481.53</ele>
        <time>2020-10-01T07:45:57Z</time>
      </trkpt>
      <trkpt lat="44.71027" lon="5.63531">
        <ele>1481.53</ele>
        <time>2020-10-01T07:46:11Z</time>
      </trkpt>
      <trkpt lat="44.71039" lon="5.63547">
        <ele>1482.01</ele>
        <time>2020-10-01T07:46:26Z</time>
      </trkpt>
      <trkpt lat="44.7104" lon="5.63548">
        <ele>1482.01</ele>
        <time>2020-10-01T07:46:27Z</time>
      </trkpt>
      <trkpt lat="44.71041" lon="5.63549">
        <ele>1482.01</ele>
        <time>2020-10-01T07:46:28Z</time>
      </trkpt>
      <trkpt lat="44.71042" lon="5.6355">
        <ele>1482.01</ele>
        <time>2020-10-01T07:46:29Z</time>
      </trkpt>
      <trkpt lat="44.71043" lon="5.63551">
        <ele>1482.01</ele>
        <time>2020-10-01T07:46:30Z</time>
      </trkpt>
      <trkpt lat="44.71057" lon="5.63565">
        <ele>1483.45</ele>
        <time>2020-10-01T07:46:45Z</time>
      </trkpt>
      <trkpt lat="44.71065" lon="5.63578">
        <ele>1484.41</ele>
        <time>2020-10-01T07:46:56Z</time>
      </trkpt>
      <trkpt lat="44.71078" lon="5.63574">
        <ele>1484.41</ele>
        <time>2020-10-01T07:47:10Z</time>
      </trkpt>
      <trkpt lat="44.7109" lon="5.63573">
        <ele>1485.37</ele>
        <time>2020-10-01T07:47:24Z</time>
      </trkpt>
      <trkpt lat="44.71091" lon="5.63573">
        <ele>1485.37</ele>
        <time>2020-10-01T07:47:25Z</time>
      </trkpt>
      <trkpt lat="44.71104" lon="5.63573">
        <ele>1485.85</ele>
        <time>2020-10-01T07:47:40Z</time>
      </trkpt>
      <trkpt lat="44.71105" lon="5.63574">
        <ele>1485.85</ele>
        <time>2020-10-01T07:47:41Z</time>
      </trkpt>
      <trkpt lat="44.71124" lon="5.63575">
        <ele>1487.3</ele>
        <time>2020-10-01T07:47:57Z</time>
      </trkpt>
      <trkpt lat="44.71142" lon="5.63575">
        <ele>1487.78</ele>
        <time>2020-10-01T07:48:13Z</time>
      </trkpt>
      <trkpt lat="44.71151" lon="5.63577">
        <ele>1488.26</ele>
        <time>2020-10-01T07:48:21Z</time>
      </trkpt>
      <trkpt lat="44.71152" lon="5.63578">
        <ele>1488.26</ele>
        <time>2020-10-01T07:48:22Z</time>
      </trkpt>
      <trkpt lat="44.71172" lon="5.63588">
        <ele>1489.22</ele>
        <time>2020-10-01T07:48:39Z</time>
      </trkpt>
      <trkpt lat="44.71182" lon="5.63594">
        <ele>1490.18</ele>
        <time>2020-10-01T07:48:48Z</time>
      </trkpt>
      <trkpt lat="44.71201" lon="5.63607">
        <ele>1491.14</ele>
        <time>2020-10-01T07:49:05Z</time>
      </trkpt>
      <trkpt lat="44.71206" lon="5.63611">
        <ele>1491.62</ele>
        <time>2020-10-01T07:49:11Z</time>
      </trkpt>
      <trkpt lat="44.71207" lon="5.63612">
        <ele>1491.62</ele>
        <time>2020-10-01T07:49:12Z</time>
      </trkpt>
      <trkpt lat="44.7121" lon="5.63614">
        <ele>1491.62</ele>
        <time>2020-10-01T07:49:15Z</time>
      </trkpt>
      <trkpt lat="44.71211" lon="5.63615">
        <ele>1492.1</ele>
        <time>2020-10-01T07:49:16Z</time>
      </trkpt>
      <trkpt lat="44.71212" lon="5.63616">
        <ele>1492.1</ele>
        <time>2020-10-01T07:49:17Z</time>
      </trkpt>
      <trkpt lat="44.71213" lon="5.63617">
        <ele>1492.1</ele>
        <time>2020-10-01T07:49:18Z</time>
      </trkpt>
      <trkpt lat="44.71214" lon="5.63618">
        <ele>1492.1</ele>
        <time>2020-10-01T07:49:19Z</time>
      </trkpt>
      <trkpt lat="44.7123" lon="5.63639">
        <ele>1493.55</ele>
        <time>2020-10-01T07:49:38Z</time>
      </trkpt>
      <trkpt lat="44.71247" lon="5.63649">
        <ele>1494.99</ele>
        <time>2020-10-01T07:49:55Z</time>
      </trkpt>
      <trkpt lat="44.71267" lon="5.63655">
        <ele>1495.95</ele>
        <time>2020-10-01T07:50:12Z</time>
      </trkpt>
      <trkpt lat="44.71285" lon="5.63664">
        <ele>1496.91</ele>
        <time>2020-10-01T07:50:29Z</time>
      </trkpt>
      <trkpt lat="44.71302" lon="5.63671">
        <ele>1498.35</ele>
        <time>2020-10-01T07:50:44Z</time>
      </trkpt>
      <trkpt lat="44.71319" lon="5.63677">
        <ele>1499.31</ele>
        <time>2020-10-01T07:51:00Z</time>
      </trkpt>
      <trkpt lat="44.71337" lon="5.63676">
        <ele>1500.76</ele>
        <time>2020-10-01T07:51:16Z</time>
      </trkpt>
      <trkpt lat="44.71352" lon="5.63678">
        <ele>1501.72</ele>
        <time>2020-10-01T07:51:29Z</time>
      </trkpt>
      <trkpt lat="44.71353" lon="5.63678">
        <ele>1501.72</ele>
        <time>2020-10-01T07:51:30Z</time>
      </trkpt>
      <trkpt lat="44.71354" lon="5.63679">
        <ele>1502.2</ele>
        <time>2020-10-01T07:51:31Z</time>
      </trkpt>
      <trkpt lat="44.71373" lon="5.63683">
        <ele>1503.16</ele>
        <time>2020-10-01T07:51:47Z</time>
      </trkpt>
      <trkpt lat="44.71394" lon="5.63689">
        <ele>1504.6</ele>
        <time>2020-10-01T07:52:05Z</time>
      </trkpt>
      <trkpt lat="44.71413" lon="5.63695">
        <ele>1506.04</ele>
        <time>2020-10-01T07:52:22Z</time>
      </trkpt>
      <trkpt lat="44.7143" lon="5.63702">
        <ele>1507</ele>
        <time>2020-10-01T07:52:38Z</time>
      </trkpt>
      <trkpt lat="44.71436" lon="5.63705">
        <ele>1507.48</ele>
        <time>2020-10-01T07:52:44Z</time>
      </trkpt>
      <trkpt lat="44.71452" lon="5.63714">
        <ele>1509.41</ele>
        <time>2020-10-01T07:53:02Z</time>
      </trkpt>
      <trkpt lat="44.71469" lon="5.63722">
        <ele>1509.89</ele>
        <time>2020-10-01T07:53:19Z</time>
      </trkpt>
      <trkpt lat="44.71489" lon="5.63727">
        <ele>1510.37</ele>
        <time>2020-10-01T07:53:37Z</time>
      </trkpt>
      <trkpt lat="44.71494" lon="5.63728">
        <ele>1510.85</ele>
        <time>2020-10-01T07:53:41Z</time>
      </trkpt>
      <trkpt lat="44.71508" lon="5.6373">
        <ele>1512.29</ele>
        <time>2020-10-01T07:53:57Z</time>
      </trkpt>
      <trkpt lat="44.7152" lon="5.63731">
        <ele>1512.77</ele>
        <time>2020-10-01T07:54:14Z</time>
      </trkpt>
      <trkpt lat="44.71523" lon="5.63733">
        <ele>1512.77</ele>
        <time>2020-10-01T07:54:17Z</time>
      </trkpt>
      <trkpt lat="44.71527" lon="5.63737">
        <ele>1513.25</ele>
        <time>2020-10-01T07:54:22Z</time>
      </trkpt>
      <trkpt lat="44.71528" lon="5.63737">
        <ele>1513.25</ele>
        <time>2020-10-01T07:54:23Z</time>
      </trkpt>
      <trkpt lat="44.7153" lon="5.63738">
        <ele>1513.25</ele>
        <time>2020-10-01T07:54:24Z</time>
      </trkpt>
      <trkpt lat="44.71539" lon="5.63743">
        <ele>1514.21</ele>
        <time>2020-10-01T07:54:34Z</time>
      </trkpt>
      <trkpt lat="44.71544" lon="5.63747">
        <ele>1514.69</ele>
        <time>2020-10-01T07:54:39Z</time>
      </trkpt>
      <trkpt lat="44.71547" lon="5.63752">
        <ele>1515.18</ele>
        <time>2020-10-01T07:54:44Z</time>
      </trkpt>
      <trkpt lat="44.71548" lon="5.63753">
        <ele>1515.18</ele>
        <time>2020-10-01T07:54:45Z</time>
      </trkpt>
      <trkpt lat="44.71553" lon="5.63755">
        <ele>1515.18</ele>
        <time>2020-10-01T07:54:50Z</time>
      </trkpt>
      <trkpt lat="44.71557" lon="5.63759">
        <ele>1516.62</ele>
        <time>2020-10-01T07:54:57Z</time>
      </trkpt>
      <trkpt lat="44.71558" lon="5.63759">
        <ele>1516.62</ele>
        <time>2020-10-01T07:54:58Z</time>
      </trkpt>
      <trkpt lat="44.71571" lon="5.63763">
        <ele>1517.58</ele>
        <time>2020-10-01T07:55:12Z</time>
      </trkpt>
      <trkpt lat="44.71577" lon="5.63763">
        <ele>1517.58</ele>
        <time>2020-10-01T07:55:26Z</time>
      </trkpt>
      <trkpt lat="44.71579" lon="5.63763">
        <ele>1517.58</ele>
        <time>2020-10-01T07:55:28Z</time>
      </trkpt>
      <trkpt lat="44.7158" lon="5.63763">
        <ele>1517.58</ele>
        <time>2020-10-01T07:55:29Z</time>
      </trkpt>
      <trkpt lat="44.71584" lon="5.63762">
        <ele>1518.06</ele>
        <time>2020-10-01T07:55:33Z</time>
      </trkpt>
      <trkpt lat="44.71598" lon="5.63766">
        <ele>1519.5</ele>
        <time>2020-10-01T07:55:48Z</time>
      </trkpt>
      <trkpt lat="44.71612" lon="5.63773">
        <ele>1521.42</ele>
        <time>2020-10-01T07:56:03Z</time>
      </trkpt>
      <trkpt lat="44.71615" lon="5.63773">
        <ele>1521.9</ele>
        <time>2020-10-01T07:56:05Z</time>
      </trkpt>
      <trkpt lat="44.71616" lon="5.63773">
        <ele>1521.9</ele>
        <time>2020-10-01T07:56:06Z</time>
      </trkpt>
      <trkpt lat="44.71634" lon="5.63776">
        <ele>1523.35</ele>
        <time>2020-10-01T07:56:23Z</time>
      </trkpt>
      <trkpt lat="44.71653" lon="5.63783">
        <ele>1525.27</ele>
        <time>2020-10-01T07:56:41Z</time>
      </trkpt>
      <trkpt lat="44.7166" lon="5.63787">
        <ele>1526.23</ele>
        <time>2020-10-01T07:56:49Z</time>
      </trkpt>
      <trkpt lat="44.71666" lon="5.63789">
        <ele>1526.71</ele>
        <time>2020-10-01T07:56:55Z</time>
      </trkpt>
      <trkpt lat="44.71667" lon="5.6379">
        <ele>1526.71</ele>
        <time>2020-10-01T07:56:56Z</time>
      </trkpt>
      <trkpt lat="44.71668" lon="5.6379">
        <ele>1527.19</ele>
        <time>2020-10-01T07:56:57Z</time>
      </trkpt>
      <trkpt lat="44.71669" lon="5.6379">
        <ele>1527.19</ele>
        <time>2020-10-01T07:56:58Z</time>
      </trkpt>
      <trkpt lat="44.7167" lon="5.6379">
        <ele>1527.19</ele>
        <time>2020-10-01T07:56:59Z</time>
      </trkpt>
      <trkpt lat="44.71672" lon="5.6379">
        <ele>1527.19</ele>
        <time>2020-10-01T07:57:00Z</time>
      </trkpt>
      <trkpt lat="44.71688" lon="5.63794">
        <ele>1529.11</ele>
        <time>2020-10-01T07:57:16Z</time>
      </trkpt>
      <trkpt lat="44.717" lon="5.63802">
        <ele>1530.56</ele>
        <time>2020-10-01T07:57:31Z</time>
      </trkpt>
      <trkpt lat="44.71704" lon="5.63805">
        <ele>1531.04</ele>
        <time>2020-10-01T07:57:38Z</time>
      </trkpt>
      <trkpt lat="44.71705" lon="5.63806">
        <ele>1531.04</ele>
        <time>2020-10-01T07:57:39Z</time>
      </trkpt>
      <trkpt lat="44.71708" lon="5.63807">
        <ele>1531.52</ele>
        <time>2020-10-01T07:57:41Z</time>
      </trkpt>
      <trkpt lat="44.71718" lon="5.63816">
        <ele>1532</ele>
        <time>2020-10-01T07:57:55Z</time>
      </trkpt>
      <trkpt lat="44.71731" lon="5.63825">
        <ele>1533.44</ele>
        <time>2020-10-01T07:58:11Z</time>
      </trkpt>
      <trkpt lat="44.71732" lon="5.63826">
        <ele>1533.44</ele>
        <time>2020-10-01T07:58:13Z</time>
      </trkpt>
      <trkpt lat="44.71736" lon="5.63828">
        <ele>1533.44</ele>
        <time>2020-10-01T07:58:18Z</time>
      </trkpt>
      <trkpt lat="44.71743" lon="5.6383">
        <ele>1533.44</ele>
        <time>2020-10-01T07:58:30Z</time>
      </trkpt>
      <trkpt lat="44.71748" lon="5.63832">
        <ele>1533.44</ele>
        <time>2020-10-01T07:58:43Z</time>
      </trkpt>
      <trkpt lat="44.71753" lon="5.63839">
        <ele>1534.88</ele>
        <time>2020-10-01T07:58:58Z</time>
      </trkpt>
      <trkpt lat="44.71772" lon="5.63845">
        <ele>1535.84</ele>
        <time>2020-10-01T07:59:16Z</time>
      </trkpt>
      <trkpt lat="44.71789" lon="5.63853">
        <ele>1536.32</ele>
        <time>2020-10-01T07:59:34Z</time>
      </trkpt>
      <trkpt lat="44.71802" lon="5.63861">
        <ele>1537.77</ele>
        <time>2020-10-01T07:59:49Z</time>
      </trkpt>
      <trkpt lat="44.71803" lon="5.63862">
        <ele>1537.77</ele>
        <time>2020-10-01T07:59:50Z</time>
      </trkpt>
      <trkpt lat="44.71804" lon="5.63863">
        <ele>1537.77</ele>
        <time>2020-10-01T07:59:51Z</time>
      </trkpt>
      <trkpt lat="44.71806" lon="5.63864">
        <ele>1537.77</ele>
        <time>2020-10-01T07:59:53Z</time>
      </trkpt>
      <trkpt lat="44.71822" lon="5.63871">
        <ele>1539.21</ele>
        <time>2020-10-01T08:00:10Z</time>
      </trkpt>
      <trkpt lat="44.71823" lon="5.63871">
        <ele>1539.21</ele>
        <time>2020-10-01T08:00:11Z</time>
      </trkpt>
      <trkpt lat="44.71836" lon="5.63875">
        <ele>1541.13</ele>
        <time>2020-10-01T08:00:26Z</time>
      </trkpt>
      <trkpt lat="44.71837" lon="5.63875">
        <ele>1541.13</ele>
        <time>2020-10-01T08:00:27Z</time>
      </trkpt>
      <trkpt lat="44.71849" lon="5.6387">
        <ele>1543.53</ele>
        <time>2020-10-01T08:00:42Z</time>
      </trkpt>
      <trkpt lat="44.71858" lon="5.6387">
        <ele>1544.01</ele>
        <time>2020-10-01T08:00:58Z</time>
      </trkpt>
      <trkpt lat="44.7187" lon="5.63874">
        <ele>1546.42</ele>
        <time>2020-10-01T08:01:14Z</time>
      </trkpt>
      <trkpt lat="44.71887" lon="5.63881">
        <ele>1548.82</ele>
        <time>2020-10-01T08:01:32Z</time>
      </trkpt>
      <trkpt lat="44.71899" lon="5.6388">
        <ele>1550.26</ele>
        <time>2020-10-01T08:01:46Z</time>
      </trkpt>
      <trkpt lat="44.71914" lon="5.63877">
        <ele>1552.67</ele>
        <time>2020-10-01T08:02:02Z</time>
      </trkpt>
      <trkpt lat="44.71923" lon="5.63872">
        <ele>1554.11</ele>
        <time>2020-10-01T08:02:12Z</time>
      </trkpt>
      <trkpt lat="44.71938" lon="5.63872">
        <ele>1556.03</ele>
        <time>2020-10-01T08:02:28Z</time>
      </trkpt>
      <trkpt lat="44.71953" lon="5.63867">
        <ele>1558.43</ele>
        <time>2020-10-01T08:02:43Z</time>
      </trkpt>
      <trkpt lat="44.71962" lon="5.63867">
        <ele>1559.4</ele>
        <time>2020-10-01T08:02:54Z</time>
      </trkpt>
      <trkpt lat="44.71967" lon="5.63864">
        <ele>1561.32</ele>
        <time>2020-10-01T08:03:10Z</time>
      </trkpt>
      <trkpt lat="44.71968" lon="5.63864">
        <ele>1561.8</ele>
        <time>2020-10-01T08:03:12Z</time>
      </trkpt>
      <trkpt lat="44.71973" lon="5.63866">
        <ele>1562.28</ele>
        <time>2020-10-01T08:03:29Z</time>
      </trkpt>
      <trkpt lat="44.71978" lon="5.63869">
        <ele>1562.76</ele>
        <time>2020-10-01T08:03:35Z</time>
      </trkpt>
      <trkpt lat="44.71979" lon="5.63869">
        <ele>1562.76</ele>
        <time>2020-10-01T08:03:36Z</time>
      </trkpt>
      <trkpt lat="44.71994" lon="5.63873">
        <ele>1564.2</ele>
        <time>2020-10-01T08:03:52Z</time>
      </trkpt>
      <trkpt lat="44.72006" lon="5.63877">
        <ele>1564.2</ele>
        <time>2020-10-01T08:04:07Z</time>
      </trkpt>
      <trkpt lat="44.72013" lon="5.63881">
        <ele>1567.09</ele>
        <time>2020-10-01T08:04:17Z</time>
      </trkpt>
      <trkpt lat="44.72015" lon="5.63882">
        <ele>1567.57</ele>
        <time>2020-10-01T08:04:19Z</time>
      </trkpt>
      <trkpt lat="44.72026" lon="5.63886">
        <ele>1569.01</ele>
        <time>2020-10-01T08:04:36Z</time>
      </trkpt>
      <trkpt lat="44.72032" lon="5.63892">
        <ele>1571.41</ele>
        <time>2020-10-01T08:04:49Z</time>
      </trkpt>
      <trkpt lat="44.72045" lon="5.63892">
        <ele>1572.85</ele>
        <time>2020-10-01T08:05:03Z</time>
      </trkpt>
      <trkpt lat="44.72059" lon="5.63887">
        <ele>1574.3</ele>
        <time>2020-10-01T08:05:18Z</time>
      </trkpt>
      <trkpt lat="44.72063" lon="5.63885">
        <ele>1575.26</ele>
        <time>2020-10-01T08:05:25Z</time>
      </trkpt>
      <trkpt lat="44.72068" lon="5.63885">
        <ele>1575.74</ele>
        <time>2020-10-01T08:05:30Z</time>
      </trkpt>
      <trkpt lat="44.72077" lon="5.63887">
        <ele>1577.18</ele>
        <time>2020-10-01T08:05:40Z</time>
      </trkpt>
      <trkpt lat="44.72078" lon="5.63886">
        <ele>1577.18</ele>
        <time>2020-10-01T08:05:41Z</time>
      </trkpt>
      <trkpt lat="44.72079" lon="5.63886">
        <ele>1577.18</ele>
        <time>2020-10-01T08:05:42Z</time>
      </trkpt>
      <trkpt lat="44.72094" lon="5.63878">
        <ele>1579.58</ele>
        <time>2020-10-01T08:06:00Z</time>
      </trkpt>
      <trkpt lat="44.721" lon="5.63876">
        <ele>1581.03</ele>
        <time>2020-10-01T08:06:06Z</time>
      </trkpt>
      <trkpt lat="44.72109" lon="5.63874">
        <ele>1582.95</ele>
        <time>2020-10-01T08:06:17Z</time>
      </trkpt>
      <trkpt lat="44.7211" lon="5.63874">
        <ele>1582.95</ele>
        <time>2020-10-01T08:06:18Z</time>
      </trkpt>
      <trkpt lat="44.72111" lon="5.63872">
        <ele>1583.43</ele>
        <time>2020-10-01T08:06:19Z</time>
      </trkpt>
      <trkpt lat="44.72118" lon="5.63867">
        <ele>1584.87</ele>
        <time>2020-10-01T08:06:34Z</time>
      </trkpt>
      <trkpt lat="44.7212" lon="5.63868">
        <ele>1585.83</ele>
        <time>2020-10-01T08:06:46Z</time>
      </trkpt>
      <trkpt lat="44.7212" lon="5.63869">
        <ele>1585.83</ele>
        <time>2020-10-01T08:07:13Z</time>
      </trkpt>
      <trkpt lat="44.7212" lon="5.63872">
        <ele>1585.35</ele>
        <time>2020-10-01T08:07:40Z</time>
      </trkpt>
      <trkpt lat="44.72119" lon="5.63869">
        <ele>1584.87</ele>
        <time>2020-10-01T08:08:12Z</time>
      </trkpt>
      <trkpt lat="44.7212" lon="5.6387">
        <ele>1585.83</ele>
        <time>2020-10-01T08:08:40Z</time>
      </trkpt>
      <trkpt lat="44.7212" lon="5.63869">
        <ele>1585.83</ele>
        <time>2020-10-01T08:09:11Z</time>
      </trkpt>
      <trkpt lat="44.72119" lon="5.63869">
        <ele>1585.83</ele>
        <time>2020-10-01T08:09:45Z</time>
      </trkpt>
      <trkpt lat="44.72121" lon="5.6387">
        <ele>1585.83</ele>
        <time>2020-10-01T08:10:20Z</time>
      </trkpt>
      <trkpt lat="44.72122" lon="5.63873">
        <ele>1585.83</ele>
        <time>2020-10-01T08:10:43Z</time>
      </trkpt>
      <trkpt lat="44.72125" lon="5.63873">
        <ele>1585.83</ele>
        <time>2020-10-01T08:11:30Z</time>
      </trkpt>
      <trkpt lat="44.72123" lon="5.63873">
        <ele>1585.83</ele>
        <time>2020-10-01T08:11:43Z</time>
      </trkpt>
      <trkpt lat="44.72122" lon="5.63867">
        <ele>1586.31</ele>
        <time>2020-10-01T08:12:26Z</time>
      </trkpt>
      <trkpt lat="44.72117" lon="5.63866">
        <ele>1586.79</ele>
        <time>2020-10-01T08:12:38Z</time>
      </trkpt>
      <trkpt lat="44.72118" lon="5.63871">
        <ele>1586.79</ele>
        <time>2020-10-01T08:13:03Z</time>
      </trkpt>
      <trkpt lat="44.72118" lon="5.63871">
        <ele>1586.79</ele>
        <time>2020-10-01T08:13:36Z</time>
      </trkpt>
      <trkpt lat="44.72118" lon="5.63872">
        <ele>1586.79</ele>
        <time>2020-10-01T08:14:09Z</time>
      </trkpt>
      <trkpt lat="44.72119" lon="5.63874">
        <ele>1586.79</ele>
        <time>2020-10-01T08:14:37Z</time>
      </trkpt>
      <trkpt lat="44.72119" lon="5.63871">
        <ele>1586.79</ele>
        <time>2020-10-01T08:15:15Z</time>
      </trkpt>
      <trkpt lat="44.72122" lon="5.6387">
        <ele>1586.79</ele>
        <time>2020-10-01T08:15:52Z</time>
      </trkpt>
      <trkpt lat="44.72121" lon="5.63871">
        <ele>1586.79</ele>
        <time>2020-10-01T08:16:29Z</time>
      </trkpt>
      <trkpt lat="44.72121" lon="5.63871">
        <ele>1586.79</ele>
        <time>2020-10-01T08:17:04Z</time>
      </trkpt>
      <trkpt lat="44.72121" lon="5.63871">
        <ele>1586.79</ele>
        <time>2020-10-01T08:17:47Z</time>
      </trkpt>
      <trkpt lat="44.72124" lon="5.63871">
        <ele>1586.79</ele>
        <time>2020-10-01T08:18:39Z</time>
      </trkpt>
      <trkpt lat="44.72125" lon="5.6387">
        <ele>1586.79</ele>
        <time>2020-10-01T08:18:48Z</time>
      </trkpt>
      <trkpt lat="44.72123" lon="5.63871">
        <ele>1586.79</ele>
        <time>2020-10-01T08:19:37Z</time>
      </trkpt>
      <trkpt lat="44.72119" lon="5.63875">
        <ele>1586.79</ele>
        <time>2020-10-01T08:19:59Z</time>
      </trkpt>
      <trkpt lat="44.72114" lon="5.63876">
        <ele>1586.79</ele>
        <time>2020-10-01T08:20:21Z</time>
      </trkpt>
      <trkpt lat="44.72114" lon="5.63874">
        <ele>1586.79</ele>
        <time>2020-10-01T08:20:39Z</time>
      </trkpt>
      <trkpt lat="44.72121" lon="5.6387">
        <ele>1586.79</ele>
        <time>2020-10-01T08:21:01Z</time>
      </trkpt>
      <trkpt lat="44.72121" lon="5.6387">
        <ele>1586.79</ele>
        <time>2020-10-01T08:21:29Z</time>
      </trkpt>
      <trkpt lat="44.72121" lon="5.63872">
        <ele>1586.79</ele>
        <time>2020-10-01T08:22:05Z</time>
      </trkpt>
      <trkpt lat="44.72122" lon="5.63871">
        <ele>1586.79</ele>
        <time>2020-10-01T08:22:45Z</time>
      </trkpt>
      <trkpt lat="44.72123" lon="5.63871">
        <ele>1586.79</ele>
        <time>2020-10-01T08:23:22Z</time>
      </trkpt>
      <trkpt lat="44.72123" lon="5.63872">
        <ele>1586.79</ele>
        <time>2020-10-01T08:23:59Z</time>
      </trkpt>
      <trkpt lat="44.72121" lon="5.63872">
        <ele>1586.79</ele>
        <time>2020-10-01T08:24:34Z</time>
      </trkpt>
      <trkpt lat="44.7212" lon="5.63872">
        <ele>1586.79</ele>
        <time>2020-10-01T08:25:05Z</time>
      </trkpt>
      <trkpt lat="44.7212" lon="5.63872">
        <ele>1586.79</ele>
        <time>2020-10-01T08:25:43Z</time>
      </trkpt>
      <trkpt lat="44.72119" lon="5.63872">
        <ele>1586.79</ele>
        <time>2020-10-01T08:26:13Z</time>
      </trkpt>
      <trkpt lat="44.72119" lon="5.63871">
        <ele>1586.79</ele>
        <time>2020-10-01T08:26:41Z</time>
      </trkpt>
      <trkpt lat="44.72119" lon="5.63871">
        <ele>1586.79</ele>
        <time>2020-10-01T08:27:06Z</time>
      </trkpt>
      <trkpt lat="44.72122" lon="5.63873">
        <ele>1586.79</ele>
        <time>2020-10-01T08:27:31Z</time>
      </trkpt>
      <trkpt lat="44.72128" lon="5.63872">
        <ele>1586.79</ele>
        <time>2020-10-01T08:27:51Z</time>
      </trkpt>
      <trkpt lat="44.72145" lon="5.63872">
        <ele>1586.79</ele>
        <time>2020-10-01T08:28:14Z</time>
      </trkpt>
      <trkpt lat="44.72162" lon="5.63874">
        <ele>1588.72</ele>
        <time>2020-10-01T08:28:33Z</time>
      </trkpt>
      <trkpt lat="44.72165" lon="5.63874">
        <ele>1589.2</ele>
        <time>2020-10-01T08:28:36Z</time>
      </trkpt>
      <trkpt lat="44.72166" lon="5.63874">
        <ele>1589.2</ele>
        <time>2020-10-01T08:28:37Z</time>
      </trkpt>
      <trkpt lat="44.72178" lon="5.63876">
        <ele>1590.16</ele>
        <time>2020-10-01T08:28:48Z</time>
      </trkpt>
      <trkpt lat="44.72197" lon="5.63885">
        <ele>1591.12</ele>
        <time>2020-10-01T08:29:11Z</time>
      </trkpt>
      <trkpt lat="44.72201" lon="5.63899">
        <ele>1594</ele>
        <time>2020-10-01T08:29:34Z</time>
      </trkpt>
      <trkpt lat="44.72207" lon="5.63902">
        <ele>1596.89</ele>
        <time>2020-10-01T08:30:00Z</time>
      </trkpt>
      <trkpt lat="44.72221" lon="5.63907">
        <ele>1598.81</ele>
        <time>2020-10-01T08:30:24Z</time>
      </trkpt>
      <trkpt lat="44.72241" lon="5.63914">
        <ele>1601.21</ele>
        <time>2020-10-01T08:30:48Z</time>
      </trkpt>
      <trkpt lat="44.72243" lon="5.63913">
        <ele>1601.21</ele>
        <time>2020-10-01T08:30:50Z</time>
      </trkpt>
      <trkpt lat="44.72263" lon="5.63913">
        <ele>1602.17</ele>
        <time>2020-10-01T08:31:08Z</time>
      </trkpt>
      <trkpt lat="44.72276" lon="5.63911">
        <ele>1602.17</ele>
        <time>2020-10-01T08:31:21Z</time>
      </trkpt>
      <trkpt lat="44.72295" lon="5.63918">
        <ele>1602.66</ele>
        <time>2020-10-01T08:31:40Z</time>
      </trkpt>
      <trkpt lat="44.72311" lon="5.63932">
        <ele>1604.1</ele>
        <time>2020-10-01T08:31:58Z</time>
      </trkpt>
      <trkpt lat="44.72317" lon="5.63935">
        <ele>1605.06</ele>
        <time>2020-10-01T08:32:05Z</time>
      </trkpt>
      <trkpt lat="44.72331" lon="5.63944">
        <ele>1606.5</ele>
        <time>2020-10-01T08:32:21Z</time>
      </trkpt>
      <trkpt lat="44.72344" lon="5.63948">
        <ele>1607.46</ele>
        <time>2020-10-01T08:32:36Z</time>
      </trkpt>
      <trkpt lat="44.72358" lon="5.63951">
        <ele>1608.42</ele>
        <time>2020-10-01T08:32:50Z</time>
      </trkpt>
      <trkpt lat="44.72369" lon="5.63948">
        <ele>1608.9</ele>
        <time>2020-10-01T08:33:03Z</time>
      </trkpt>
      <trkpt lat="44.72384" lon="5.6395">
        <ele>1609.86</ele>
        <time>2020-10-01T08:33:24Z</time>
      </trkpt>
      <trkpt lat="44.72399" lon="5.63945">
        <ele>1610.83</ele>
        <time>2020-10-01T08:33:44Z</time>
      </trkpt>
      <trkpt lat="44.72403" lon="5.63942">
        <ele>1611.31</ele>
        <time>2020-10-01T08:33:50Z</time>
      </trkpt>
      <trkpt lat="44.72413" lon="5.63941">
        <ele>1613.23</ele>
        <time>2020-10-01T08:34:03Z</time>
      </trkpt>
      <trkpt lat="44.72415" lon="5.63941">
        <ele>1613.23</ele>
        <time>2020-10-01T08:34:05Z</time>
      </trkpt>
      <trkpt lat="44.72432" lon="5.63941">
        <ele>1615.15</ele>
        <time>2020-10-01T08:34:21Z</time>
      </trkpt>
      <trkpt lat="44.72444" lon="5.6394">
        <ele>1616.59</ele>
        <time>2020-10-01T08:34:38Z</time>
      </trkpt>
      <trkpt lat="44.72447" lon="5.63941">
        <ele>1616.59</ele>
        <time>2020-10-01T08:34:40Z</time>
      </trkpt>
      <trkpt lat="44.72448" lon="5.63941">
        <ele>1616.59</ele>
        <time>2020-10-01T08:34:41Z</time>
      </trkpt>
      <trkpt lat="44.7245" lon="5.63942">
        <ele>1616.59</ele>
        <time>2020-10-01T08:34:43Z</time>
      </trkpt>
      <trkpt lat="44.72451" lon="5.63943">
        <ele>1616.59</ele>
        <time>2020-10-01T08:34:44Z</time>
      </trkpt>
      <trkpt lat="44.72459" lon="5.63943">
        <ele>1616.59</ele>
        <time>2020-10-01T08:34:51Z</time>
      </trkpt>
      <trkpt lat="44.7247" lon="5.63948">
        <ele>1618.04</ele>
        <time>2020-10-01T08:35:07Z</time>
      </trkpt>
      <trkpt lat="44.72473" lon="5.63951">
        <ele>1618.52</ele>
        <time>2020-10-01T08:35:13Z</time>
      </trkpt>
      <trkpt lat="44.72485" lon="5.63957">
        <ele>1620.44</ele>
        <time>2020-10-01T08:35:30Z</time>
      </trkpt>
      <trkpt lat="44.72487" lon="5.63957">
        <ele>1620.92</ele>
        <time>2020-10-01T08:35:32Z</time>
      </trkpt>
      <trkpt lat="44.72499" lon="5.63956">
        <ele>1622.36</ele>
        <time>2020-10-01T08:35:48Z</time>
      </trkpt>
      <trkpt lat="44.72506" lon="5.63955">
        <ele>1623.32</ele>
        <time>2020-10-01T08:35:57Z</time>
      </trkpt>
      <trkpt lat="44.72514" lon="5.63955">
        <ele>1624.77</ele>
        <time>2020-10-01T08:36:13Z</time>
      </trkpt>
      <trkpt lat="44.72516" lon="5.63955">
        <ele>1625.25</ele>
        <time>2020-10-01T08:36:15Z</time>
      </trkpt>
      <trkpt lat="44.72522" lon="5.63955">
        <ele>1626.21</ele>
        <time>2020-10-01T08:36:21Z</time>
      </trkpt>
      <trkpt lat="44.72537" lon="5.63953">
        <ele>1628.13</ele>
        <time>2020-10-01T08:36:37Z</time>
      </trkpt>
      <trkpt lat="44.72539" lon="5.63952">
        <ele>1628.61</ele>
        <time>2020-10-01T08:36:39Z</time>
      </trkpt>
      <trkpt lat="44.7255" lon="5.6395">
        <ele>1630.05</ele>
        <time>2020-10-01T08:36:52Z</time>
      </trkpt>
      <trkpt lat="44.72556" lon="5.63946">
        <ele>1631.49</ele>
        <time>2020-10-01T08:36:59Z</time>
      </trkpt>
      <trkpt lat="44.72557" lon="5.63947">
        <ele>1631.49</ele>
        <time>2020-10-01T08:37:00Z</time>
      </trkpt>
      <trkpt lat="44.72558" lon="5.63947">
        <ele>1631.49</ele>
        <time>2020-10-01T08:37:01Z</time>
      </trkpt>
      <trkpt lat="44.72563" lon="5.6395">
        <ele>1631.98</ele>
        <time>2020-10-01T08:37:15Z</time>
      </trkpt>
      <trkpt lat="44.72569" lon="5.63959">
        <ele>1633.42</ele>
        <time>2020-10-01T08:37:34Z</time>
      </trkpt>
      <trkpt lat="44.72575" lon="5.63963">
        <ele>1634.86</ele>
        <time>2020-10-01T08:37:53Z</time>
      </trkpt>
      <trkpt lat="44.72581" lon="5.63965">
        <ele>1635.82</ele>
        <time>2020-10-01T08:38:08Z</time>
      </trkpt>
      <trkpt lat="44.72586" lon="5.6397">
        <ele>1636.78</ele>
        <time>2020-10-01T08:38:22Z</time>
      </trkpt>
      <trkpt lat="44.72591" lon="5.63979">
        <ele>1639.67</ele>
        <time>2020-10-01T08:38:47Z</time>
      </trkpt>
      <trkpt lat="44.72599" lon="5.63986">
        <ele>1643.03</ele>
        <time>2020-10-01T08:39:08Z</time>
      </trkpt>
      <trkpt lat="44.726" lon="5.63986">
        <ele>1643.51</ele>
        <time>2020-10-01T08:39:33Z</time>
      </trkpt>
      <trkpt lat="44.726" lon="5.63987">
        <ele>1643.51</ele>
        <time>2020-10-01T08:40:08Z</time>
      </trkpt>
      <trkpt lat="44.72599" lon="5.63986">
        <ele>1643.03</ele>
        <time>2020-10-01T08:40:52Z</time>
      </trkpt>
      <trkpt lat="44.726" lon="5.63985">
        <ele>1643.03</ele>
        <time>2020-10-01T08:41:30Z</time>
      </trkpt>
      <trkpt lat="44.726" lon="5.63984">
        <ele>1643.03</ele>
        <time>2020-10-01T08:42:08Z</time>
      </trkpt>
      <trkpt lat="44.726" lon="5.63984">
        <ele>1646.4</ele>
        <time>2020-10-01T08:42:16Z</time>
      </trkpt>
      <trkpt lat="44.726" lon="5.63984">
        <ele>1646.4</ele>
        <time>2020-10-01T08:42:17Z</time>
      </trkpt>
      <trkpt lat="44.726" lon="5.63984">
        <ele>1643.51</ele>
        <time>2020-10-01T08:42:33Z</time>
      </trkpt>
      <trkpt lat="44.72598" lon="5.63983">
        <ele>1643.03</ele>
        <time>2020-10-01T08:43:09Z</time>
      </trkpt>
      <trkpt lat="44.72605" lon="5.63985">
        <ele>1643.03</ele>
        <time>2020-10-01T08:43:42Z</time>
      </trkpt>
      <trkpt lat="44.72618" lon="5.63983">
        <ele>1643.51</ele>
        <time>2020-10-01T08:44:00Z</time>
      </trkpt>
      <trkpt lat="44.72634" lon="5.63983">
        <ele>1643.99</ele>
        <time>2020-10-01T08:44:18Z</time>
      </trkpt>
      <trkpt lat="44.7264" lon="5.63983">
        <ele>1644.95</ele>
        <time>2020-10-01T08:44:32Z</time>
      </trkpt>
      <trkpt lat="44.72651" lon="5.63984">
        <ele>1647.36</ele>
        <time>2020-10-01T08:44:53Z</time>
      </trkpt>
      <trkpt lat="44.72657" lon="5.63984">
        <ele>1647.84</ele>
        <time>2020-10-01T08:45:06Z</time>
      </trkpt>
      <trkpt lat="44.72669" lon="5.63982">
        <ele>1648.32</ele>
        <time>2020-10-01T08:45:22Z</time>
      </trkpt>
      <trkpt lat="44.72677" lon="5.63983">
        <ele>1649.76</ele>
        <time>2020-10-01T08:45:37Z</time>
      </trkpt>
      <trkpt lat="44.72686" lon="5.63986">
        <ele>1652.16</ele>
        <time>2020-10-01T08:45:54Z</time>
      </trkpt>
      <trkpt lat="44.72697" lon="5.63988">
        <ele>1653.12</ele>
        <time>2020-10-01T08:46:10Z</time>
      </trkpt>
      <trkpt lat="44.72709" lon="5.63991">
        <ele>1653.12</ele>
        <time>2020-10-01T08:46:28Z</time>
      </trkpt>
      <trkpt lat="44.7272" lon="5.63985">
        <ele>1652.16</ele>
        <time>2020-10-01T08:46:49Z</time>
      </trkpt>
      <trkpt lat="44.7272" lon="5.63984">
        <ele>1652.16</ele>
        <time>2020-10-01T08:46:50Z</time>
      </trkpt>
      <trkpt lat="44.72722" lon="5.63981">
        <ele>1652.16</ele>
        <time>2020-10-01T08:46:52Z</time>
      </trkpt>
      <trkpt lat="44.72728" lon="5.6397">
        <ele>1653.12</ele>
        <time>2020-10-01T08:47:05Z</time>
      </trkpt>
      <trkpt lat="44.72729" lon="5.63969">
        <ele>1653.12</ele>
        <time>2020-10-01T08:47:06Z</time>
      </trkpt>
      <trkpt lat="44.72739" lon="5.63961">
        <ele>1654.57</ele>
        <time>2020-10-01T08:47:20Z</time>
      </trkpt>
      <trkpt lat="44.7274" lon="5.6396">
        <ele>1654.57</ele>
        <time>2020-10-01T08:47:21Z</time>
      </trkpt>
      <trkpt lat="44.72741" lon="5.63959">
        <ele>1654.57</ele>
        <time>2020-10-01T08:47:22Z</time>
      </trkpt>
      <trkpt lat="44.72742" lon="5.63958">
        <ele>1654.57</ele>
        <time>2020-10-01T08:47:23Z</time>
      </trkpt>
      <trkpt lat="44.72752" lon="5.63949">
        <ele>1654.57</ele>
        <time>2020-10-01T08:47:39Z</time>
      </trkpt>
      <trkpt lat="44.72755" lon="5.63946">
        <ele>1654.57</ele>
        <time>2020-10-01T08:47:44Z</time>
      </trkpt>
      <trkpt lat="44.72763" lon="5.63937">
        <ele>1653.12</ele>
        <time>2020-10-01T08:47:58Z</time>
      </trkpt>
      <trkpt lat="44.72767" lon="5.63934">
        <ele>1652.16</ele>
        <time>2020-10-01T08:48:04Z</time>
      </trkpt>
      <trkpt lat="44.7277" lon="5.63933">
        <ele>1652.16</ele>
        <time>2020-10-01T08:48:06Z</time>
      </trkpt>
      <trkpt lat="44.72771" lon="5.63933">
        <ele>1652.16</ele>
        <time>2020-10-01T08:48:07Z</time>
      </trkpt>
      <trkpt lat="44.72787" lon="5.63929">
        <ele>1651.68</ele>
        <time>2020-10-01T08:48:24Z</time>
      </trkpt>
      <trkpt lat="44.72793" lon="5.63928">
        <ele>1652.16</ele>
        <time>2020-10-01T08:48:31Z</time>
      </trkpt>
      <trkpt lat="44.72794" lon="5.63928">
        <ele>1652.64</ele>
        <time>2020-10-01T08:48:32Z</time>
      </trkpt>
      <trkpt lat="44.72808" lon="5.63927">
        <ele>1654.09</ele>
        <time>2020-10-01T08:48:47Z</time>
      </trkpt>
      <trkpt lat="44.7282" lon="5.63925">
        <ele>1655.05</ele>
        <time>2020-10-01T08:49:01Z</time>
      </trkpt>
      <trkpt lat="44.72829" lon="5.63927">
        <ele>1656.49</ele>
        <time>2020-10-01T08:49:16Z</time>
      </trkpt>
      <trkpt lat="44.72838" lon="5.63932">
        <ele>1658.41</ele>
        <time>2020-10-01T08:49:30Z</time>
      </trkpt>
      <trkpt lat="44.72848" lon="5.63939">
        <ele>1657.45</ele>
        <time>2020-10-01T08:49:48Z</time>
      </trkpt>
      <trkpt lat="44.72857" lon="5.63947">
        <ele>1656.97</ele>
        <time>2020-10-01T08:50:08Z</time>
      </trkpt>
      <trkpt lat="44.72869" lon="5.63953">
        <ele>1657.93</ele>
        <time>2020-10-01T08:50:24Z</time>
      </trkpt>
      <trkpt lat="44.72876" lon="5.63952">
        <ele>1658.41</ele>
        <time>2020-10-01T08:50:41Z</time>
      </trkpt>
      <trkpt lat="44.72882" lon="5.63949">
        <ele>1657.93</ele>
        <time>2020-10-01T08:50:51Z</time>
      </trkpt>
      <trkpt lat="44.7289" lon="5.63938">
        <ele>1659.37</ele>
        <time>2020-10-01T08:51:07Z</time>
      </trkpt>
      <trkpt lat="44.72898" lon="5.63934">
        <ele>1661.78</ele>
        <time>2020-10-01T08:51:23Z</time>
      </trkpt>
      <trkpt lat="44.72903" lon="5.63936">
        <ele>1662.26</ele>
        <time>2020-10-01T08:51:29Z</time>
      </trkpt>
      <trkpt lat="44.72904" lon="5.63936">
        <ele>1662.26</ele>
        <time>2020-10-01T08:51:30Z</time>
      </trkpt>
      <trkpt lat="44.72916" lon="5.63938">
        <ele>1661.78</ele>
        <time>2020-10-01T08:51:46Z</time>
      </trkpt>
      <trkpt lat="44.72919" lon="5.63934">
        <ele>1660.81</ele>
        <time>2020-10-01T08:51:55Z</time>
      </trkpt>
      <trkpt lat="44.72926" lon="5.63934">
        <ele>1660.81</ele>
        <time>2020-10-01T08:52:09Z</time>
      </trkpt>
      <trkpt lat="44.72936" lon="5.63927">
        <ele>1661.3</ele>
        <time>2020-10-01T08:52:23Z</time>
      </trkpt>
      <trkpt lat="44.72943" lon="5.63918">
        <ele>1661.78</ele>
        <time>2020-10-01T08:52:36Z</time>
      </trkpt>
      <trkpt lat="44.72953" lon="5.63912">
        <ele>1662.26</ele>
        <time>2020-10-01T08:52:49Z</time>
      </trkpt>
      <trkpt lat="44.72957" lon="5.63911">
        <ele>1662.26</ele>
        <time>2020-10-01T08:52:53Z</time>
      </trkpt>
      <trkpt lat="44.72963" lon="5.63907">
        <ele>1662.26</ele>
        <time>2020-10-01T08:53:02Z</time>
      </trkpt>
      <trkpt lat="44.72972" lon="5.6391">
        <ele>1663.22</ele>
        <time>2020-10-01T08:53:15Z</time>
      </trkpt>
      <trkpt lat="44.72982" lon="5.63912">
        <ele>1665.14</ele>
        <time>2020-10-01T08:53:29Z</time>
      </trkpt>
      <trkpt lat="44.72993" lon="5.63914">
        <ele>1666.1</ele>
        <time>2020-10-01T08:53:44Z</time>
      </trkpt>
      <trkpt lat="44.73004" lon="5.63913">
        <ele>1667.54</ele>
        <time>2020-10-01T08:53:59Z</time>
      </trkpt>
      <trkpt lat="44.73011" lon="5.63917">
        <ele>1668.99</ele>
        <time>2020-10-01T08:54:12Z</time>
      </trkpt>
      <trkpt lat="44.73023" lon="5.6392">
        <ele>1670.91</ele>
        <time>2020-10-01T08:54:33Z</time>
      </trkpt>
      <trkpt lat="44.73032" lon="5.63922">
        <ele>1669.95</ele>
        <time>2020-10-01T08:54:47Z</time>
      </trkpt>
      <trkpt lat="44.73034" lon="5.63919">
        <ele>1669.95</ele>
        <time>2020-10-01T08:54:52Z</time>
      </trkpt>
      <trkpt lat="44.73035" lon="5.63918">
        <ele>1669.95</ele>
        <time>2020-10-01T08:54:53Z</time>
      </trkpt>
      <trkpt lat="44.73045" lon="5.63916">
        <ele>1670.91</ele>
        <time>2020-10-01T08:55:07Z</time>
      </trkpt>
      <trkpt lat="44.73056" lon="5.63917">
        <ele>1673.31</ele>
        <time>2020-10-01T08:55:23Z</time>
      </trkpt>
      <trkpt lat="44.73065" lon="5.63917">
        <ele>1674.27</ele>
        <time>2020-10-01T08:55:37Z</time>
      </trkpt>
      <trkpt lat="44.73075" lon="5.63916">
        <ele>1676.68</ele>
        <time>2020-10-01T08:55:57Z</time>
      </trkpt>
      <trkpt lat="44.73082" lon="5.63909">
        <ele>1679.56</ele>
        <time>2020-10-01T08:56:14Z</time>
      </trkpt>
      <trkpt lat="44.73093" lon="5.63908">
        <ele>1681</ele>
        <time>2020-10-01T08:56:27Z</time>
      </trkpt>
      <trkpt lat="44.73094" lon="5.63908">
        <ele>1681.48</ele>
        <time>2020-10-01T08:56:28Z</time>
      </trkpt>
      <trkpt lat="44.73104" lon="5.63902">
        <ele>1681.96</ele>
        <time>2020-10-01T08:56:41Z</time>
      </trkpt>
      <trkpt lat="44.73114" lon="5.639">
        <ele>1682.44</ele>
        <time>2020-10-01T08:56:56Z</time>
      </trkpt>
      <trkpt lat="44.73124" lon="5.63901">
        <ele>1684.85</ele>
        <time>2020-10-01T08:57:15Z</time>
      </trkpt>
      <trkpt lat="44.73131" lon="5.63901">
        <ele>1686.29</ele>
        <time>2020-10-01T08:57:23Z</time>
      </trkpt>
      <trkpt lat="44.73134" lon="5.639">
        <ele>1686.77</ele>
        <time>2020-10-01T08:57:26Z</time>
      </trkpt>
      <trkpt lat="44.73135" lon="5.63899">
        <ele>1686.77</ele>
        <time>2020-10-01T08:57:27Z</time>
      </trkpt>
      <trkpt lat="44.73144" lon="5.63892">
        <ele>1689.65</ele>
        <time>2020-10-01T08:57:41Z</time>
      </trkpt>
      <trkpt lat="44.73149" lon="5.63884">
        <ele>1690.62</ele>
        <time>2020-10-01T08:57:49Z</time>
      </trkpt>
      <trkpt lat="44.7315" lon="5.63883">
        <ele>1690.62</ele>
        <time>2020-10-01T08:57:50Z</time>
      </trkpt>
      <trkpt lat="44.7316" lon="5.63873">
        <ele>1692.54</ele>
        <time>2020-10-01T08:58:02Z</time>
      </trkpt>
      <trkpt lat="44.73161" lon="5.63872">
        <ele>1693.02</ele>
        <time>2020-10-01T08:58:03Z</time>
      </trkpt>
      <trkpt lat="44.73178" lon="5.63867">
        <ele>1693.98</ele>
        <time>2020-10-01T08:58:19Z</time>
      </trkpt>
      <trkpt lat="44.73198" lon="5.63856">
        <ele>1695.42</ele>
        <time>2020-10-01T08:58:39Z</time>
      </trkpt>
      <trkpt lat="44.73211" lon="5.63848">
        <ele>1697.83</ele>
        <time>2020-10-01T08:58:54Z</time>
      </trkpt>
      <trkpt lat="44.73226" lon="5.6385">
        <ele>1698.31</ele>
        <time>2020-10-01T08:59:08Z</time>
      </trkpt>
      <trkpt lat="44.73235" lon="5.63854">
        <ele>1700.23</ele>
        <time>2020-10-01T08:59:22Z</time>
      </trkpt>
      <trkpt lat="44.73243" lon="5.63859">
        <ele>1703.59</ele>
        <time>2020-10-01T08:59:35Z</time>
      </trkpt>
      <trkpt lat="44.73253" lon="5.63858">
        <ele>1706</ele>
        <time>2020-10-01T08:59:48Z</time>
      </trkpt>
      <trkpt lat="44.73261" lon="5.63854">
        <ele>1708.4</ele>
        <time>2020-10-01T09:00:03Z</time>
      </trkpt>
      <trkpt lat="44.73268" lon="5.6385">
        <ele>1711.76</ele>
        <time>2020-10-01T09:00:18Z</time>
      </trkpt>
      <trkpt lat="44.73274" lon="5.63856">
        <ele>1714.65</ele>
        <time>2020-10-01T09:00:31Z</time>
      </trkpt>
      <trkpt lat="44.73276" lon="5.63864">
        <ele>1718.01</ele>
        <time>2020-10-01T09:00:44Z</time>
      </trkpt>
      <trkpt lat="44.73281" lon="5.63868">
        <ele>1720.9</ele>
        <time>2020-10-01T09:00:57Z</time>
      </trkpt>
      <trkpt lat="44.73288" lon="5.6386">
        <ele>1724.26</ele>
        <time>2020-10-01T09:01:12Z</time>
      </trkpt>
      <trkpt lat="44.73293" lon="5.63869">
        <ele>1726.67</ele>
        <time>2020-10-01T09:01:28Z</time>
      </trkpt>
      <trkpt lat="44.73295" lon="5.63881">
        <ele>1729.07</ele>
        <time>2020-10-01T09:01:44Z</time>
      </trkpt>
      <trkpt lat="44.73299" lon="5.6388">
        <ele>1732.43</ele>
        <time>2020-10-01T09:01:56Z</time>
      </trkpt>
      <trkpt lat="44.73302" lon="5.63882">
        <ele>1733.88</ele>
        <time>2020-10-01T09:02:10Z</time>
      </trkpt>
      <trkpt lat="44.73301" lon="5.63894">
        <ele>1736.76</ele>
        <time>2020-10-01T09:02:27Z</time>
      </trkpt>
      <trkpt lat="44.73299" lon="5.63906">
        <ele>1739.64</ele>
        <time>2020-10-01T09:02:44Z</time>
      </trkpt>
      <trkpt lat="44.73299" lon="5.63916">
        <ele>1743.01</ele>
        <time>2020-10-01T09:02:58Z</time>
      </trkpt>
      <trkpt lat="44.73297" lon="5.63925">
        <ele>1744.45</ele>
        <time>2020-10-01T09:03:12Z</time>
      </trkpt>
      <trkpt lat="44.73296" lon="5.63921">
        <ele>1745.89</ele>
        <time>2020-10-01T09:03:26Z</time>
      </trkpt>
      <trkpt lat="44.73299" lon="5.63912">
        <ele>1745.89</ele>
        <time>2020-10-01T09:03:45Z</time>
      </trkpt>
      <trkpt lat="44.733" lon="5.63914">
        <ele>1743.97</ele>
        <time>2020-10-01T09:04:01Z</time>
      </trkpt>
      <trkpt lat="44.73299" lon="5.63919">
        <ele>1745.41</ele>
        <time>2020-10-01T09:04:18Z</time>
      </trkpt>
      <trkpt lat="44.73298" lon="5.6393">
        <ele>1744.93</ele>
        <time>2020-10-01T09:04:33Z</time>
      </trkpt>
      <trkpt lat="44.73299" lon="5.63935">
        <ele>1744.93</ele>
        <time>2020-10-01T09:04:48Z</time>
      </trkpt>
      <trkpt lat="44.73301" lon="5.63948">
        <ele>1745.41</ele>
        <time>2020-10-01T09:05:04Z</time>
      </trkpt>
      <trkpt lat="44.73303" lon="5.63957">
        <ele>1746.37</ele>
        <time>2020-10-01T09:05:17Z</time>
      </trkpt>
      <trkpt lat="44.73305" lon="5.63965">
        <ele>1747.81</ele>
        <time>2020-10-01T09:05:30Z</time>
      </trkpt>
      <trkpt lat="44.7331" lon="5.63977">
        <ele>1751.66</ele>
        <time>2020-10-01T09:05:47Z</time>
      </trkpt>
      <trkpt lat="44.73313" lon="5.63984">
        <ele>1753.58</ele>
        <time>2020-10-01T09:06:07Z</time>
      </trkpt>
      <trkpt lat="44.73315" lon="5.63986">
        <ele>1755.02</ele>
        <time>2020-10-01T09:06:27Z</time>
      </trkpt>
      <trkpt lat="44.7332" lon="5.63993">
        <ele>1755.5</ele>
        <time>2020-10-01T09:06:50Z</time>
      </trkpt>
      <trkpt lat="44.73322" lon="5.63998">
        <ele>1757.43</ele>
        <time>2020-10-01T09:07:07Z</time>
      </trkpt>
      <trkpt lat="44.73326" lon="5.64008">
        <ele>1758.39</ele>
        <time>2020-10-01T09:07:27Z</time>
      </trkpt>
      <trkpt lat="44.73331" lon="5.6402">
        <ele>1759.35</ele>
        <time>2020-10-01T09:07:42Z</time>
      </trkpt>
      <trkpt lat="44.73331" lon="5.6402">
        <ele>1758.87</ele>
        <time>2020-10-01T09:08:05Z</time>
      </trkpt>
      <trkpt lat="44.73331" lon="5.6402">
        <ele>1760.31</ele>
        <time>2020-10-01T09:08:22Z</time>
      </trkpt>
      <trkpt lat="44.73331" lon="5.6402">
        <ele>1758.87</ele>
        <time>2020-10-01T09:08:42Z</time>
      </trkpt>
      <trkpt lat="44.73328" lon="5.64019">
        <ele>1755.5</ele>
        <time>2020-10-01T09:09:10Z</time>
      </trkpt>
      <trkpt lat="44.73328" lon="5.64019">
        <ele>1755.02</ele>
        <time>2020-10-01T09:09:12Z</time>
      </trkpt>
      <trkpt lat="44.73327" lon="5.64018">
        <ele>1757.91</ele>
        <time>2020-10-01T09:09:37Z</time>
      </trkpt>
      <trkpt lat="44.73331" lon="5.64026">
        <ele>1757.43</ele>
        <time>2020-10-01T09:10:08Z</time>
      </trkpt>
      <trkpt lat="44.73336" lon="5.64037">
        <ele>1760.31</ele>
        <time>2020-10-01T09:10:25Z</time>
      </trkpt>
      <trkpt lat="44.7334" lon="5.64045">
        <ele>1763.68</ele>
        <time>2020-10-01T09:10:39Z</time>
      </trkpt>
      <trkpt lat="44.73345" lon="5.64056">
        <ele>1765.6</ele>
        <time>2020-10-01T09:10:53Z</time>
      </trkpt>
      <trkpt lat="44.73348" lon="5.64061">
        <ele>1767.52</ele>
        <time>2020-10-01T09:11:09Z</time>
      </trkpt>
      <trkpt lat="44.73349" lon="5.64066">
        <ele>1768.48</ele>
        <time>2020-10-01T09:11:23Z</time>
      </trkpt>
      <trkpt lat="44.73355" lon="5.64075">
        <ele>1769.92</ele>
        <time>2020-10-01T09:11:36Z</time>
      </trkpt>
      <trkpt lat="44.73357" lon="5.64086">
        <ele>1772.33</ele>
        <time>2020-10-01T09:11:50Z</time>
      </trkpt>
      <trkpt lat="44.73359" lon="5.64097">
        <ele>1775.21</ele>
        <time>2020-10-01T09:12:06Z</time>
      </trkpt>
      <trkpt lat="44.73361" lon="5.64106">
        <ele>1776.65</ele>
        <time>2020-10-01T09:12:20Z</time>
      </trkpt>
      <trkpt lat="44.73365" lon="5.64116">
        <ele>1778.1</ele>
        <time>2020-10-01T09:12:34Z</time>
      </trkpt>
      <trkpt lat="44.73373" lon="5.64131">
        <ele>1780.98</ele>
        <time>2020-10-01T09:12:51Z</time>
      </trkpt>
      <trkpt lat="44.73379" lon="5.64144">
        <ele>1782.42</ele>
        <time>2020-10-01T09:13:06Z</time>
      </trkpt>
      <trkpt lat="44.73384" lon="5.64154">
        <ele>1782.42</ele>
        <time>2020-10-01T09:13:21Z</time>
      </trkpt>
      <trkpt lat="44.73386" lon="5.64162">
        <ele>1785.31</ele>
        <time>2020-10-01T09:13:37Z</time>
      </trkpt>
      <trkpt lat="44.73387" lon="5.64167">
        <ele>1787.23</ele>
        <time>2020-10-01T09:13:48Z</time>
      </trkpt>
      <trkpt lat="44.73385" lon="5.64172">
        <ele>1789.15</ele>
        <time>2020-10-01T09:14:02Z</time>
      </trkpt>
      <trkpt lat="44.73387" lon="5.64178">
        <ele>1790.59</ele>
        <time>2020-10-01T09:14:17Z</time>
      </trkpt>
      <trkpt lat="44.73388" lon="5.6419">
        <ele>1792.52</ele>
        <time>2020-10-01T09:14:33Z</time>
      </trkpt>
      <trkpt lat="44.73388" lon="5.64196">
        <ele>1793</ele>
        <time>2020-10-01T09:14:37Z</time>
      </trkpt>
      <trkpt lat="44.73388" lon="5.64205">
        <ele>1794.44</ele>
        <time>2020-10-01T09:14:53Z</time>
      </trkpt>
      <trkpt lat="44.73394" lon="5.64219">
        <ele>1796.36</ele>
        <time>2020-10-01T09:15:10Z</time>
      </trkpt>
      <trkpt lat="44.73399" lon="5.64222">
        <ele>1797.8</ele>
        <time>2020-10-01T09:15:27Z</time>
      </trkpt>
      <trkpt lat="44.73403" lon="5.64228">
        <ele>1798.28</ele>
        <time>2020-10-01T09:15:36Z</time>
      </trkpt>
      <trkpt lat="44.73406" lon="5.64238">
        <ele>1799.73</ele>
        <time>2020-10-01T09:15:50Z</time>
      </trkpt>
      <trkpt lat="44.73406" lon="5.64248">
        <ele>1802.61</ele>
        <time>2020-10-01T09:16:08Z</time>
      </trkpt>
      <trkpt lat="44.73406" lon="5.64256">
        <ele>1805.01</ele>
        <time>2020-10-01T09:16:23Z</time>
      </trkpt>
      <trkpt lat="44.73401" lon="5.64264">
        <ele>1807.9</ele>
        <time>2020-10-01T09:16:39Z</time>
      </trkpt>
      <trkpt lat="44.73398" lon="5.64266">
        <ele>1809.82</ele>
        <time>2020-10-01T09:16:53Z</time>
      </trkpt>
      <trkpt lat="44.73396" lon="5.64263">
        <ele>1811.26</ele>
        <time>2020-10-01T09:17:05Z</time>
      </trkpt>
      <trkpt lat="44.73393" lon="5.64263">
        <ele>1813.18</ele>
        <time>2020-10-01T09:17:20Z</time>
      </trkpt>
      <trkpt lat="44.7339" lon="5.64264">
        <ele>1815.59</ele>
        <time>2020-10-01T09:17:34Z</time>
      </trkpt>
      <trkpt lat="44.73386" lon="5.64266">
        <ele>1817.99</ele>
        <time>2020-10-01T09:17:50Z</time>
      </trkpt>
      <trkpt lat="44.73383" lon="5.64262">
        <ele>1821.35</ele>
        <time>2020-10-01T09:18:05Z</time>
      </trkpt>
      <trkpt lat="44.73378" lon="5.64266">
        <ele>1823.76</ele>
        <time>2020-10-01T09:18:21Z</time>
      </trkpt>
      <trkpt lat="44.73374" lon="5.64262">
        <ele>1825.68</ele>
        <time>2020-10-01T09:18:35Z</time>
      </trkpt>
      <trkpt lat="44.73371" lon="5.64267">
        <ele>1829.05</ele>
        <time>2020-10-01T09:18:51Z</time>
      </trkpt>
      <trkpt lat="44.73366" lon="5.64269">
        <ele>1832.41</ele>
        <time>2020-10-01T09:19:04Z</time>
      </trkpt>
      <trkpt lat="44.73362" lon="5.64273">
        <ele>1833.37</ele>
        <time>2020-10-01T09:19:17Z</time>
      </trkpt>
      <trkpt lat="44.7336" lon="5.64272">
        <ele>1835.77</ele>
        <time>2020-10-01T09:19:32Z</time>
      </trkpt>
      <trkpt lat="44.73356" lon="5.64275">
        <ele>1837.7</ele>
        <time>2020-10-01T09:19:49Z</time>
      </trkpt>
      <trkpt lat="44.73353" lon="5.6428">
        <ele>1839.62</ele>
        <time>2020-10-01T09:20:08Z</time>
      </trkpt>
      <trkpt lat="44.7335" lon="5.64281">
        <ele>1840.1</ele>
        <time>2020-10-01T09:20:21Z</time>
      </trkpt>
      <trkpt lat="44.73347" lon="5.64284">
        <ele>1842.02</ele>
        <time>2020-10-01T09:20:35Z</time>
      </trkpt>
      <trkpt lat="44.73347" lon="5.64281">
        <ele>1842.98</ele>
        <time>2020-10-01T09:20:50Z</time>
      </trkpt>
      <trkpt lat="44.73341" lon="5.64289">
        <ele>1845.87</ele>
        <time>2020-10-01T09:21:12Z</time>
      </trkpt>
      <trkpt lat="44.73337" lon="5.64288">
        <ele>1849.23</ele>
        <time>2020-10-01T09:21:31Z</time>
      </trkpt>
      <trkpt lat="44.73335" lon="5.64285">
        <ele>1851.64</ele>
        <time>2020-10-01T09:21:47Z</time>
      </trkpt>
      <trkpt lat="44.73332" lon="5.64288">
        <ele>1854.04</ele>
        <time>2020-10-01T09:22:05Z</time>
      </trkpt>
      <trkpt lat="44.73329" lon="5.64287">
        <ele>1856.92</ele>
        <time>2020-10-01T09:22:20Z</time>
      </trkpt>
      <trkpt lat="44.73327" lon="5.64288">
        <ele>1859.81</ele>
        <time>2020-10-01T09:22:35Z</time>
      </trkpt>
      <trkpt lat="44.73324" lon="5.64289">
        <ele>1861.25</ele>
        <time>2020-10-01T09:22:48Z</time>
      </trkpt>
      <trkpt lat="44.7332" lon="5.64295">
        <ele>1863.17</ele>
        <time>2020-10-01T09:23:06Z</time>
      </trkpt>
      <trkpt lat="44.73316" lon="5.64296">
        <ele>1866.54</ele>
        <time>2020-10-01T09:23:23Z</time>
      </trkpt>
      <trkpt lat="44.73312" lon="5.64293">
        <ele>1868.46</ele>
        <time>2020-10-01T09:23:40Z</time>
      </trkpt>
      <trkpt lat="44.73308" lon="5.64297">
        <ele>1870.38</ele>
        <time>2020-10-01T09:23:56Z</time>
      </trkpt>
      <trkpt lat="44.73306" lon="5.64294">
        <ele>1872.79</ele>
        <time>2020-10-01T09:24:10Z</time>
      </trkpt>
      <trkpt lat="44.73302" lon="5.64296">
        <ele>1874.71</ele>
        <time>2020-10-01T09:24:25Z</time>
      </trkpt>
      <trkpt lat="44.73298" lon="5.64297">
        <ele>1877.59</ele>
        <time>2020-10-01T09:24:44Z</time>
      </trkpt>
      <trkpt lat="44.73295" lon="5.64295">
        <ele>1880.48</ele>
        <time>2020-10-01T09:25:01Z</time>
      </trkpt>
      <trkpt lat="44.73292" lon="5.64295">
        <ele>1882.88</ele>
        <time>2020-10-01T09:25:15Z</time>
      </trkpt>
      <trkpt lat="44.73287" lon="5.643">
        <ele>1884.8</ele>
        <time>2020-10-01T09:25:30Z</time>
      </trkpt>
      <trkpt lat="44.73284" lon="5.64297">
        <ele>1887.21</ele>
        <time>2020-10-01T09:25:46Z</time>
      </trkpt>
      <trkpt lat="44.73281" lon="5.6429">
        <ele>1890.57</ele>
        <time>2020-10-01T09:26:04Z</time>
      </trkpt>
      <trkpt lat="44.73278" lon="5.64293">
        <ele>1892.97</ele>
        <time>2020-10-01T09:26:20Z</time>
      </trkpt>
      <trkpt lat="44.73275" lon="5.64294">
        <ele>1894.42</ele>
        <time>2020-10-01T09:26:33Z</time>
      </trkpt>
      <trkpt lat="44.73273" lon="5.64294">
        <ele>1897.78</ele>
        <time>2020-10-01T09:26:46Z</time>
      </trkpt>
      <trkpt lat="44.73268" lon="5.64293">
        <ele>1900.66</ele>
        <time>2020-10-01T09:27:01Z</time>
      </trkpt>
      <trkpt lat="44.73265" lon="5.64294">
        <ele>1902.59</ele>
        <time>2020-10-01T09:27:15Z</time>
      </trkpt>
      <trkpt lat="44.73263" lon="5.64295">
        <ele>1904.03</ele>
        <time>2020-10-01T09:27:28Z</time>
      </trkpt>
      <trkpt lat="44.7326" lon="5.64296">
        <ele>1907.39</ele>
        <time>2020-10-01T09:27:43Z</time>
      </trkpt>
      <trkpt lat="44.73255" lon="5.64294">
        <ele>1908.83</ele>
        <time>2020-10-01T09:27:58Z</time>
      </trkpt>
      <trkpt lat="44.73254" lon="5.64292">
        <ele>1909.8</ele>
        <time>2020-10-01T09:28:13Z</time>
      </trkpt>
      <trkpt lat="44.73253" lon="5.64295">
        <ele>1910.76</ele>
        <time>2020-10-01T09:28:25Z</time>
      </trkpt>
      <trkpt lat="44.73249" lon="5.64299">
        <ele>1912.2</ele>
        <time>2020-10-01T09:28:39Z</time>
      </trkpt>
      <trkpt lat="44.73246" lon="5.643">
        <ele>1914.6</ele>
        <time>2020-10-01T09:28:55Z</time>
      </trkpt>
      <trkpt lat="44.73243" lon="5.64302">
        <ele>1917.01</ele>
        <time>2020-10-01T09:29:12Z</time>
      </trkpt>
      <trkpt lat="44.73241" lon="5.643">
        <ele>1918.45</ele>
        <time>2020-10-01T09:29:25Z</time>
      </trkpt>
      <trkpt lat="44.73238" lon="5.64304">
        <ele>1921.33</ele>
        <time>2020-10-01T09:29:39Z</time>
      </trkpt>
      <trkpt lat="44.73235" lon="5.64305">
        <ele>1923.25</ele>
        <time>2020-10-01T09:29:56Z</time>
      </trkpt>
      <trkpt lat="44.73232" lon="5.64307">
        <ele>1925.18</ele>
        <time>2020-10-01T09:30:13Z</time>
      </trkpt>
      <trkpt lat="44.7323" lon="5.64309">
        <ele>1927.58</ele>
        <time>2020-10-01T09:30:28Z</time>
      </trkpt>
      <trkpt lat="44.73228" lon="5.6431">
        <ele>1929.5</ele>
        <time>2020-10-01T09:30:42Z</time>
      </trkpt>
      <trkpt lat="44.73225" lon="5.6431">
        <ele>1930.95</ele>
        <time>2020-10-01T09:30:57Z</time>
      </trkpt>
      <trkpt lat="44.73223" lon="5.6431">
        <ele>1932.39</ele>
        <time>2020-10-01T09:31:11Z</time>
      </trkpt>
      <trkpt lat="44.7322" lon="5.6431">
        <ele>1935.27</ele>
        <time>2020-10-01T09:31:26Z</time>
      </trkpt>
      <trkpt lat="44.73217" lon="5.64311">
        <ele>1938.64</ele>
        <time>2020-10-01T09:31:42Z</time>
      </trkpt>
      <trkpt lat="44.73214" lon="5.64316">
        <ele>1939.6</ele>
        <time>2020-10-01T09:31:57Z</time>
      </trkpt>
      <trkpt lat="44.73212" lon="5.64318">
        <ele>1942</ele>
        <time>2020-10-01T09:32:14Z</time>
      </trkpt>
      <trkpt lat="44.73208" lon="5.64322">
        <ele>1944.4</ele>
        <time>2020-10-01T09:32:32Z</time>
      </trkpt>
      <trkpt lat="44.73205" lon="5.64323">
        <ele>1946.33</ele>
        <time>2020-10-01T09:32:45Z</time>
      </trkpt>
      <trkpt lat="44.73205" lon="5.64319">
        <ele>1947.77</ele>
        <time>2020-10-01T09:33:00Z</time>
      </trkpt>
      <trkpt lat="44.73201" lon="5.64322">
        <ele>1949.69</ele>
        <time>2020-10-01T09:33:18Z</time>
      </trkpt>
      <trkpt lat="44.73198" lon="5.64325">
        <ele>1952.09</ele>
        <time>2020-10-01T09:33:33Z</time>
      </trkpt>
      <trkpt lat="44.73197" lon="5.64321">
        <ele>1953.06</ele>
        <time>2020-10-01T09:33:45Z</time>
      </trkpt>
      <trkpt lat="44.73195" lon="5.64322">
        <ele>1954.5</ele>
        <time>2020-10-01T09:34:02Z</time>
      </trkpt>
      <trkpt lat="44.7319" lon="5.64331">
        <ele>1957.38</ele>
        <time>2020-10-01T09:34:17Z</time>
      </trkpt>
      <trkpt lat="44.73186" lon="5.64342">
        <ele>1959.3</ele>
        <time>2020-10-01T09:34:31Z</time>
      </trkpt>
      <trkpt lat="44.73181" lon="5.64354">
        <ele>1961.23</ele>
        <time>2020-10-01T09:34:47Z</time>
      </trkpt>
      <trkpt lat="44.73178" lon="5.64366">
        <ele>1962.67</ele>
        <time>2020-10-01T09:35:01Z</time>
      </trkpt>
      <trkpt lat="44.7318" lon="5.64374">
        <ele>1963.15</ele>
        <time>2020-10-01T09:35:13Z</time>
      </trkpt>
      <trkpt lat="44.73176" lon="5.6438">
        <ele>1966.03</ele>
        <time>2020-10-01T09:35:28Z</time>
      </trkpt>
      <trkpt lat="44.73173" lon="5.64385">
        <ele>1968.92</ele>
        <time>2020-10-01T09:35:40Z</time>
      </trkpt>
      <trkpt lat="44.73172" lon="5.64393">
        <ele>1971.8</ele>
        <time>2020-10-01T09:35:54Z</time>
      </trkpt>
      <trkpt lat="44.73174" lon="5.64398">
        <ele>1971.8</ele>
        <time>2020-10-01T09:36:11Z</time>
      </trkpt>
      <trkpt lat="44.73167" lon="5.64404">
        <ele>1972.76</ele>
        <time>2020-10-01T09:36:22Z</time>
      </trkpt>
      <trkpt lat="44.73146" lon="5.64413">
        <ele>1969.4</ele>
        <time>2020-10-01T09:36:40Z</time>
      </trkpt>
      <trkpt lat="44.73142" lon="5.64415">
        <ele>1968.92</ele>
        <time>2020-10-01T09:36:43Z</time>
      </trkpt>
      <trkpt lat="44.73141" lon="5.64415">
        <ele>1968.44</ele>
        <time>2020-10-01T09:36:44Z</time>
      </trkpt>
      <trkpt lat="44.7314" lon="5.64416">
        <ele>1968.44</ele>
        <time>2020-10-01T09:36:45Z</time>
      </trkpt>
      <trkpt lat="44.73139" lon="5.64417">
        <ele>1968.44</ele>
        <time>2020-10-01T09:36:46Z</time>
      </trkpt>
      <trkpt lat="44.73138" lon="5.64417">
        <ele>1968.44</ele>
        <time>2020-10-01T09:36:47Z</time>
      </trkpt>
      <trkpt lat="44.73124" lon="5.64426">
        <ele>1965.07</ele>
        <time>2020-10-01T09:37:02Z</time>
      </trkpt>
      <trkpt lat="44.73118" lon="5.64432">
        <ele>1962.67</ele>
        <time>2020-10-01T09:37:09Z</time>
      </trkpt>
      <trkpt lat="44.73117" lon="5.64433">
        <ele>1962.19</ele>
        <time>2020-10-01T09:37:10Z</time>
      </trkpt>
      <trkpt lat="44.73107" lon="5.64439">
        <ele>1959.3</ele>
        <time>2020-10-01T09:37:20Z</time>
      </trkpt>
      <trkpt lat="44.73091" lon="5.64452">
        <ele>1956.42</ele>
        <time>2020-10-01T09:37:35Z</time>
      </trkpt>
      <trkpt lat="44.73078" lon="5.64457">
        <ele>1954.5</ele>
        <time>2020-10-01T09:37:48Z</time>
      </trkpt>
      <trkpt lat="44.73062" lon="5.6446">
        <ele>1955.94</ele>
        <time>2020-10-01T09:38:04Z</time>
      </trkpt>
      <trkpt lat="44.73045" lon="5.64467">
        <ele>1958.34</ele>
        <time>2020-10-01T09:38:21Z</time>
      </trkpt>
      <trkpt lat="44.73031" lon="5.64467">
        <ele>1960.27</ele>
        <time>2020-10-01T09:38:35Z</time>
      </trkpt>
      <trkpt lat="44.73027" lon="5.64469">
        <ele>1960.75</ele>
        <time>2020-10-01T09:38:39Z</time>
      </trkpt>
      <trkpt lat="44.73027" lon="5.6447">
        <ele>1961.23</ele>
        <time>2020-10-01T09:38:40Z</time>
      </trkpt>
      <trkpt lat="44.73026" lon="5.64471">
        <ele>1961.23</ele>
        <time>2020-10-01T09:38:41Z</time>
      </trkpt>
      <trkpt lat="44.73015" lon="5.64477">
        <ele>1961.71</ele>
        <time>2020-10-01T09:38:52Z</time>
      </trkpt>
      <trkpt lat="44.73014" lon="5.64478">
        <ele>1961.71</ele>
        <time>2020-10-01T09:38:53Z</time>
      </trkpt>
      <trkpt lat="44.73006" lon="5.64484">
        <ele>1963.15</ele>
        <time>2020-10-01T09:39:02Z</time>
      </trkpt>
      <trkpt lat="44.73005" lon="5.64484">
        <ele>1963.15</ele>
        <time>2020-10-01T09:39:03Z</time>
      </trkpt>
      <trkpt lat="44.73004" lon="5.64484">
        <ele>1963.63</ele>
        <time>2020-10-01T09:39:04Z</time>
      </trkpt>
      <trkpt lat="44.72988" lon="5.64496">
        <ele>1963.63</ele>
        <time>2020-10-01T09:39:19Z</time>
      </trkpt>
      <trkpt lat="44.72968" lon="5.64512">
        <ele>1962.19</ele>
        <time>2020-10-01T09:39:37Z</time>
      </trkpt>
      <trkpt lat="44.72951" lon="5.64516">
        <ele>1963.15</ele>
        <time>2020-10-01T09:39:53Z</time>
      </trkpt>
      <trkpt lat="44.72951" lon="5.64517">
        <ele>1963.15</ele>
        <time>2020-10-01T09:39:54Z</time>
      </trkpt>
      <trkpt lat="44.72948" lon="5.64518">
        <ele>1963.63</ele>
        <time>2020-10-01T09:39:56Z</time>
      </trkpt>
      <trkpt lat="44.72947" lon="5.64518">
        <ele>1963.63</ele>
        <time>2020-10-01T09:39:57Z</time>
      </trkpt>
      <trkpt lat="44.72946" lon="5.64519">
        <ele>1963.63</ele>
        <time>2020-10-01T09:39:58Z</time>
      </trkpt>
      <trkpt lat="44.72945" lon="5.64519">
        <ele>1963.63</ele>
        <time>2020-10-01T09:39:59Z</time>
      </trkpt>
      <trkpt lat="44.72927" lon="5.64524">
        <ele>1965.55</ele>
        <time>2020-10-01T09:40:15Z</time>
      </trkpt>
      <trkpt lat="44.72907" lon="5.6453">
        <ele>1966.99</ele>
        <time>2020-10-01T09:40:33Z</time>
      </trkpt>
      <trkpt lat="44.72888" lon="5.64534">
        <ele>1968.44</ele>
        <time>2020-10-01T09:40:50Z</time>
      </trkpt>
      <trkpt lat="44.72869" lon="5.64537">
        <ele>1969.4</ele>
        <time>2020-10-01T09:41:06Z</time>
      </trkpt>
      <trkpt lat="44.72849" lon="5.64542">
        <ele>1970.84</ele>
        <time>2020-10-01T09:41:22Z</time>
      </trkpt>
      <trkpt lat="44.72827" lon="5.64547">
        <ele>1970.84</ele>
        <time>2020-10-01T09:41:40Z</time>
      </trkpt>
      <trkpt lat="44.72808" lon="5.64552">
        <ele>1971.8</ele>
        <time>2020-10-01T09:41:57Z</time>
      </trkpt>
      <trkpt lat="44.72792" lon="5.64557">
        <ele>1974.2</ele>
        <time>2020-10-01T09:42:12Z</time>
      </trkpt>
      <trkpt lat="44.72778" lon="5.64561">
        <ele>1976.13</ele>
        <time>2020-10-01T09:42:26Z</time>
      </trkpt>
      <trkpt lat="44.72769" lon="5.64568">
        <ele>1978.05</ele>
        <time>2020-10-01T09:42:37Z</time>
      </trkpt>
      <trkpt lat="44.72765" lon="5.64572">
        <ele>1979.01</ele>
        <time>2020-10-01T09:42:43Z</time>
      </trkpt>
      <trkpt lat="44.72764" lon="5.64572">
        <ele>1979.49</ele>
        <time>2020-10-01T09:42:44Z</time>
      </trkpt>
      <trkpt lat="44.72752" lon="5.64578">
        <ele>1979.97</ele>
        <time>2020-10-01T09:43:00Z</time>
      </trkpt>
      <trkpt lat="44.72745" lon="5.64575">
        <ele>1979.97</ele>
        <time>2020-10-01T09:43:09Z</time>
      </trkpt>
      <trkpt lat="44.72729" lon="5.64574">
        <ele>1980.93</ele>
        <time>2020-10-01T09:43:24Z</time>
      </trkpt>
      <trkpt lat="44.72709" lon="5.64579">
        <ele>1980.45</ele>
        <time>2020-10-01T09:43:42Z</time>
      </trkpt>
      <trkpt lat="44.72706" lon="5.64579">
        <ele>1980.45</ele>
        <time>2020-10-01T09:43:44Z</time>
      </trkpt>
      <trkpt lat="44.72705" lon="5.6458">
        <ele>1980.45</ele>
        <time>2020-10-01T09:43:45Z</time>
      </trkpt>
      <trkpt lat="44.72704" lon="5.6458">
        <ele>1980.45</ele>
        <time>2020-10-01T09:43:46Z</time>
      </trkpt>
      <trkpt lat="44.72702" lon="5.6458">
        <ele>1980.45</ele>
        <time>2020-10-01T09:43:47Z</time>
      </trkpt>
      <trkpt lat="44.72701" lon="5.6458">
        <ele>1980.93</ele>
        <time>2020-10-01T09:43:48Z</time>
      </trkpt>
      <trkpt lat="44.72679" lon="5.64588">
        <ele>1979.49</ele>
        <time>2020-10-01T09:44:05Z</time>
      </trkpt>
      <trkpt lat="44.72663" lon="5.646">
        <ele>1980.93</ele>
        <time>2020-10-01T09:44:22Z</time>
      </trkpt>
      <trkpt lat="44.72644" lon="5.64608">
        <ele>1982.38</ele>
        <time>2020-10-01T09:44:39Z</time>
      </trkpt>
      <trkpt lat="44.72623" lon="5.64617">
        <ele>1981.9</ele>
        <time>2020-10-01T09:44:56Z</time>
      </trkpt>
      <trkpt lat="44.72622" lon="5.64618">
        <ele>1981.9</ele>
        <time>2020-10-01T09:44:57Z</time>
      </trkpt>
      <trkpt lat="44.72621" lon="5.64619">
        <ele>1981.9</ele>
        <time>2020-10-01T09:44:58Z</time>
      </trkpt>
      <trkpt lat="44.72603" lon="5.64629">
        <ele>1982.38</ele>
        <time>2020-10-01T09:45:15Z</time>
      </trkpt>
      <trkpt lat="44.72593" lon="5.64627">
        <ele>1982.86</ele>
        <time>2020-10-01T09:45:29Z</time>
      </trkpt>
      <trkpt lat="44.72582" lon="5.64629">
        <ele>1984.78</ele>
        <time>2020-10-01T09:45:44Z</time>
      </trkpt>
      <trkpt lat="44.72571" lon="5.64634">
        <ele>1987.66</ele>
        <time>2020-10-01T09:45:57Z</time>
      </trkpt>
      <trkpt lat="44.72559" lon="5.64637">
        <ele>1990.07</ele>
        <time>2020-10-01T09:46:12Z</time>
      </trkpt>
      <trkpt lat="44.72548" lon="5.64643">
        <ele>1991.99</ele>
        <time>2020-10-01T09:46:28Z</time>
      </trkpt>
      <trkpt lat="44.72538" lon="5.64645">
        <ele>1994.39</ele>
        <time>2020-10-01T09:46:42Z</time>
      </trkpt>
      <trkpt lat="44.72526" lon="5.6465">
        <ele>1996.32</ele>
        <time>2020-10-01T09:46:57Z</time>
      </trkpt>
      <trkpt lat="44.72516" lon="5.64652">
        <ele>1998.24</ele>
        <time>2020-10-01T09:47:11Z</time>
      </trkpt>
      <trkpt lat="44.72515" lon="5.64652">
        <ele>1998.24</ele>
        <time>2020-10-01T09:47:12Z</time>
      </trkpt>
      <trkpt lat="44.72505" lon="5.64655">
        <ele>2000.16</ele>
        <time>2020-10-01T09:47:25Z</time>
      </trkpt>
      <trkpt lat="44.72499" lon="5.64661">
        <ele>2003.04</ele>
        <time>2020-10-01T09:47:35Z</time>
      </trkpt>
      <trkpt lat="44.72488" lon="5.64668">
        <ele>2005.93</ele>
        <time>2020-10-01T09:47:51Z</time>
      </trkpt>
      <trkpt lat="44.72479" lon="5.64675">
        <ele>2008.33</ele>
        <time>2020-10-01T09:48:05Z</time>
      </trkpt>
      <trkpt lat="44.72472" lon="5.64679">
        <ele>2011.22</ele>
        <time>2020-10-01T09:48:16Z</time>
      </trkpt>
      <trkpt lat="44.72465" lon="5.64684">
        <ele>2014.58</ele>
        <time>2020-10-01T09:48:28Z</time>
      </trkpt>
      <trkpt lat="44.72457" lon="5.64689">
        <ele>2016.98</ele>
        <time>2020-10-01T09:48:42Z</time>
      </trkpt>
      <trkpt lat="44.72447" lon="5.64695">
        <ele>2019.87</ele>
        <time>2020-10-01T09:48:58Z</time>
      </trkpt>
      <trkpt lat="44.72441" lon="5.64701">
        <ele>2021.79</ele>
        <time>2020-10-01T09:49:10Z</time>
      </trkpt>
      <trkpt lat="44.72433" lon="5.64704">
        <ele>2024.19</ele>
        <time>2020-10-01T09:49:26Z</time>
      </trkpt>
      <trkpt lat="44.72425" lon="5.64709">
        <ele>2026.12</ele>
        <time>2020-10-01T09:49:40Z</time>
      </trkpt>
      <trkpt lat="44.72418" lon="5.64715">
        <ele>2027.56</ele>
        <time>2020-10-01T09:49:54Z</time>
      </trkpt>
      <trkpt lat="44.72418" lon="5.64713">
        <ele>2029.96</ele>
        <time>2020-10-01T09:50:07Z</time>
      </trkpt>
      <trkpt lat="44.72417" lon="5.6471">
        <ele>2031.4</ele>
        <time>2020-10-01T09:50:12Z</time>
      </trkpt>
      <trkpt lat="44.72414" lon="5.64711">
        <ele>2029.48</ele>
        <time>2020-10-01T09:50:27Z</time>
      </trkpt>
      <trkpt lat="44.72415" lon="5.64713">
        <ele>2029</ele>
        <time>2020-10-01T09:50:39Z</time>
      </trkpt>
      <trkpt lat="44.72418" lon="5.64717">
        <ele>2029.96</ele>
        <time>2020-10-01T09:50:52Z</time>
      </trkpt>
      <trkpt lat="44.72418" lon="5.64718">
        <ele>2029.96</ele>
        <time>2020-10-01T09:51:05Z</time>
      </trkpt>
      <trkpt lat="44.72418" lon="5.64718">
        <ele>2029</ele>
        <time>2020-10-01T09:51:24Z</time>
      </trkpt>
      <trkpt lat="44.72418" lon="5.64718">
        <ele>2029.48</ele>
        <time>2020-10-01T09:51:49Z</time>
      </trkpt>
      <trkpt lat="44.72418" lon="5.6472">
        <ele>2028.04</ele>
        <time>2020-10-01T09:52:06Z</time>
      </trkpt>
      <trkpt lat="44.72417" lon="5.64719">
        <ele>2028.04</ele>
        <time>2020-10-01T09:52:29Z</time>
      </trkpt>
      <trkpt lat="44.72418" lon="5.64718">
        <ele>2029.48</ele>
        <time>2020-10-01T09:52:49Z</time>
      </trkpt>
      <trkpt lat="44.72418" lon="5.64718">
        <ele>2027.08</ele>
        <time>2020-10-01T09:53:10Z</time>
      </trkpt>
      <trkpt lat="44.72418" lon="5.6472">
        <ele>2027.56</ele>
        <time>2020-10-01T09:53:34Z</time>
      </trkpt>
      <trkpt lat="44.72419" lon="5.64717">
        <ele>2027.56</ele>
        <time>2020-10-01T09:54:09Z</time>
      </trkpt>
      <trkpt lat="44.72419" lon="5.64717">
        <ele>2027.56</ele>
        <time>2020-10-01T09:54:33Z</time>
      </trkpt>
      <trkpt lat="44.72419" lon="5.64717">
        <ele>2027.56</ele>
        <time>2020-10-01T09:55:00Z</time>
      </trkpt>
      <trkpt lat="44.72418" lon="5.64719">
        <ele>2027.56</ele>
        <time>2020-10-01T09:55:17Z</time>
      </trkpt>
      <trkpt lat="44.72419" lon="5.64717">
        <ele>2027.56</ele>
        <time>2020-10-01T09:55:39Z</time>
      </trkpt>
      <trkpt lat="44.72419" lon="5.64717">
        <ele>2027.56</ele>
        <time>2020-10-01T09:55:59Z</time>
      </trkpt>
      <trkpt lat="44.72419" lon="5.64717">
        <ele>2027.56</ele>
        <time>2020-10-01T09:56:28Z</time>
      </trkpt>
      <trkpt lat="44.72415" lon="5.64718">
        <ele>2027.56</ele>
        <time>2020-10-01T09:56:52Z</time>
      </trkpt>
      <trkpt lat="44.72411" lon="5.64715">
        <ele>2027.56</ele>
        <time>2020-10-01T09:57:11Z</time>
      </trkpt>
      <trkpt lat="44.7241" lon="5.64712">
        <ele>2027.56</ele>
        <time>2020-10-01T09:57:39Z</time>
      </trkpt>
      <trkpt lat="44.72409" lon="5.64707">
        <ele>2025.15</ele>
        <time>2020-10-01T09:57:55Z</time>
      </trkpt>
      <trkpt lat="44.72409" lon="5.64709">
        <ele>2026.6</ele>
        <time>2020-10-01T09:58:29Z</time>
      </trkpt>
      <trkpt lat="44.72412" lon="5.64712">
        <ele>2025.64</ele>
        <time>2020-10-01T09:58:45Z</time>
      </trkpt>
      <trkpt lat="44.72413" lon="5.64712">
        <ele>2026.12</ele>
        <time>2020-10-01T09:58:46Z</time>
      </trkpt>
      <trkpt lat="44.72418" lon="5.64719">
        <ele>2025.64</ele>
        <time>2020-10-01T09:59:01Z</time>
      </trkpt>
      <trkpt lat="44.72419" lon="5.64717">
        <ele>2025.64</ele>
        <time>2020-10-01T09:59:39Z</time>
      </trkpt>
      <trkpt lat="44.72417" lon="5.64718">
        <ele>2025.64</ele>
        <time>2020-10-01T10:00:04Z</time>
      </trkpt>
      <trkpt lat="44.72416" lon="5.64714">
        <ele>2025.64</ele>
        <time>2020-10-01T10:00:19Z</time>
      </trkpt>
      <trkpt lat="44.72415" lon="5.6471">
        <ele>2025.64</ele>
        <time>2020-10-01T10:00:44Z</time>
      </trkpt>
      <trkpt lat="44.72411" lon="5.64711">
        <ele>2025.64</ele>
        <time>2020-10-01T10:01:11Z</time>
      </trkpt>
      <trkpt lat="44.72407" lon="5.64709">
        <ele>2025.64</ele>
        <time>2020-10-01T10:01:31Z</time>
      </trkpt>
      <trkpt lat="44.72403" lon="5.64706">
        <ele>2025.64</ele>
        <time>2020-10-01T10:01:52Z</time>
      </trkpt>
      <trkpt lat="44.72402" lon="5.64706">
        <ele>2022.75</ele>
        <time>2020-10-01T10:02:03Z</time>
      </trkpt>
      <trkpt lat="44.72409" lon="5.64707">
        <ele>2026.12</ele>
        <time>2020-10-01T10:02:18Z</time>
      </trkpt>
      <trkpt lat="44.72411" lon="5.64708">
        <ele>2027.08</ele>
        <time>2020-10-01T10:02:35Z</time>
      </trkpt>
      <trkpt lat="44.7241" lon="5.64709">
        <ele>2027.08</ele>
        <time>2020-10-01T10:03:11Z</time>
      </trkpt>
      <trkpt lat="44.7241" lon="5.64709">
        <ele>2026.6</ele>
        <time>2020-10-01T10:03:34Z</time>
      </trkpt>
      <trkpt lat="44.7241" lon="5.64708">
        <ele>2026.12</ele>
        <time>2020-10-01T10:04:10Z</time>
      </trkpt>
      <trkpt lat="44.72411" lon="5.64708">
        <ele>2026.12</ele>
        <time>2020-10-01T10:04:43Z</time>
      </trkpt>
      <trkpt lat="44.72411" lon="5.64708">
        <ele>2025.64</ele>
        <time>2020-10-01T10:05:24Z</time>
      </trkpt>
      <trkpt lat="44.7241" lon="5.64708">
        <ele>2025.64</ele>
        <time>2020-10-01T10:06:06Z</time>
      </trkpt>
      <trkpt lat="44.72411" lon="5.64709">
        <ele>2025.64</ele>
        <time>2020-10-01T10:06:34Z</time>
      </trkpt>
      <trkpt lat="44.72411" lon="5.6471">
        <ele>2025.64</ele>
        <time>2020-10-01T10:07:07Z</time>
      </trkpt>
      <trkpt lat="44.72411" lon="5.64709">
        <ele>2025.64</ele>
        <time>2020-10-01T10:07:43Z</time>
      </trkpt>
      <trkpt lat="44.72411" lon="5.64709">
        <ele>2025.64</ele>
        <time>2020-10-01T10:08:20Z</time>
      </trkpt>
      <trkpt lat="44.72411" lon="5.64709">
        <ele>2025.64</ele>
        <time>2020-10-01T10:08:56Z</time>
      </trkpt>
      <trkpt lat="44.72412" lon="5.64709">
        <ele>2025.64</ele>
        <time>2020-10-01T10:09:52Z</time>
      </trkpt>
      <trkpt lat="44.72412" lon="5.64709">
        <ele>2025.64</ele>
        <time>2020-10-01T10:10:18Z</time>
      </trkpt>
      <trkpt lat="44.72411" lon="5.64709">
        <ele>2025.64</ele>
        <time>2020-10-01T10:10:49Z</time>
      </trkpt>
      <trkpt lat="44.72411" lon="5.64709">
        <ele>2025.64</ele>
        <time>2020-10-01T10:11:15Z</time>
      </trkpt>
      <trkpt lat="44.72412" lon="5.64709">
        <ele>2025.64</ele>
        <time>2020-10-01T10:11:39Z</time>
      </trkpt>
      <trkpt lat="44.72412" lon="5.64708">
        <ele>2025.64</ele>
        <time>2020-10-01T10:12:12Z</time>
      </trkpt>
      <trkpt lat="44.72412" lon="5.64708">
        <ele>2025.64</ele>
        <time>2020-10-01T10:12:59Z</time>
      </trkpt>
      <trkpt lat="44.72412" lon="5.64709">
        <ele>2025.64</ele>
        <time>2020-10-01T10:13:18Z</time>
      </trkpt>
      <trkpt lat="44.72413" lon="5.64708">
        <ele>2025.64</ele>
        <time>2020-10-01T10:13:43Z</time>
      </trkpt>
      <trkpt lat="44.72412" lon="5.64708">
        <ele>2025.64</ele>
        <time>2020-10-01T10:14:10Z</time>
      </trkpt>
      <trkpt lat="44.72412" lon="5.64708">
        <ele>2028.52</ele>
        <time>2020-10-01T10:14:14Z</time>
      </trkpt>
      <trkpt lat="44.72412" lon="5.64708">
        <ele>2028.52</ele>
        <time>2020-10-01T10:14:15Z</time>
      </trkpt>
      <trkpt lat="44.72412" lon="5.64708">
        <ele>2028.04</ele>
        <time>2020-10-01T10:14:53Z</time>
      </trkpt>
      <trkpt lat="44.72412" lon="5.64708">
        <ele>2029</ele>
        <time>2020-10-01T10:15:36Z</time>
      </trkpt>
      <trkpt lat="44.72413" lon="5.64709">
        <ele>2029.96</ele>
        <time>2020-10-01T10:16:04Z</time>
      </trkpt>
      <trkpt lat="44.72413" lon="5.6471">
        <ele>2028.04</ele>
        <time>2020-10-01T10:16:35Z</time>
      </trkpt>
      <trkpt lat="44.72415" lon="5.64711">
        <ele>2029</ele>
        <time>2020-10-01T10:16:50Z</time>
      </trkpt>
      <trkpt lat="44.72418" lon="5.64718">
        <ele>2028.04</ele>
        <time>2020-10-01T10:17:04Z</time>
      </trkpt>
      <trkpt lat="44.72419" lon="5.64715">
        <ele>2025.64</ele>
        <time>2020-10-01T10:17:18Z</time>
      </trkpt>
      <trkpt lat="44.72419" lon="5.64715">
        <ele>2028.04</ele>
        <time>2020-10-01T10:17:22Z</time>
      </trkpt>
      <trkpt lat="44.72413" lon="5.64712">
        <ele>2027.08</ele>
        <time>2020-10-01T10:17:36Z</time>
      </trkpt>
      <trkpt lat="44.72413" lon="5.64712">
        <ele>2026.6</ele>
        <time>2020-10-01T10:17:53Z</time>
      </trkpt>
      <trkpt lat="44.72411" lon="5.6471">
        <ele>2027.08</ele>
        <time>2020-10-01T10:18:07Z</time>
      </trkpt>
      <trkpt lat="44.72414" lon="5.64711">
        <ele>2028.52</ele>
        <time>2020-10-01T10:18:24Z</time>
      </trkpt>
      <trkpt lat="44.72414" lon="5.64712">
        <ele>2028.52</ele>
        <time>2020-10-01T10:18:39Z</time>
      </trkpt>
      <trkpt lat="44.72416" lon="5.64713">
        <ele>2028.52</ele>
        <time>2020-10-01T10:18:54Z</time>
      </trkpt>
      <trkpt lat="44.72417" lon="5.64713">
        <ele>2028.52</ele>
        <time>2020-10-01T10:19:12Z</time>
      </trkpt>
      <trkpt lat="44.72414" lon="5.64712">
        <ele>2028.52</ele>
        <time>2020-10-01T10:19:29Z</time>
      </trkpt>
      <trkpt lat="44.72413" lon="5.6471">
        <ele>2028.52</ele>
        <time>2020-10-01T10:19:55Z</time>
      </trkpt>
      <trkpt lat="44.72405" lon="5.64706">
        <ele>2027.56</ele>
        <time>2020-10-01T10:20:07Z</time>
      </trkpt>
      <trkpt lat="44.72403" lon="5.64705">
        <ele>2026.12</ele>
        <time>2020-10-01T10:20:09Z</time>
      </trkpt>
      <trkpt lat="44.72397" lon="5.64705">
        <ele>2024.67</ele>
        <time>2020-10-01T10:20:18Z</time>
      </trkpt>
      <trkpt lat="44.72396" lon="5.64705">
        <ele>2024.67</ele>
        <time>2020-10-01T10:20:19Z</time>
      </trkpt>
      <trkpt lat="44.72385" lon="5.64701">
        <ele>2021.79</ele>
        <time>2020-10-01T10:20:35Z</time>
      </trkpt>
      <trkpt lat="44.72377" lon="5.64699">
        <ele>2019.87</ele>
        <time>2020-10-01T10:20:48Z</time>
      </trkpt>
      <trkpt lat="44.72371" lon="5.64698">
        <ele>2018.91</ele>
        <time>2020-10-01T10:20:55Z</time>
      </trkpt>
      <trkpt lat="44.72368" lon="5.64697">
        <ele>2017.94</ele>
        <time>2020-10-01T10:20:59Z</time>
      </trkpt>
      <trkpt lat="44.7236" lon="5.64697">
        <ele>2016.02</ele>
        <time>2020-10-01T10:21:11Z</time>
      </trkpt>
      <trkpt lat="44.72353" lon="5.64697">
        <ele>2013.14</ele>
        <time>2020-10-01T10:21:26Z</time>
      </trkpt>
      <trkpt lat="44.72345" lon="5.64697">
        <ele>2011.22</ele>
        <time>2020-10-01T10:21:37Z</time>
      </trkpt>
      <trkpt lat="44.72338" lon="5.64696">
        <ele>2007.85</ele>
        <time>2020-10-01T10:21:46Z</time>
      </trkpt>
      <trkpt lat="44.72338" lon="5.64695">
        <ele>2007.85</ele>
        <time>2020-10-01T10:21:47Z</time>
      </trkpt>
      <trkpt lat="44.72335" lon="5.64686">
        <ele>2004.49</ele>
        <time>2020-10-01T10:21:56Z</time>
      </trkpt>
      <trkpt lat="44.72334" lon="5.64685">
        <ele>2003.52</ele>
        <time>2020-10-01T10:21:57Z</time>
      </trkpt>
      <trkpt lat="44.72333" lon="5.64685">
        <ele>2003.04</ele>
        <time>2020-10-01T10:21:58Z</time>
      </trkpt>
      <trkpt lat="44.72332" lon="5.64685">
        <ele>2002.56</ele>
        <time>2020-10-01T10:21:59Z</time>
      </trkpt>
      <trkpt lat="44.72331" lon="5.64685">
        <ele>2002.56</ele>
        <time>2020-10-01T10:22:00Z</time>
      </trkpt>
      <trkpt lat="44.7233" lon="5.64684">
        <ele>2002.56</ele>
        <time>2020-10-01T10:22:01Z</time>
      </trkpt>
      <trkpt lat="44.7232" lon="5.64684">
        <ele>2000.64</ele>
        <time>2020-10-01T10:22:10Z</time>
      </trkpt>
      <trkpt lat="44.7232" lon="5.64683">
        <ele>2000.16</ele>
        <time>2020-10-01T10:22:11Z</time>
      </trkpt>
      <trkpt lat="44.72319" lon="5.64682">
        <ele>1999.68</ele>
        <time>2020-10-01T10:22:12Z</time>
      </trkpt>
      <trkpt lat="44.72318" lon="5.64682">
        <ele>1999.2</ele>
        <time>2020-10-01T10:22:13Z</time>
      </trkpt>
      <trkpt lat="44.72311" lon="5.64681">
        <ele>1997.76</ele>
        <time>2020-10-01T10:22:20Z</time>
      </trkpt>
      <trkpt lat="44.72293" lon="5.64682">
        <ele>1994.87</ele>
        <time>2020-10-01T10:22:38Z</time>
      </trkpt>
      <trkpt lat="44.72282" lon="5.64683">
        <ele>1993.91</ele>
        <time>2020-10-01T10:22:52Z</time>
      </trkpt>
      <trkpt lat="44.72269" lon="5.64686">
        <ele>1993.43</ele>
        <time>2020-10-01T10:23:05Z</time>
      </trkpt>
      <trkpt lat="44.72268" lon="5.64686">
        <ele>1993.43</ele>
        <time>2020-10-01T10:23:06Z</time>
      </trkpt>
      <trkpt lat="44.72259" lon="5.64687">
        <ele>1991.51</ele>
        <time>2020-10-01T10:23:20Z</time>
      </trkpt>
      <trkpt lat="44.72255" lon="5.64684">
        <ele>1990.07</ele>
        <time>2020-10-01T10:23:32Z</time>
      </trkpt>
      <trkpt lat="44.72254" lon="5.64684">
        <ele>1989.59</ele>
        <time>2020-10-01T10:23:33Z</time>
      </trkpt>
      <trkpt lat="44.72253" lon="5.64683">
        <ele>1989.59</ele>
        <time>2020-10-01T10:23:34Z</time>
      </trkpt>
      <trkpt lat="44.7224" lon="5.64681">
        <ele>1988.62</ele>
        <time>2020-10-01T10:23:47Z</time>
      </trkpt>
      <trkpt lat="44.72222" lon="5.64684">
        <ele>1985.74</ele>
        <time>2020-10-01T10:24:04Z</time>
      </trkpt>
      <trkpt lat="44.72208" lon="5.64685">
        <ele>1982.38</ele>
        <time>2020-10-01T10:24:18Z</time>
      </trkpt>
      <trkpt lat="44.72195" lon="5.64687">
        <ele>1979.01</ele>
        <time>2020-10-01T10:24:31Z</time>
      </trkpt>
      <trkpt lat="44.72193" lon="5.64688">
        <ele>1978.53</ele>
        <time>2020-10-01T10:24:33Z</time>
      </trkpt>
      <trkpt lat="44.72191" lon="5.6469">
        <ele>1978.05</ele>
        <time>2020-10-01T10:24:36Z</time>
      </trkpt>
      <trkpt lat="44.7219" lon="5.6469">
        <ele>1978.05</ele>
        <time>2020-10-01T10:24:37Z</time>
      </trkpt>
      <trkpt lat="44.72178" lon="5.64693">
        <ele>1976.61</ele>
        <time>2020-10-01T10:24:52Z</time>
      </trkpt>
      <trkpt lat="44.72167" lon="5.64695">
        <ele>1973.72</ele>
        <time>2020-10-01T10:25:05Z</time>
      </trkpt>
      <trkpt lat="44.72161" lon="5.64702">
        <ele>1972.76</ele>
        <time>2020-10-01T10:25:16Z</time>
      </trkpt>
      <trkpt lat="44.72156" lon="5.64703">
        <ele>1970.84</ele>
        <time>2020-10-01T10:25:23Z</time>
      </trkpt>
      <trkpt lat="44.72153" lon="5.64708">
        <ele>1968.44</ele>
        <time>2020-10-01T10:25:34Z</time>
      </trkpt>
      <trkpt lat="44.72152" lon="5.6471">
        <ele>1968.44</ele>
        <time>2020-10-01T10:25:49Z</time>
      </trkpt>
      <trkpt lat="44.72153" lon="5.64709">
        <ele>1967.96</ele>
        <time>2020-10-01T10:26:05Z</time>
      </trkpt>
      <trkpt lat="44.72152" lon="5.64709">
        <ele>1968.44</ele>
        <time>2020-10-01T10:26:21Z</time>
      </trkpt>
      <trkpt lat="44.72153" lon="5.6471">
        <ele>1969.4</ele>
        <time>2020-10-01T10:26:38Z</time>
      </trkpt>
      <trkpt lat="44.72153" lon="5.6471">
        <ele>1967.96</ele>
        <time>2020-10-01T10:27:11Z</time>
      </trkpt>
      <trkpt lat="44.72155" lon="5.64706">
        <ele>1967.96</ele>
        <time>2020-10-01T10:27:24Z</time>
      </trkpt>
      <trkpt lat="44.72153" lon="5.64709">
        <ele>1968.44</ele>
        <time>2020-10-01T10:27:41Z</time>
      </trkpt>
      <trkpt lat="44.72153" lon="5.64706">
        <ele>1968.44</ele>
        <time>2020-10-01T10:28:01Z</time>
      </trkpt>
      <trkpt lat="44.72151" lon="5.64711">
        <ele>1967.48</ele>
        <time>2020-10-01T10:28:24Z</time>
      </trkpt>
      <trkpt lat="44.72154" lon="5.64709">
        <ele>1967.96</ele>
        <time>2020-10-01T10:28:39Z</time>
      </trkpt>
      <trkpt lat="44.72153" lon="5.64709">
        <ele>1968.44</ele>
        <time>2020-10-01T10:28:59Z</time>
      </trkpt>
      <trkpt lat="44.72153" lon="5.64711">
        <ele>1968.44</ele>
        <time>2020-10-01T10:29:20Z</time>
      </trkpt>
      <trkpt lat="44.72154" lon="5.64708">
        <ele>1968.44</ele>
        <time>2020-10-01T10:29:38Z</time>
      </trkpt>
      <trkpt lat="44.72154" lon="5.6471">
        <ele>1968.44</ele>
        <time>2020-10-01T10:29:58Z</time>
      </trkpt>
      <trkpt lat="44.72152" lon="5.64706">
        <ele>1968.44</ele>
        <time>2020-10-01T10:30:17Z</time>
      </trkpt>
      <trkpt lat="44.72153" lon="5.64708">
        <ele>1968.44</ele>
        <time>2020-10-01T10:30:56Z</time>
      </trkpt>
      <trkpt lat="44.72152" lon="5.6471">
        <ele>1968.44</ele>
        <time>2020-10-01T10:31:30Z</time>
      </trkpt>
      <trkpt lat="44.72151" lon="5.6471">
        <ele>1968.44</ele>
        <time>2020-10-01T10:32:10Z</time>
      </trkpt>
      <trkpt lat="44.7215" lon="5.64711">
        <ele>1968.44</ele>
        <time>2020-10-01T10:32:50Z</time>
      </trkpt>
      <trkpt lat="44.72152" lon="5.64711">
        <ele>1968.44</ele>
        <time>2020-10-01T10:33:26Z</time>
      </trkpt>
      <trkpt lat="44.72152" lon="5.64708">
        <ele>1968.44</ele>
        <time>2020-10-01T10:33:55Z</time>
      </trkpt>
      <trkpt lat="44.72153" lon="5.64709">
        <ele>1968.44</ele>
        <time>2020-10-01T10:34:19Z</time>
      </trkpt>
      <trkpt lat="44.72149" lon="5.6471">
        <ele>1968.44</ele>
        <time>2020-10-01T10:34:36Z</time>
      </trkpt>
      <trkpt lat="44.72148" lon="5.64709">
        <ele>1965.55</ele>
        <time>2020-10-01T10:35:01Z</time>
      </trkpt>
      <trkpt lat="44.7215" lon="5.64707">
        <ele>1964.59</ele>
        <time>2020-10-01T10:35:34Z</time>
      </trkpt>
      <trkpt lat="44.72148" lon="5.64711">
        <ele>1963.63</ele>
        <time>2020-10-01T10:36:19Z</time>
      </trkpt>
      <trkpt lat="44.72149" lon="5.64708">
        <ele>1963.63</ele>
        <time>2020-10-01T10:37:03Z</time>
      </trkpt>
      <trkpt lat="44.7215" lon="5.64707">
        <ele>1963.63</ele>
        <time>2020-10-01T10:37:44Z</time>
      </trkpt>
      <trkpt lat="44.7215" lon="5.6471">
        <ele>1963.63</ele>
        <time>2020-10-01T10:38:27Z</time>
      </trkpt>
      <trkpt lat="44.72149" lon="5.6471">
        <ele>1963.63</ele>
        <time>2020-10-01T10:39:09Z</time>
      </trkpt>
      <trkpt lat="44.7215" lon="5.64712">
        <ele>1963.63</ele>
        <time>2020-10-01T10:40:04Z</time>
      </trkpt>
      <trkpt lat="44.7215" lon="5.64713">
        <ele>1963.63</ele>
        <time>2020-10-01T10:40:43Z</time>
      </trkpt>
      <trkpt lat="44.7215" lon="5.64712">
        <ele>1963.63</ele>
        <time>2020-10-01T10:41:23Z</time>
      </trkpt>
      <trkpt lat="44.72149" lon="5.64711">
        <ele>1963.63</ele>
        <time>2020-10-01T10:42:03Z</time>
      </trkpt>
      <trkpt lat="44.72148" lon="5.6471">
        <ele>1963.63</ele>
        <time>2020-10-01T10:42:45Z</time>
      </trkpt>
      <trkpt lat="44.72149" lon="5.64709">
        <ele>1963.63</ele>
        <time>2020-10-01T10:43:22Z</time>
      </trkpt>
      <trkpt lat="44.72149" lon="5.64708">
        <ele>1963.63</ele>
        <time>2020-10-01T10:44:07Z</time>
      </trkpt>
      <trkpt lat="44.72149" lon="5.64709">
        <ele>1963.63</ele>
        <time>2020-10-01T10:44:56Z</time>
      </trkpt>
      <trkpt lat="44.72148" lon="5.64709">
        <ele>1963.63</ele>
        <time>2020-10-01T10:45:26Z</time>
      </trkpt>
      <trkpt lat="44.72148" lon="5.6471">
        <ele>1963.63</ele>
        <time>2020-10-01T10:46:04Z</time>
      </trkpt>
      <trkpt lat="44.72147" lon="5.6471">
        <ele>1963.63</ele>
        <time>2020-10-01T10:46:44Z</time>
      </trkpt>
      <trkpt lat="44.72147" lon="5.6471">
        <ele>1963.63</ele>
        <time>2020-10-01T10:47:19Z</time>
      </trkpt>
      <trkpt lat="44.72148" lon="5.6471">
        <ele>1963.63</ele>
        <time>2020-10-01T10:48:02Z</time>
      </trkpt>
      <trkpt lat="44.7215" lon="5.6471">
        <ele>1963.63</ele>
        <time>2020-10-01T10:48:36Z</time>
      </trkpt>
      <trkpt lat="44.72151" lon="5.64711">
        <ele>1966.51</ele>
        <time>2020-10-01T10:48:43Z</time>
      </trkpt>
      <trkpt lat="44.72151" lon="5.64711">
        <ele>1967.96</ele>
        <time>2020-10-01T10:48:46Z</time>
      </trkpt>
      <trkpt lat="44.72152" lon="5.64712">
        <ele>1968.92</ele>
        <time>2020-10-01T10:49:16Z</time>
      </trkpt>
      <trkpt lat="44.72153" lon="5.64708">
        <ele>1969.4</ele>
        <time>2020-10-01T10:49:39Z</time>
      </trkpt>
      <trkpt lat="44.72152" lon="5.64709">
        <ele>1968.92</ele>
        <time>2020-10-01T10:50:07Z</time>
      </trkpt>
      <trkpt lat="44.72152" lon="5.6471">
        <ele>1969.4</ele>
        <time>2020-10-01T10:50:31Z</time>
      </trkpt>
      <trkpt lat="44.72151" lon="5.64711">
        <ele>1968.92</ele>
        <time>2020-10-01T10:50:55Z</time>
      </trkpt>
      <trkpt lat="44.72151" lon="5.64711">
        <ele>1968.92</ele>
        <time>2020-10-01T10:51:30Z</time>
      </trkpt>
      <trkpt lat="44.7215" lon="5.6471">
        <ele>1968.92</ele>
        <time>2020-10-01T10:52:00Z</time>
      </trkpt>
      <trkpt lat="44.72142" lon="5.64703">
        <ele>1968.92</ele>
        <time>2020-10-01T10:52:17Z</time>
      </trkpt>
      <trkpt lat="44.72136" lon="5.64703">
        <ele>1968.92</ele>
        <time>2020-10-01T10:52:25Z</time>
      </trkpt>
      <trkpt lat="44.72133" lon="5.64703">
        <ele>1968.92</ele>
        <time>2020-10-01T10:52:29Z</time>
      </trkpt>
      <trkpt lat="44.72119" lon="5.64707">
        <ele>1968.44</ele>
        <time>2020-10-01T10:52:44Z</time>
      </trkpt>
      <trkpt lat="44.72109" lon="5.64714">
        <ele>1966.51</ele>
        <time>2020-10-01T10:52:59Z</time>
      </trkpt>
      <trkpt lat="44.72101" lon="5.64718">
        <ele>1966.03</ele>
        <time>2020-10-01T10:53:12Z</time>
      </trkpt>
      <trkpt lat="44.72099" lon="5.64719">
        <ele>1966.03</ele>
        <time>2020-10-01T10:53:13Z</time>
      </trkpt>
      <trkpt lat="44.72096" lon="5.64721">
        <ele>1966.03</ele>
        <time>2020-10-01T10:53:17Z</time>
      </trkpt>
      <trkpt lat="44.72095" lon="5.64721">
        <ele>1965.55</ele>
        <time>2020-10-01T10:53:18Z</time>
      </trkpt>
      <trkpt lat="44.72079" lon="5.64723">
        <ele>1963.63</ele>
        <time>2020-10-01T10:53:34Z</time>
      </trkpt>
      <trkpt lat="44.72069" lon="5.64724">
        <ele>1961.71</ele>
        <time>2020-10-01T10:53:44Z</time>
      </trkpt>
      <trkpt lat="44.72068" lon="5.64725">
        <ele>1961.23</ele>
        <time>2020-10-01T10:53:45Z</time>
      </trkpt>
      <trkpt lat="44.72067" lon="5.64726">
        <ele>1961.23</ele>
        <time>2020-10-01T10:53:46Z</time>
      </trkpt>
      <trkpt lat="44.72066" lon="5.64727">
        <ele>1960.75</ele>
        <time>2020-10-01T10:53:47Z</time>
      </trkpt>
      <trkpt lat="44.72065" lon="5.64727">
        <ele>1960.27</ele>
        <time>2020-10-01T10:53:48Z</time>
      </trkpt>
      <trkpt lat="44.72051" lon="5.64729">
        <ele>1957.38</ele>
        <time>2020-10-01T10:54:02Z</time>
      </trkpt>
      <trkpt lat="44.72041" lon="5.64731">
        <ele>1954.5</ele>
        <time>2020-10-01T10:54:15Z</time>
      </trkpt>
      <trkpt lat="44.72028" lon="5.6473">
        <ele>1951.61</ele>
        <time>2020-10-01T10:54:28Z</time>
      </trkpt>
      <trkpt lat="44.72015" lon="5.64732">
        <ele>1947.77</ele>
        <time>2020-10-01T10:54:40Z</time>
      </trkpt>
      <trkpt lat="44.72002" lon="5.64734">
        <ele>1944.88</ele>
        <time>2020-10-01T10:54:53Z</time>
      </trkpt>
      <trkpt lat="44.71991" lon="5.64731">
        <ele>1942</ele>
        <time>2020-10-01T10:55:08Z</time>
      </trkpt>
      <trkpt lat="44.71988" lon="5.64726">
        <ele>1938.64</ele>
        <time>2020-10-01T10:55:15Z</time>
      </trkpt>
      <trkpt lat="44.71982" lon="5.64718">
        <ele>1935.27</ele>
        <time>2020-10-01T10:55:25Z</time>
      </trkpt>
      <trkpt lat="44.71973" lon="5.64715">
        <ele>1932.39</ele>
        <time>2020-10-01T10:55:37Z</time>
      </trkpt>
      <trkpt lat="44.71965" lon="5.6471">
        <ele>1929.02</ele>
        <time>2020-10-01T10:55:48Z</time>
      </trkpt>
      <trkpt lat="44.71955" lon="5.64704">
        <ele>1925.66</ele>
        <time>2020-10-01T10:55:59Z</time>
      </trkpt>
      <trkpt lat="44.71954" lon="5.64704">
        <ele>1925.18</ele>
        <time>2020-10-01T10:56:01Z</time>
      </trkpt>
      <trkpt lat="44.71949" lon="5.64705">
        <ele>1923.25</ele>
        <time>2020-10-01T10:56:07Z</time>
      </trkpt>
      <trkpt lat="44.71944" lon="5.647">
        <ele>1921.33</ele>
        <time>2020-10-01T10:56:14Z</time>
      </trkpt>
      <trkpt lat="44.71932" lon="5.64693">
        <ele>1917.97</ele>
        <time>2020-10-01T10:56:27Z</time>
      </trkpt>
      <trkpt lat="44.71917" lon="5.64683">
        <ele>1915.08</ele>
        <time>2020-10-01T10:56:42Z</time>
      </trkpt>
      <trkpt lat="44.7191" lon="5.64679">
        <ele>1914.12</ele>
        <time>2020-10-01T10:56:49Z</time>
      </trkpt>
      <trkpt lat="44.71909" lon="5.64678">
        <ele>1914.12</ele>
        <time>2020-10-01T10:56:50Z</time>
      </trkpt>
      <trkpt lat="44.71908" lon="5.64678">
        <ele>1914.12</ele>
        <time>2020-10-01T10:56:51Z</time>
      </trkpt>
      <trkpt lat="44.71907" lon="5.64677">
        <ele>1913.64</ele>
        <time>2020-10-01T10:56:52Z</time>
      </trkpt>
      <trkpt lat="44.71906" lon="5.64677">
        <ele>1913.64</ele>
        <time>2020-10-01T10:56:53Z</time>
      </trkpt>
      <trkpt lat="44.71888" lon="5.64665">
        <ele>1910.28</ele>
        <time>2020-10-01T10:57:10Z</time>
      </trkpt>
      <trkpt lat="44.71868" lon="5.64659">
        <ele>1907.39</ele>
        <time>2020-10-01T10:57:28Z</time>
      </trkpt>
      <trkpt lat="44.71846" lon="5.64655">
        <ele>1905.47</ele>
        <time>2020-10-01T10:57:47Z</time>
      </trkpt>
      <trkpt lat="44.71842" lon="5.64654">
        <ele>1904.03</ele>
        <time>2020-10-01T10:58:01Z</time>
      </trkpt>
      <trkpt lat="44.7184" lon="5.64657">
        <ele>1903.07</ele>
        <time>2020-10-01T10:58:26Z</time>
      </trkpt>
      <trkpt lat="44.71841" lon="5.64652">
        <ele>1903.55</ele>
        <time>2020-10-01T10:58:41Z</time>
      </trkpt>
      <trkpt lat="44.71842" lon="5.64652">
        <ele>1903.55</ele>
        <time>2020-10-01T10:58:57Z</time>
      </trkpt>
      <trkpt lat="44.71842" lon="5.64653">
        <ele>1903.07</ele>
        <time>2020-10-01T10:59:27Z</time>
      </trkpt>
      <trkpt lat="44.71842" lon="5.64653">
        <ele>1903.07</ele>
        <time>2020-10-01T10:59:55Z</time>
      </trkpt>
      <trkpt lat="44.71842" lon="5.64653">
        <ele>1903.07</ele>
        <time>2020-10-01T11:00:18Z</time>
      </trkpt>
      <trkpt lat="44.71842" lon="5.64652">
        <ele>1902.59</ele>
        <time>2020-10-01T11:00:40Z</time>
      </trkpt>
      <trkpt lat="44.7184" lon="5.64657">
        <ele>1902.59</ele>
        <time>2020-10-01T11:01:04Z</time>
      </trkpt>
      <trkpt lat="44.71837" lon="5.64659">
        <ele>1902.59</ele>
        <time>2020-10-01T11:01:08Z</time>
      </trkpt>
      <trkpt lat="44.71836" lon="5.64659">
        <ele>1902.59</ele>
        <time>2020-10-01T11:01:09Z</time>
      </trkpt>
      <trkpt lat="44.71827" lon="5.64666">
        <ele>1899.7</ele>
        <time>2020-10-01T11:01:21Z</time>
      </trkpt>
      <trkpt lat="44.71815" lon="5.64672">
        <ele>1896.34</ele>
        <time>2020-10-01T11:01:35Z</time>
      </trkpt>
      <trkpt lat="44.71813" lon="5.64672">
        <ele>1895.38</ele>
        <time>2020-10-01T11:01:37Z</time>
      </trkpt>
      <trkpt lat="44.71812" lon="5.64672">
        <ele>1894.9</ele>
        <time>2020-10-01T11:01:38Z</time>
      </trkpt>
      <trkpt lat="44.71811" lon="5.64672">
        <ele>1894.9</ele>
        <time>2020-10-01T11:01:39Z</time>
      </trkpt>
      <trkpt lat="44.7181" lon="5.64672">
        <ele>1894.9</ele>
        <time>2020-10-01T11:01:40Z</time>
      </trkpt>
      <trkpt lat="44.71808" lon="5.64673">
        <ele>1894.42</ele>
        <time>2020-10-01T11:01:41Z</time>
      </trkpt>
      <trkpt lat="44.71807" lon="5.64674">
        <ele>1894.42</ele>
        <time>2020-10-01T11:01:42Z</time>
      </trkpt>
      <trkpt lat="44.71797" lon="5.64679">
        <ele>1891.05</ele>
        <time>2020-10-01T11:01:52Z</time>
      </trkpt>
      <trkpt lat="44.71788" lon="5.64685">
        <ele>1888.17</ele>
        <time>2020-10-01T11:02:04Z</time>
      </trkpt>
      <trkpt lat="44.7178" lon="5.64685">
        <ele>1885.28</ele>
        <time>2020-10-01T11:02:14Z</time>
      </trkpt>
      <trkpt lat="44.71769" lon="5.64688">
        <ele>1881.92</ele>
        <time>2020-10-01T11:02:29Z</time>
      </trkpt>
      <trkpt lat="44.71768" lon="5.64689">
        <ele>1881.92</ele>
        <time>2020-10-01T11:02:30Z</time>
      </trkpt>
      <trkpt lat="44.71765" lon="5.6469">
        <ele>1880.48</ele>
        <time>2020-10-01T11:02:33Z</time>
      </trkpt>
      <trkpt lat="44.71757" lon="5.64695">
        <ele>1877.59</ele>
        <time>2020-10-01T11:02:43Z</time>
      </trkpt>
      <trkpt lat="44.71753" lon="5.64697">
        <ele>1876.15</ele>
        <time>2020-10-01T11:02:48Z</time>
      </trkpt>
      <trkpt lat="44.71745" lon="5.647">
        <ele>1873.27</ele>
        <time>2020-10-01T11:02:57Z</time>
      </trkpt>
      <trkpt lat="44.71743" lon="5.64701">
        <ele>1872.3</ele>
        <time>2020-10-01T11:02:59Z</time>
      </trkpt>
      <trkpt lat="44.71742" lon="5.64701">
        <ele>1872.3</ele>
        <time>2020-10-01T11:03:00Z</time>
      </trkpt>
      <trkpt lat="44.71741" lon="5.64702">
        <ele>1872.3</ele>
        <time>2020-10-01T11:03:01Z</time>
      </trkpt>
      <trkpt lat="44.71738" lon="5.64703">
        <ele>1871.34</ele>
        <time>2020-10-01T11:03:04Z</time>
      </trkpt>
      <trkpt lat="44.71737" lon="5.64703">
        <ele>1871.34</ele>
        <time>2020-10-01T11:03:05Z</time>
      </trkpt>
      <trkpt lat="44.71732" lon="5.64705">
        <ele>1869.42</ele>
        <time>2020-10-01T11:03:10Z</time>
      </trkpt>
      <trkpt lat="44.71731" lon="5.64706">
        <ele>1869.42</ele>
        <time>2020-10-01T11:03:11Z</time>
      </trkpt>
      <trkpt lat="44.7173" lon="5.64707">
        <ele>1868.94</ele>
        <time>2020-10-01T11:03:12Z</time>
      </trkpt>
      <trkpt lat="44.71729" lon="5.64707">
        <ele>1868.46</ele>
        <time>2020-10-01T11:03:13Z</time>
      </trkpt>
      <trkpt lat="44.71728" lon="5.64708">
        <ele>1867.98</ele>
        <time>2020-10-01T11:03:14Z</time>
      </trkpt>
      <trkpt lat="44.71727" lon="5.64709">
        <ele>1867.98</ele>
        <time>2020-10-01T11:03:15Z</time>
      </trkpt>
      <trkpt lat="44.71726" lon="5.6471">
        <ele>1867.5</ele>
        <time>2020-10-01T11:03:16Z</time>
      </trkpt>
      <trkpt lat="44.71724" lon="5.64711">
        <ele>1867.02</ele>
        <time>2020-10-01T11:03:17Z</time>
      </trkpt>
      <trkpt lat="44.71714" lon="5.64716">
        <ele>1864.13</ele>
        <time>2020-10-01T11:03:26Z</time>
      </trkpt>
      <trkpt lat="44.7171" lon="5.64717">
        <ele>1862.69</ele>
        <time>2020-10-01T11:03:29Z</time>
      </trkpt>
      <trkpt lat="44.71696" lon="5.64728">
        <ele>1859.81</ele>
        <time>2020-10-01T11:03:42Z</time>
      </trkpt>
      <trkpt lat="44.71683" lon="5.64735">
        <ele>1856.44</ele>
        <time>2020-10-01T11:03:54Z</time>
      </trkpt>
      <trkpt lat="44.71669" lon="5.64745">
        <ele>1853.56</ele>
        <time>2020-10-01T11:04:07Z</time>
      </trkpt>
      <trkpt lat="44.71656" lon="5.64758">
        <ele>1850.19</ele>
        <time>2020-10-01T11:04:20Z</time>
      </trkpt>
      <trkpt lat="44.71641" lon="5.64773">
        <ele>1846.83</ele>
        <time>2020-10-01T11:04:35Z</time>
      </trkpt>
      <trkpt lat="44.71624" lon="5.64788">
        <ele>1843.95</ele>
        <time>2020-10-01T11:04:52Z</time>
      </trkpt>
      <trkpt lat="44.71612" lon="5.648">
        <ele>1840.58</ele>
        <time>2020-10-01T11:05:05Z</time>
      </trkpt>
      <trkpt lat="44.71596" lon="5.64815">
        <ele>1837.7</ele>
        <time>2020-10-01T11:05:22Z</time>
      </trkpt>
      <trkpt lat="44.7159" lon="5.64819">
        <ele>1836.74</ele>
        <time>2020-10-01T11:05:28Z</time>
      </trkpt>
      <trkpt lat="44.71589" lon="5.6482">
        <ele>1836.26</ele>
        <time>2020-10-01T11:05:29Z</time>
      </trkpt>
      <trkpt lat="44.71574" lon="5.64838">
        <ele>1833.37</ele>
        <time>2020-10-01T11:05:47Z</time>
      </trkpt>
      <trkpt lat="44.71557" lon="5.64856">
        <ele>1830.97</ele>
        <time>2020-10-01T11:06:06Z</time>
      </trkpt>
      <trkpt lat="44.71548" lon="5.64869">
        <ele>1828.56</ele>
        <time>2020-10-01T11:06:22Z</time>
      </trkpt>
      <trkpt lat="44.71546" lon="5.64874">
        <ele>1827.6</ele>
        <time>2020-10-01T11:06:39Z</time>
      </trkpt>
      <trkpt lat="44.71545" lon="5.64876">
        <ele>1826.64</ele>
        <time>2020-10-01T11:06:54Z</time>
      </trkpt>
      <trkpt lat="44.71544" lon="5.64878">
        <ele>1827.12</ele>
        <time>2020-10-01T11:07:13Z</time>
      </trkpt>
      <trkpt lat="44.71545" lon="5.64884">
        <ele>1826.64</ele>
        <time>2020-10-01T11:07:31Z</time>
      </trkpt>
      <trkpt lat="44.7154" lon="5.64896">
        <ele>1825.2</ele>
        <time>2020-10-01T11:07:44Z</time>
      </trkpt>
      <trkpt lat="44.71537" lon="5.64908">
        <ele>1823.76</ele>
        <time>2020-10-01T11:07:58Z</time>
      </trkpt>
      <trkpt lat="44.71537" lon="5.64914">
        <ele>1820.87</ele>
        <time>2020-10-01T11:08:11Z</time>
      </trkpt>
      <trkpt lat="44.71538" lon="5.64923">
        <ele>1819.43</ele>
        <time>2020-10-01T11:08:18Z</time>
      </trkpt>
      <trkpt lat="44.71538" lon="5.64924">
        <ele>1820.39</ele>
        <time>2020-10-01T11:08:19Z</time>
      </trkpt>
      <trkpt lat="44.71541" lon="5.64927">
        <ele>1820.87</ele>
        <time>2020-10-01T11:08:22Z</time>
      </trkpt>
      <trkpt lat="44.71542" lon="5.64928">
        <ele>1820.87</ele>
        <time>2020-10-01T11:08:23Z</time>
      </trkpt>
      <trkpt lat="44.71542" lon="5.64929">
        <ele>1820.87</ele>
        <time>2020-10-01T11:08:24Z</time>
      </trkpt>
      <trkpt lat="44.71546" lon="5.64937">
        <ele>1817.51</ele>
        <time>2020-10-01T11:08:33Z</time>
      </trkpt>
      <trkpt lat="44.71547" lon="5.64938">
        <ele>1817.03</ele>
        <time>2020-10-01T11:08:34Z</time>
      </trkpt>
      <trkpt lat="44.71551" lon="5.64938">
        <ele>1819.91</ele>
        <time>2020-10-01T11:08:39Z</time>
      </trkpt>
      <trkpt lat="44.71559" lon="5.6494">
        <ele>1816.55</ele>
        <time>2020-10-01T11:08:49Z</time>
      </trkpt>
      <trkpt lat="44.7156" lon="5.6494">
        <ele>1816.07</ele>
        <time>2020-10-01T11:08:50Z</time>
      </trkpt>
      <trkpt lat="44.71565" lon="5.64941">
        <ele>1814.15</ele>
        <time>2020-10-01T11:08:56Z</time>
      </trkpt>
      <trkpt lat="44.71572" lon="5.64943">
        <ele>1811.74</ele>
        <time>2020-10-01T11:09:03Z</time>
      </trkpt>
      <trkpt lat="44.71576" lon="5.64944">
        <ele>1809.82</ele>
        <time>2020-10-01T11:09:08Z</time>
      </trkpt>
      <trkpt lat="44.71578" lon="5.64944">
        <ele>1809.34</ele>
        <time>2020-10-01T11:09:09Z</time>
      </trkpt>
      <trkpt lat="44.71584" lon="5.64944">
        <ele>1807.42</ele>
        <time>2020-10-01T11:09:15Z</time>
      </trkpt>
      <trkpt lat="44.71591" lon="5.64947">
        <ele>1804.05</ele>
        <time>2020-10-01T11:09:23Z</time>
      </trkpt>
      <trkpt lat="44.71597" lon="5.64954">
        <ele>1801.17</ele>
        <time>2020-10-01T11:09:31Z</time>
      </trkpt>
      <trkpt lat="44.71601" lon="5.64957">
        <ele>1798.28</ele>
        <time>2020-10-01T11:09:38Z</time>
      </trkpt>
      <trkpt lat="44.71609" lon="5.6496">
        <ele>1794.92</ele>
        <time>2020-10-01T11:09:48Z</time>
      </trkpt>
      <trkpt lat="44.71611" lon="5.64969">
        <ele>1792.03</ele>
        <time>2020-10-01T11:09:58Z</time>
      </trkpt>
      <trkpt lat="44.7161" lon="5.64977">
        <ele>1790.11</ele>
        <time>2020-10-01T11:10:05Z</time>
      </trkpt>
      <trkpt lat="44.71603" lon="5.64996">
        <ele>1787.23</ele>
        <time>2020-10-01T11:10:20Z</time>
      </trkpt>
      <trkpt lat="44.71599" lon="5.65007">
        <ele>1784.82</ele>
        <time>2020-10-01T11:10:36Z</time>
      </trkpt>
      <trkpt lat="44.71597" lon="5.6501">
        <ele>1784.34</ele>
        <time>2020-10-01T11:10:42Z</time>
      </trkpt>
      <trkpt lat="44.71597" lon="5.65011">
        <ele>1784.34</ele>
        <time>2020-10-01T11:10:43Z</time>
      </trkpt>
      <trkpt lat="44.71596" lon="5.65013">
        <ele>1784.34</ele>
        <time>2020-10-01T11:10:44Z</time>
      </trkpt>
      <trkpt lat="44.71581" lon="5.6503">
        <ele>1781.94</ele>
        <time>2020-10-01T11:11:01Z</time>
      </trkpt>
      <trkpt lat="44.71568" lon="5.65048">
        <ele>1779.54</ele>
        <time>2020-10-01T11:11:16Z</time>
      </trkpt>
      <trkpt lat="44.71553" lon="5.65067">
        <ele>1776.65</ele>
        <time>2020-10-01T11:11:34Z</time>
      </trkpt>
      <trkpt lat="44.71543" lon="5.6508">
        <ele>1774.25</ele>
        <time>2020-10-01T11:11:48Z</time>
      </trkpt>
      <trkpt lat="44.71534" lon="5.65089">
        <ele>1771.85</ele>
        <time>2020-10-01T11:12:02Z</time>
      </trkpt>
      <trkpt lat="44.71528" lon="5.65098">
        <ele>1769.92</ele>
        <time>2020-10-01T11:12:16Z</time>
      </trkpt>
      <trkpt lat="44.71521" lon="5.65111">
        <ele>1767.04</ele>
        <time>2020-10-01T11:12:30Z</time>
      </trkpt>
      <trkpt lat="44.71521" lon="5.65112">
        <ele>1766.56</ele>
        <time>2020-10-01T11:12:31Z</time>
      </trkpt>
      <trkpt lat="44.7152" lon="5.65113">
        <ele>1766.08</ele>
        <time>2020-10-01T11:12:32Z</time>
      </trkpt>
      <trkpt lat="44.71514" lon="5.65122">
        <ele>1763.2</ele>
        <time>2020-10-01T11:12:42Z</time>
      </trkpt>
      <trkpt lat="44.71505" lon="5.65133">
        <ele>1759.83</ele>
        <time>2020-10-01T11:12:55Z</time>
      </trkpt>
      <trkpt lat="44.71497" lon="5.65145">
        <ele>1756.95</ele>
        <time>2020-10-01T11:13:07Z</time>
      </trkpt>
      <trkpt lat="44.71488" lon="5.65155">
        <ele>1753.58</ele>
        <time>2020-10-01T11:13:19Z</time>
      </trkpt>
      <trkpt lat="44.71486" lon="5.65158">
        <ele>1751.18</ele>
        <time>2020-10-01T11:13:36Z</time>
      </trkpt>
      <trkpt lat="44.71481" lon="5.65166">
        <ele>1749.26</ele>
        <time>2020-10-01T11:13:47Z</time>
      </trkpt>
      <trkpt lat="44.71473" lon="5.65175">
        <ele>1746.37</ele>
        <time>2020-10-01T11:13:59Z</time>
      </trkpt>
      <trkpt lat="44.71473" lon="5.65176">
        <ele>1745.89</ele>
        <time>2020-10-01T11:14:00Z</time>
      </trkpt>
      <trkpt lat="44.71469" lon="5.65181">
        <ele>1744.45</ele>
        <time>2020-10-01T11:14:06Z</time>
      </trkpt>
      <trkpt lat="44.71464" lon="5.65188">
        <ele>1742.53</ele>
        <time>2020-10-01T11:14:13Z</time>
      </trkpt>
      <trkpt lat="44.71461" lon="5.65192">
        <ele>1741.08</ele>
        <time>2020-10-01T11:14:18Z</time>
      </trkpt>
      <trkpt lat="44.71452" lon="5.65201">
        <ele>1738.2</ele>
        <time>2020-10-01T11:14:29Z</time>
      </trkpt>
      <trkpt lat="44.7144" lon="5.65211">
        <ele>1734.84</ele>
        <time>2020-10-01T11:14:40Z</time>
      </trkpt>
      <trkpt lat="44.71439" lon="5.65212">
        <ele>1734.84</ele>
        <time>2020-10-01T11:14:41Z</time>
      </trkpt>
      <trkpt lat="44.71438" lon="5.65212">
        <ele>1734.84</ele>
        <time>2020-10-01T11:14:42Z</time>
      </trkpt>
      <trkpt lat="44.71437" lon="5.65213">
        <ele>1734.36</ele>
        <time>2020-10-01T11:14:43Z</time>
      </trkpt>
      <trkpt lat="44.71436" lon="5.65214">
        <ele>1733.88</ele>
        <time>2020-10-01T11:14:44Z</time>
      </trkpt>
      <trkpt lat="44.71435" lon="5.65215">
        <ele>1733.39</ele>
        <time>2020-10-01T11:14:45Z</time>
      </trkpt>
      <trkpt lat="44.71434" lon="5.65215">
        <ele>1733.39</ele>
        <time>2020-10-01T11:14:46Z</time>
      </trkpt>
      <trkpt lat="44.71432" lon="5.65216">
        <ele>1732.91</ele>
        <time>2020-10-01T11:14:47Z</time>
      </trkpt>
      <trkpt lat="44.71431" lon="5.65217">
        <ele>1732.43</ele>
        <time>2020-10-01T11:14:48Z</time>
      </trkpt>
      <trkpt lat="44.7143" lon="5.65217">
        <ele>1731.95</ele>
        <time>2020-10-01T11:14:49Z</time>
      </trkpt>
      <trkpt lat="44.71429" lon="5.65218">
        <ele>1731.95</ele>
        <time>2020-10-01T11:14:50Z</time>
      </trkpt>
      <trkpt lat="44.71421" lon="5.65222">
        <ele>1728.59</ele>
        <time>2020-10-01T11:14:57Z</time>
      </trkpt>
      <trkpt lat="44.71409" lon="5.6523">
        <ele>1725.22</ele>
        <time>2020-10-01T11:15:07Z</time>
      </trkpt>
      <trkpt lat="44.71398" lon="5.65236">
        <ele>1721.86</ele>
        <time>2020-10-01T11:15:17Z</time>
      </trkpt>
      <trkpt lat="44.7139" lon="5.6524">
        <ele>1718.97</ele>
        <time>2020-10-01T11:15:24Z</time>
      </trkpt>
      <trkpt lat="44.71376" lon="5.65245">
        <ele>1715.61</ele>
        <time>2020-10-01T11:15:37Z</time>
      </trkpt>
      <trkpt lat="44.71364" lon="5.65247">
        <ele>1712.73</ele>
        <time>2020-10-01T11:15:47Z</time>
      </trkpt>
      <trkpt lat="44.71355" lon="5.65247">
        <ele>1710.32</ele>
        <time>2020-10-01T11:15:55Z</time>
      </trkpt>
      <trkpt lat="44.71354" lon="5.65247">
        <ele>1710.32</ele>
        <time>2020-10-01T11:15:56Z</time>
      </trkpt>
      <trkpt lat="44.71353" lon="5.65247">
        <ele>1709.84</ele>
        <time>2020-10-01T11:15:57Z</time>
      </trkpt>
      <trkpt lat="44.71339" lon="5.65246">
        <ele>1707.44</ele>
        <time>2020-10-01T11:16:10Z</time>
      </trkpt>
      <trkpt lat="44.71335" lon="5.65247">
        <ele>1705.04</ele>
        <time>2020-10-01T11:16:20Z</time>
      </trkpt>
      <trkpt lat="44.71334" lon="5.65245">
        <ele>1705.04</ele>
        <time>2020-10-01T11:16:21Z</time>
      </trkpt>
      <trkpt lat="44.71333" lon="5.65241">
        <ele>1704.55</ele>
        <time>2020-10-01T11:16:24Z</time>
      </trkpt>
      <trkpt lat="44.71332" lon="5.6524">
        <ele>1704.07</ele>
        <time>2020-10-01T11:16:26Z</time>
      </trkpt>
      <trkpt lat="44.71316" lon="5.65238">
        <ele>1701.19</ele>
        <time>2020-10-01T11:16:43Z</time>
      </trkpt>
      <trkpt lat="44.71307" lon="5.65237">
        <ele>1697.83</ele>
        <time>2020-10-01T11:16:55Z</time>
      </trkpt>
      <trkpt lat="44.71304" lon="5.6524">
        <ele>1694.94</ele>
        <time>2020-10-01T11:17:03Z</time>
      </trkpt>
      <trkpt lat="44.71298" lon="5.65244">
        <ele>1691.58</ele>
        <time>2020-10-01T11:17:12Z</time>
      </trkpt>
      <trkpt lat="44.71295" lon="5.65251">
        <ele>1689.17</ele>
        <time>2020-10-01T11:17:19Z</time>
      </trkpt>
      <trkpt lat="44.71292" lon="5.65258">
        <ele>1685.81</ele>
        <time>2020-10-01T11:17:26Z</time>
      </trkpt>
      <trkpt lat="44.71282" lon="5.65258">
        <ele>1681.96</ele>
        <time>2020-10-01T11:17:36Z</time>
      </trkpt>
      <trkpt lat="44.71268" lon="5.65257">
        <ele>1679.08</ele>
        <time>2020-10-01T11:17:48Z</time>
      </trkpt>
      <trkpt lat="44.71267" lon="5.65257">
        <ele>1678.6</ele>
        <time>2020-10-01T11:17:49Z</time>
      </trkpt>
      <trkpt lat="44.71266" lon="5.65258">
        <ele>1678.6</ele>
        <time>2020-10-01T11:17:50Z</time>
      </trkpt>
      <trkpt lat="44.71265" lon="5.65258">
        <ele>1678.12</ele>
        <time>2020-10-01T11:17:51Z</time>
      </trkpt>
      <trkpt lat="44.71259" lon="5.65262">
        <ele>1675.72</ele>
        <time>2020-10-01T11:17:58Z</time>
      </trkpt>
      <trkpt lat="44.71256" lon="5.65267">
        <ele>1673.79</ele>
        <time>2020-10-01T11:18:03Z</time>
      </trkpt>
      <trkpt lat="44.71255" lon="5.65267">
        <ele>1673.79</ele>
        <time>2020-10-01T11:18:04Z</time>
      </trkpt>
      <trkpt lat="44.71253" lon="5.6527">
        <ele>1672.83</ele>
        <time>2020-10-01T11:18:07Z</time>
      </trkpt>
      <trkpt lat="44.71251" lon="5.65274">
        <ele>1671.39</ele>
        <time>2020-10-01T11:18:11Z</time>
      </trkpt>
      <trkpt lat="44.7125" lon="5.65275">
        <ele>1670.91</ele>
        <time>2020-10-01T11:18:12Z</time>
      </trkpt>
      <trkpt lat="44.71249" lon="5.65275">
        <ele>1670.43</ele>
        <time>2020-10-01T11:18:13Z</time>
      </trkpt>
      <trkpt lat="44.71247" lon="5.65278">
        <ele>1668.99</ele>
        <time>2020-10-01T11:18:16Z</time>
      </trkpt>
      <trkpt lat="44.71246" lon="5.65279">
        <ele>1668.99</ele>
        <time>2020-10-01T11:18:17Z</time>
      </trkpt>
      <trkpt lat="44.71247" lon="5.65283">
        <ele>1668.02</ele>
        <time>2020-10-01T11:18:20Z</time>
      </trkpt>
      <trkpt lat="44.71247" lon="5.65285">
        <ele>1667.54</ele>
        <time>2020-10-01T11:18:21Z</time>
      </trkpt>
      <trkpt lat="44.71249" lon="5.65294">
        <ele>1664.18</ele>
        <time>2020-10-01T11:18:30Z</time>
      </trkpt>
      <trkpt lat="44.71249" lon="5.65295">
        <ele>1664.18</ele>
        <time>2020-10-01T11:18:31Z</time>
      </trkpt>
      <trkpt lat="44.71245" lon="5.65307">
        <ele>1661.78</ele>
        <time>2020-10-01T11:18:46Z</time>
      </trkpt>
      <trkpt lat="44.71244" lon="5.6531">
        <ele>1661.78</ele>
        <time>2020-10-01T11:18:48Z</time>
      </trkpt>
      <trkpt lat="44.71239" lon="5.65318">
        <ele>1660.33</ele>
        <time>2020-10-01T11:18:57Z</time>
      </trkpt>
      <trkpt lat="44.71238" lon="5.65318">
        <ele>1660.33</ele>
        <time>2020-10-01T11:18:58Z</time>
      </trkpt>
      <trkpt lat="44.71236" lon="5.65322">
        <ele>1659.37</ele>
        <time>2020-10-01T11:19:11Z</time>
      </trkpt>
      <trkpt lat="44.71237" lon="5.65323">
        <ele>1659.37</ele>
        <time>2020-10-01T11:19:23Z</time>
      </trkpt>
      <trkpt lat="44.71238" lon="5.65326">
        <ele>1657.45</ele>
        <time>2020-10-01T11:20:41Z</time>
      </trkpt>
      <trkpt lat="44.71238" lon="5.65326">
        <ele>1659.37</ele>
        <time>2020-10-01T11:20:46Z</time>
      </trkpt>
      <trkpt lat="44.71237" lon="5.65326">
        <ele>1659.37</ele>
        <time>2020-10-01T11:21:39Z</time>
      </trkpt>
      <trkpt lat="44.71238" lon="5.65325">
        <ele>1659.37</ele>
        <time>2020-10-01T11:22:07Z</time>
      </trkpt>
      <trkpt lat="44.71237" lon="5.65324">
        <ele>1659.37</ele>
        <time>2020-10-01T11:22:41Z</time>
      </trkpt>
      <trkpt lat="44.71238" lon="5.65323">
        <ele>1659.37</ele>
        <time>2020-10-01T11:23:21Z</time>
      </trkpt>
      <trkpt lat="44.71238" lon="5.65323">
        <ele>1662.74</ele>
        <time>2020-10-01T11:23:49Z</time>
      </trkpt>
      <trkpt lat="44.71238" lon="5.65323">
        <ele>1662.74</ele>
        <time>2020-10-01T11:23:50Z</time>
      </trkpt>
      <trkpt lat="44.71238" lon="5.65323">
        <ele>1658.41</ele>
        <time>2020-10-01T11:24:09Z</time>
      </trkpt>
      <trkpt lat="44.71238" lon="5.65323">
        <ele>1661.78</ele>
        <time>2020-10-01T11:24:30Z</time>
      </trkpt>
      <trkpt lat="44.71236" lon="5.65323">
        <ele>1660.81</ele>
        <time>2020-10-01T11:24:48Z</time>
      </trkpt>
      <trkpt lat="44.71233" lon="5.65328">
        <ele>1660.81</ele>
        <time>2020-10-01T11:24:54Z</time>
      </trkpt>
      <trkpt lat="44.71228" lon="5.65337">
        <ele>1660.33</ele>
        <time>2020-10-01T11:25:07Z</time>
      </trkpt>
      <trkpt lat="44.71221" lon="5.65346">
        <ele>1658.89</ele>
        <time>2020-10-01T11:25:21Z</time>
      </trkpt>
      <trkpt lat="44.71217" lon="5.6535">
        <ele>1657.93</ele>
        <time>2020-10-01T11:25:27Z</time>
      </trkpt>
      <trkpt lat="44.71216" lon="5.65351">
        <ele>1657.93</ele>
        <time>2020-10-01T11:25:28Z</time>
      </trkpt>
      <trkpt lat="44.71212" lon="5.65357">
        <ele>1656.97</ele>
        <time>2020-10-01T11:25:35Z</time>
      </trkpt>
      <trkpt lat="44.71211" lon="5.65358">
        <ele>1656.97</ele>
        <time>2020-10-01T11:25:36Z</time>
      </trkpt>
      <trkpt lat="44.7121" lon="5.65359">
        <ele>1656.97</ele>
        <time>2020-10-01T11:25:37Z</time>
      </trkpt>
      <trkpt lat="44.71209" lon="5.65361">
        <ele>1656.49</ele>
        <time>2020-10-01T11:25:39Z</time>
      </trkpt>
      <trkpt lat="44.71208" lon="5.65363">
        <ele>1656.49</ele>
        <time>2020-10-01T11:25:40Z</time>
      </trkpt>
      <trkpt lat="44.71204" lon="5.65367">
        <ele>1655.53</ele>
        <time>2020-10-01T11:25:46Z</time>
      </trkpt>
      <trkpt lat="44.71202" lon="5.65369">
        <ele>1655.05</ele>
        <time>2020-10-01T11:25:49Z</time>
      </trkpt>
      <trkpt lat="44.71201" lon="5.6537">
        <ele>1655.05</ele>
        <time>2020-10-01T11:25:50Z</time>
      </trkpt>
      <trkpt lat="44.712" lon="5.65371">
        <ele>1654.57</ele>
        <time>2020-10-01T11:25:51Z</time>
      </trkpt>
      <trkpt lat="44.71199" lon="5.65372">
        <ele>1654.57</ele>
        <time>2020-10-01T11:25:52Z</time>
      </trkpt>
      <trkpt lat="44.71199" lon="5.65373">
        <ele>1654.57</ele>
        <time>2020-10-01T11:25:53Z</time>
      </trkpt>
      <trkpt lat="44.71189" lon="5.65388">
        <ele>1651.68</ele>
        <time>2020-10-01T11:26:09Z</time>
      </trkpt>
      <trkpt lat="44.71177" lon="5.65401">
        <ele>1648.8</ele>
        <time>2020-10-01T11:26:27Z</time>
      </trkpt>
      <trkpt lat="44.71167" lon="5.65414">
        <ele>1645.91</ele>
        <time>2020-10-01T11:26:41Z</time>
      </trkpt>
      <trkpt lat="44.71154" lon="5.65429">
        <ele>1644.47</ele>
        <time>2020-10-01T11:26:58Z</time>
      </trkpt>
      <trkpt lat="44.7115" lon="5.65434">
        <ele>1643.99</ele>
        <time>2020-10-01T11:27:04Z</time>
      </trkpt>
      <trkpt lat="44.71146" lon="5.65439">
        <ele>1643.51</ele>
        <time>2020-10-01T11:27:10Z</time>
      </trkpt>
      <trkpt lat="44.71133" lon="5.65458">
        <ele>1640.63</ele>
        <time>2020-10-01T11:27:28Z</time>
      </trkpt>
      <trkpt lat="44.7112" lon="5.65469">
        <ele>1637.74</ele>
        <time>2020-10-01T11:27:44Z</time>
      </trkpt>
      <trkpt lat="44.71117" lon="5.65471">
        <ele>1636.78</ele>
        <time>2020-10-01T11:27:47Z</time>
      </trkpt>
      <trkpt lat="44.71116" lon="5.65472">
        <ele>1636.78</ele>
        <time>2020-10-01T11:27:48Z</time>
      </trkpt>
      <trkpt lat="44.71115" lon="5.65473">
        <ele>1636.78</ele>
        <time>2020-10-01T11:27:49Z</time>
      </trkpt>
      <trkpt lat="44.71107" lon="5.65484">
        <ele>1634.86</ele>
        <time>2020-10-01T11:28:05Z</time>
      </trkpt>
      <trkpt lat="44.71101" lon="5.65485">
        <ele>1634.38</ele>
        <time>2020-10-01T11:28:21Z</time>
      </trkpt>
      <trkpt lat="44.71096" lon="5.65486">
        <ele>1632.94</ele>
        <time>2020-10-01T11:28:32Z</time>
      </trkpt>
      <trkpt lat="44.71087" lon="5.65489">
        <ele>1630.53</ele>
        <time>2020-10-01T11:28:44Z</time>
      </trkpt>
      <trkpt lat="44.71078" lon="5.6549">
        <ele>1627.17</ele>
        <time>2020-10-01T11:28:57Z</time>
      </trkpt>
      <trkpt lat="44.71077" lon="5.65488">
        <ele>1626.69</ele>
        <time>2020-10-01T11:29:00Z</time>
      </trkpt>
      <trkpt lat="44.71076" lon="5.65487">
        <ele>1626.69</ele>
        <time>2020-10-01T11:29:01Z</time>
      </trkpt>
      <trkpt lat="44.71075" lon="5.65488">
        <ele>1626.21</ele>
        <time>2020-10-01T11:29:02Z</time>
      </trkpt>
      <trkpt lat="44.7107" lon="5.65486">
        <ele>1624.28</ele>
        <time>2020-10-01T11:29:08Z</time>
      </trkpt>
      <trkpt lat="44.71063" lon="5.65485">
        <ele>1621.4</ele>
        <time>2020-10-01T11:29:18Z</time>
      </trkpt>
      <trkpt lat="44.71055" lon="5.65482">
        <ele>1618.52</ele>
        <time>2020-10-01T11:29:30Z</time>
      </trkpt>
      <trkpt lat="44.71053" lon="5.65483">
        <ele>1618.04</ele>
        <time>2020-10-01T11:29:32Z</time>
      </trkpt>
      <trkpt lat="44.71049" lon="5.65483">
        <ele>1616.59</ele>
        <time>2020-10-01T11:29:37Z</time>
      </trkpt>
      <trkpt lat="44.71043" lon="5.65482">
        <ele>1614.19</ele>
        <time>2020-10-01T11:29:46Z</time>
      </trkpt>
      <trkpt lat="44.71035" lon="5.6548">
        <ele>1611.31</ele>
        <time>2020-10-01T11:29:57Z</time>
      </trkpt>
      <trkpt lat="44.71029" lon="5.65476">
        <ele>1608.42</ele>
        <time>2020-10-01T11:30:07Z</time>
      </trkpt>
      <trkpt lat="44.71022" lon="5.65473">
        <ele>1605.54</ele>
        <time>2020-10-01T11:30:18Z</time>
      </trkpt>
      <trkpt lat="44.71014" lon="5.65471">
        <ele>1602.17</ele>
        <time>2020-10-01T11:30:30Z</time>
      </trkpt>
      <trkpt lat="44.71004" lon="5.65468">
        <ele>1599.29</ele>
        <time>2020-10-01T11:30:43Z</time>
      </trkpt>
      <trkpt lat="44.71002" lon="5.65468">
        <ele>1598.33</ele>
        <time>2020-10-01T11:30:46Z</time>
      </trkpt>
      <trkpt lat="44.70993" lon="5.65466">
        <ele>1594.96</ele>
        <time>2020-10-01T11:30:58Z</time>
      </trkpt>
      <trkpt lat="44.70987" lon="5.65465">
        <ele>1592.08</ele>
        <time>2020-10-01T11:31:11Z</time>
      </trkpt>
      <trkpt lat="44.70975" lon="5.65462">
        <ele>1589.2</ele>
        <time>2020-10-01T11:31:26Z</time>
      </trkpt>
      <trkpt lat="44.70968" lon="5.65459">
        <ele>1586.31</ele>
        <time>2020-10-01T11:31:37Z</time>
      </trkpt>
      <trkpt lat="44.7096" lon="5.65457">
        <ele>1582.95</ele>
        <time>2020-10-01T11:31:49Z</time>
      </trkpt>
      <trkpt lat="44.70957" lon="5.65451">
        <ele>1581.03</ele>
        <time>2020-10-01T11:32:01Z</time>
      </trkpt>
      <trkpt lat="44.70954" lon="5.65446">
        <ele>1577.18</ele>
        <time>2020-10-01T11:32:14Z</time>
      </trkpt>
      <trkpt lat="44.70955" lon="5.65445">
        <ele>1575.74</ele>
        <time>2020-10-01T11:32:17Z</time>
      </trkpt>
      <trkpt lat="44.70953" lon="5.65439">
        <ele>1576.22</ele>
        <time>2020-10-01T11:32:34Z</time>
      </trkpt>
      <trkpt lat="44.70952" lon="5.65431">
        <ele>1573.33</ele>
        <time>2020-10-01T11:32:43Z</time>
      </trkpt>
      <trkpt lat="44.7095" lon="5.65422">
        <ele>1569.97</ele>
        <time>2020-10-01T11:32:54Z</time>
      </trkpt>
      <trkpt lat="44.70944" lon="5.65413">
        <ele>1566.61</ele>
        <time>2020-10-01T11:33:06Z</time>
      </trkpt>
      <trkpt lat="44.70943" lon="5.65412">
        <ele>1565.64</ele>
        <time>2020-10-01T11:33:08Z</time>
      </trkpt>
      <trkpt lat="44.70933" lon="5.65408">
        <ele>1562.76</ele>
        <time>2020-10-01T11:33:21Z</time>
      </trkpt>
      <trkpt lat="44.70921" lon="5.65407">
        <ele>1559.4</ele>
        <time>2020-10-01T11:33:35Z</time>
      </trkpt>
      <trkpt lat="44.70911" lon="5.65397">
        <ele>1556.51</ele>
        <time>2020-10-01T11:33:51Z</time>
      </trkpt>
      <trkpt lat="44.70906" lon="5.65391">
        <ele>1554.59</ele>
        <time>2020-10-01T11:33:59Z</time>
      </trkpt>
      <trkpt lat="44.70899" lon="5.65384">
        <ele>1551.71</ele>
        <time>2020-10-01T11:34:12Z</time>
      </trkpt>
      <trkpt lat="44.7089" lon="5.65378">
        <ele>1548.34</ele>
        <time>2020-10-01T11:34:25Z</time>
      </trkpt>
      <trkpt lat="44.70891" lon="5.65368">
        <ele>1546.42</ele>
        <time>2020-10-01T11:34:39Z</time>
      </trkpt>
      <trkpt lat="44.70894" lon="5.65366">
        <ele>1545.94</ele>
        <time>2020-10-01T11:34:43Z</time>
      </trkpt>
      <trkpt lat="44.709" lon="5.65352">
        <ele>1544.5</ele>
        <time>2020-10-01T11:34:57Z</time>
      </trkpt>
      <trkpt lat="44.70908" lon="5.65342">
        <ele>1543.05</ele>
        <time>2020-10-01T11:35:13Z</time>
      </trkpt>
      <trkpt lat="44.70907" lon="5.6533">
        <ele>1540.17</ele>
        <time>2020-10-01T11:35:26Z</time>
      </trkpt>
      <trkpt lat="44.70904" lon="5.65322">
        <ele>1538.73</ele>
        <time>2020-10-01T11:35:34Z</time>
      </trkpt>
      <trkpt lat="44.70901" lon="5.65311">
        <ele>1537.29</ele>
        <time>2020-10-01T11:35:47Z</time>
      </trkpt>
      <trkpt lat="44.70901" lon="5.65307">
        <ele>1537.29</ele>
        <time>2020-10-01T11:35:50Z</time>
      </trkpt>
      <trkpt lat="44.70901" lon="5.65306">
        <ele>1537.29</ele>
        <time>2020-10-01T11:35:51Z</time>
      </trkpt>
      <trkpt lat="44.70901" lon="5.65304">
        <ele>1537.29</ele>
        <time>2020-10-01T11:35:52Z</time>
      </trkpt>
      <trkpt lat="44.70901" lon="5.65301">
        <ele>1537.29</ele>
        <time>2020-10-01T11:36:04Z</time>
      </trkpt>
      <trkpt lat="44.70902" lon="5.653">
        <ele>1537.29</ele>
        <time>2020-10-01T11:36:26Z</time>
      </trkpt>
      <trkpt lat="44.70902" lon="5.65302">
        <ele>1536.32</ele>
        <time>2020-10-01T11:36:48Z</time>
      </trkpt>
      <trkpt lat="44.70901" lon="5.653">
        <ele>1536.8</ele>
        <time>2020-10-01T11:37:12Z</time>
      </trkpt>
      <trkpt lat="44.70902" lon="5.653">
        <ele>1534.88</ele>
        <time>2020-10-01T11:37:19Z</time>
      </trkpt>
      <trkpt lat="44.70901" lon="5.65299">
        <ele>1531.04</ele>
        <time>2020-10-01T11:37:49Z</time>
      </trkpt>
      <trkpt lat="44.70901" lon="5.65299">
        <ele>1534.4</ele>
        <time>2020-10-01T11:37:51Z</time>
      </trkpt>
      <trkpt lat="44.70901" lon="5.65299">
        <ele>1538.25</ele>
        <time>2020-10-01T11:37:53Z</time>
      </trkpt>
      <trkpt lat="44.709" lon="5.65298">
        <ele>1537.29</ele>
        <time>2020-10-01T11:38:03Z</time>
      </trkpt>
      <trkpt lat="44.70902" lon="5.65299">
        <ele>1537.77</ele>
        <time>2020-10-01T11:38:38Z</time>
      </trkpt>
      <trkpt lat="44.70902" lon="5.65299">
        <ele>1536.8</ele>
        <time>2020-10-01T11:39:09Z</time>
      </trkpt>
      <trkpt lat="44.70901" lon="5.65298">
        <ele>1534.4</ele>
        <time>2020-10-01T11:39:39Z</time>
      </trkpt>
      <trkpt lat="44.70902" lon="5.65298">
        <ele>1537.29</ele>
        <time>2020-10-01T11:39:45Z</time>
      </trkpt>
      <trkpt lat="44.70902" lon="5.653">
        <ele>1536.8</ele>
        <time>2020-10-01T11:40:15Z</time>
      </trkpt>
      <trkpt lat="44.70902" lon="5.653">
        <ele>1536.8</ele>
        <time>2020-10-01T11:40:40Z</time>
      </trkpt>
      <trkpt lat="44.70902" lon="5.653">
        <ele>1536.8</ele>
        <time>2020-10-01T11:41:04Z</time>
      </trkpt>
      <trkpt lat="44.70902" lon="5.65301">
        <ele>1536.8</ele>
        <time>2020-10-01T11:41:21Z</time>
      </trkpt>
      <trkpt lat="44.70902" lon="5.653">
        <ele>1536.8</ele>
        <time>2020-10-01T11:41:40Z</time>
      </trkpt>
      <trkpt lat="44.70902" lon="5.65301">
        <ele>1536.8</ele>
        <time>2020-10-01T11:42:16Z</time>
      </trkpt>
      <trkpt lat="44.70902" lon="5.653">
        <ele>1536.8</ele>
        <time>2020-10-01T11:42:50Z</time>
      </trkpt>
      <trkpt lat="44.70902" lon="5.653">
        <ele>1536.8</ele>
        <time>2020-10-01T11:43:23Z</time>
      </trkpt>
      <trkpt lat="44.70902" lon="5.65301">
        <ele>1536.8</ele>
        <time>2020-10-01T11:43:52Z</time>
      </trkpt>
      <trkpt lat="44.70902" lon="5.653">
        <ele>1536.8</ele>
        <time>2020-10-01T11:44:22Z</time>
      </trkpt>
      <trkpt lat="44.70905" lon="5.65293">
        <ele>1536.8</ele>
        <time>2020-10-01T11:44:38Z</time>
      </trkpt>
      <trkpt lat="44.70905" lon="5.65288">
        <ele>1536.8</ele>
        <time>2020-10-01T11:44:41Z</time>
      </trkpt>
      <trkpt lat="44.709" lon="5.65274">
        <ele>1537.77</ele>
        <time>2020-10-01T11:44:56Z</time>
      </trkpt>
      <trkpt lat="44.70894" lon="5.65268">
        <ele>1538.25</ele>
        <time>2020-10-01T11:45:13Z</time>
      </trkpt>
      <trkpt lat="44.70885" lon="5.65274">
        <ele>1537.29</ele>
        <time>2020-10-01T11:45:35Z</time>
      </trkpt>
      <trkpt lat="44.70875" lon="5.6528">
        <ele>1535.36</ele>
        <time>2020-10-01T11:45:48Z</time>
      </trkpt>
      <trkpt lat="44.70873" lon="5.65281">
        <ele>1534.88</ele>
        <time>2020-10-01T11:45:50Z</time>
      </trkpt>
      <trkpt lat="44.70865" lon="5.6529">
        <ele>1532.96</ele>
        <time>2020-10-01T11:46:04Z</time>
      </trkpt>
      <trkpt lat="44.70857" lon="5.65296">
        <ele>1529.59</ele>
        <time>2020-10-01T11:46:18Z</time>
      </trkpt>
      <trkpt lat="44.70851" lon="5.65296">
        <ele>1527.67</ele>
        <time>2020-10-01T11:46:31Z</time>
      </trkpt>
      <trkpt lat="44.70842" lon="5.65297">
        <ele>1524.79</ele>
        <time>2020-10-01T11:46:47Z</time>
      </trkpt>
      <trkpt lat="44.70832" lon="5.65294">
        <ele>1521.9</ele>
        <time>2020-10-01T11:47:03Z</time>
      </trkpt>
      <trkpt lat="44.70829" lon="5.65292">
        <ele>1521.42</ele>
        <time>2020-10-01T11:47:06Z</time>
      </trkpt>
      <trkpt lat="44.70817" lon="5.65283">
        <ele>1518.06</ele>
        <time>2020-10-01T11:47:23Z</time>
      </trkpt>
      <trkpt lat="44.70807" lon="5.65277">
        <ele>1515.18</ele>
        <time>2020-10-01T11:47:35Z</time>
      </trkpt>
      <trkpt lat="44.70794" lon="5.65267">
        <ele>1512.29</ele>
        <time>2020-10-01T11:47:50Z</time>
      </trkpt>
      <trkpt lat="44.70793" lon="5.65266">
        <ele>1512.77</ele>
        <time>2020-10-01T11:47:51Z</time>
      </trkpt>
      <trkpt lat="44.70792" lon="5.65265">
        <ele>1512.77</ele>
        <time>2020-10-01T11:47:52Z</time>
      </trkpt>
      <trkpt lat="44.70787" lon="5.6526">
        <ele>1509.41</ele>
        <time>2020-10-01T11:47:59Z</time>
      </trkpt>
      <trkpt lat="44.70781" lon="5.65256">
        <ele>1506.04</ele>
        <time>2020-10-01T11:48:08Z</time>
      </trkpt>
      <trkpt lat="44.70779" lon="5.65255">
        <ele>1504.6</ele>
        <time>2020-10-01T11:48:19Z</time>
      </trkpt>
      <trkpt lat="44.70779" lon="5.65256">
        <ele>1507.97</ele>
        <time>2020-10-01T11:48:27Z</time>
      </trkpt>
      <trkpt lat="44.7077" lon="5.65252">
        <ele>1504.6</ele>
        <time>2020-10-01T11:49:02Z</time>
      </trkpt>
      <trkpt lat="44.70759" lon="5.65248">
        <ele>1501.24</ele>
        <time>2020-10-01T11:49:15Z</time>
      </trkpt>
      <trkpt lat="44.70752" lon="5.65245">
        <ele>1498.35</ele>
        <time>2020-10-01T11:49:26Z</time>
      </trkpt>
      <trkpt lat="44.70739" lon="5.65244">
        <ele>1494.99</ele>
        <time>2020-10-01T11:49:42Z</time>
      </trkpt>
      <trkpt lat="44.70728" lon="5.6525">
        <ele>1492.1</ele>
        <time>2020-10-01T11:49:55Z</time>
      </trkpt>
      <trkpt lat="44.70717" lon="5.65255">
        <ele>1487.78</ele>
        <time>2020-10-01T11:50:07Z</time>
      </trkpt>
      <trkpt lat="44.70716" lon="5.65254">
        <ele>1486.34</ele>
        <time>2020-10-01T11:50:09Z</time>
      </trkpt>
      <trkpt lat="44.70712" lon="5.65253">
        <ele>1489.7</ele>
        <time>2020-10-01T11:50:14Z</time>
      </trkpt>
      <trkpt lat="44.70704" lon="5.65252">
        <ele>1486.34</ele>
        <time>2020-10-01T11:50:22Z</time>
      </trkpt>
      <trkpt lat="44.70695" lon="5.65252">
        <ele>1482.97</ele>
        <time>2020-10-01T11:50:32Z</time>
      </trkpt>
      <trkpt lat="44.70686" lon="5.65254">
        <ele>1480.57</ele>
        <time>2020-10-01T11:50:42Z</time>
      </trkpt>
      <trkpt lat="44.70685" lon="5.65254">
        <ele>1480.09</ele>
        <time>2020-10-01T11:50:43Z</time>
      </trkpt>
      <trkpt lat="44.70675" lon="5.65254">
        <ele>1477.2</ele>
        <time>2020-10-01T11:50:53Z</time>
      </trkpt>
      <trkpt lat="44.7066" lon="5.65258">
        <ele>1473.84</ele>
        <time>2020-10-01T11:51:08Z</time>
      </trkpt>
      <trkpt lat="44.70648" lon="5.65257">
        <ele>1470.95</ele>
        <time>2020-10-01T11:51:21Z</time>
      </trkpt>
      <trkpt lat="44.70635" lon="5.65257">
        <ele>1467.59</ele>
        <time>2020-10-01T11:51:36Z</time>
      </trkpt>
      <trkpt lat="44.70623" lon="5.65259">
        <ele>1464.23</ele>
        <time>2020-10-01T11:51:51Z</time>
      </trkpt>
      <trkpt lat="44.70607" lon="5.65257">
        <ele>1461.34</ele>
        <time>2020-10-01T11:52:09Z</time>
      </trkpt>
      <trkpt lat="44.706" lon="5.65258">
        <ele>1459.42</ele>
        <time>2020-10-01T11:52:26Z</time>
      </trkpt>
      <trkpt lat="44.70589" lon="5.65259">
        <ele>1456.05</ele>
        <time>2020-10-01T11:52:44Z</time>
      </trkpt>
      <trkpt lat="44.70575" lon="5.65259">
        <ele>1452.69</ele>
        <time>2020-10-01T11:53:00Z</time>
      </trkpt>
      <trkpt lat="44.70567" lon="5.65258">
        <ele>1449.81</ele>
        <time>2020-10-01T11:53:12Z</time>
      </trkpt>
      <trkpt lat="44.70556" lon="5.65257">
        <ele>1446.44</ele>
        <time>2020-10-01T11:53:29Z</time>
      </trkpt>
      <trkpt lat="44.70547" lon="5.65255">
        <ele>1443.08</ele>
        <time>2020-10-01T11:53:42Z</time>
      </trkpt>
      <trkpt lat="44.70536" lon="5.65254">
        <ele>1440.67</ele>
        <time>2020-10-01T11:53:57Z</time>
      </trkpt>
      <trkpt lat="44.70531" lon="5.65248">
        <ele>1438.75</ele>
        <time>2020-10-01T11:54:07Z</time>
      </trkpt>
      <trkpt lat="44.70521" lon="5.65239">
        <ele>1435.39</ele>
        <time>2020-10-01T11:54:19Z</time>
      </trkpt>
      <trkpt lat="44.70515" lon="5.65228">
        <ele>1432.5</ele>
        <time>2020-10-01T11:54:30Z</time>
      </trkpt>
      <trkpt lat="44.70511" lon="5.65213">
        <ele>1429.62</ele>
        <time>2020-10-01T11:54:41Z</time>
      </trkpt>
      <trkpt lat="44.70508" lon="5.65197">
        <ele>1426.25</ele>
        <time>2020-10-01T11:54:54Z</time>
      </trkpt>
      <trkpt lat="44.70507" lon="5.65186">
        <ele>1423.85</ele>
        <time>2020-10-01T11:55:09Z</time>
      </trkpt>
      <trkpt lat="44.70505" lon="5.65179">
        <ele>1421.93</ele>
        <time>2020-10-01T11:55:30Z</time>
      </trkpt>
      <trkpt lat="44.70505" lon="5.65177">
        <ele>1421.93</ele>
        <time>2020-10-01T11:55:47Z</time>
      </trkpt>
      <trkpt lat="44.70504" lon="5.65171">
        <ele>1422.41</ele>
        <time>2020-10-01T11:55:53Z</time>
      </trkpt>
      <trkpt lat="44.70504" lon="5.65169">
        <ele>1421.93</ele>
        <time>2020-10-01T11:55:54Z</time>
      </trkpt>
      <trkpt lat="44.70503" lon="5.65168">
        <ele>1421.93</ele>
        <time>2020-10-01T11:55:55Z</time>
      </trkpt>
      <trkpt lat="44.70498" lon="5.65149">
        <ele>1418.56</ele>
        <time>2020-10-01T11:56:10Z</time>
      </trkpt>
      <trkpt lat="44.70494" lon="5.65134">
        <ele>1415.68</ele>
        <time>2020-10-01T11:56:21Z</time>
      </trkpt>
      <trkpt lat="44.70488" lon="5.65122">
        <ele>1412.31</ele>
        <time>2020-10-01T11:56:32Z</time>
      </trkpt>
      <trkpt lat="44.70485" lon="5.65115">
        <ele>1409.43</ele>
        <time>2020-10-01T11:56:45Z</time>
      </trkpt>
      <trkpt lat="44.70485" lon="5.65113">
        <ele>1407.99</ele>
        <time>2020-10-01T11:57:05Z</time>
      </trkpt>
      <trkpt lat="44.70478" lon="5.65106">
        <ele>1407.03</ele>
        <time>2020-10-01T11:57:20Z</time>
      </trkpt>
      <trkpt lat="44.70469" lon="5.65097">
        <ele>1403.66</ele>
        <time>2020-10-01T11:57:35Z</time>
      </trkpt>
      <trkpt lat="44.70461" lon="5.65084">
        <ele>1400.78</ele>
        <time>2020-10-01T11:57:50Z</time>
      </trkpt>
      <trkpt lat="44.70455" lon="5.65071">
        <ele>1397.41</ele>
        <time>2020-10-01T11:58:05Z</time>
      </trkpt>
      <trkpt lat="44.70451" lon="5.65056">
        <ele>1394.53</ele>
        <time>2020-10-01T11:58:22Z</time>
      </trkpt>
      <trkpt lat="44.70446" lon="5.65045">
        <ele>1391.17</ele>
        <time>2020-10-01T11:58:36Z</time>
      </trkpt>
      <trkpt lat="44.70443" lon="5.6504">
        <ele>1387.8</ele>
        <time>2020-10-01T11:58:51Z</time>
      </trkpt>
      <trkpt lat="44.70441" lon="5.65036">
        <ele>1386.84</ele>
        <time>2020-10-01T11:59:24Z</time>
      </trkpt>
      <trkpt lat="44.70442" lon="5.65037">
        <ele>1387.32</ele>
        <time>2020-10-01T11:59:49Z</time>
      </trkpt>
      <trkpt lat="44.70439" lon="5.65032">
        <ele>1387.32</ele>
        <time>2020-10-01T12:00:35Z</time>
      </trkpt>
      <trkpt lat="44.70443" lon="5.65031">
        <ele>1387.8</ele>
        <time>2020-10-01T12:01:10Z</time>
      </trkpt>
      <trkpt lat="44.70443" lon="5.65031">
        <ele>1387.8</ele>
        <time>2020-10-01T12:01:11Z</time>
      </trkpt>
      <trkpt lat="44.7044" lon="5.65031">
        <ele>1387.8</ele>
        <time>2020-10-01T12:01:46Z</time>
      </trkpt>
      <trkpt lat="44.70439" lon="5.65032">
        <ele>1387.32</ele>
        <time>2020-10-01T12:02:05Z</time>
      </trkpt>
      <trkpt lat="44.7044" lon="5.65035">
        <ele>1387.32</ele>
        <time>2020-10-01T12:02:22Z</time>
      </trkpt>
      <trkpt lat="44.70441" lon="5.65033">
        <ele>1387.32</ele>
        <time>2020-10-01T12:02:40Z</time>
      </trkpt>
      <trkpt lat="44.7044" lon="5.65036">
        <ele>1387.32</ele>
        <time>2020-10-01T12:02:54Z</time>
      </trkpt>
      <trkpt lat="44.7044" lon="5.65034">
        <ele>1387.32</ele>
        <time>2020-10-01T12:03:12Z</time>
      </trkpt>
      <trkpt lat="44.70441" lon="5.65031">
        <ele>1387.32</ele>
        <time>2020-10-01T12:03:28Z</time>
      </trkpt>
      <trkpt lat="44.70441" lon="5.65031">
        <ele>1387.32</ele>
        <time>2020-10-01T12:04:04Z</time>
      </trkpt>
      <trkpt lat="44.70441" lon="5.65032">
        <ele>1387.32</ele>
        <time>2020-10-01T12:04:33Z</time>
      </trkpt>
      <trkpt lat="44.70441" lon="5.65029">
        <ele>1387.32</ele>
        <time>2020-10-01T12:04:52Z</time>
      </trkpt>
      <trkpt lat="44.70441" lon="5.65028">
        <ele>1387.32</ele>
        <time>2020-10-01T12:04:53Z</time>
      </trkpt>
      <trkpt lat="44.70441" lon="5.65026">
        <ele>1387.32</ele>
        <time>2020-10-01T12:04:54Z</time>
      </trkpt>
      <trkpt lat="44.7044" lon="5.65025">
        <ele>1387.32</ele>
        <time>2020-10-01T12:04:55Z</time>
      </trkpt>
      <trkpt lat="44.70433" lon="5.65025">
        <ele>1386.36</ele>
        <time>2020-10-01T12:05:09Z</time>
      </trkpt>
      <trkpt lat="44.7043" lon="5.65021">
        <ele>1385.4</ele>
        <time>2020-10-01T12:05:13Z</time>
      </trkpt>
      <trkpt lat="44.70429" lon="5.65019">
        <ele>1384.44</ele>
        <time>2020-10-01T12:05:15Z</time>
      </trkpt>
      <trkpt lat="44.70425" lon="5.65015">
        <ele>1382.99</ele>
        <time>2020-10-01T12:05:20Z</time>
      </trkpt>
      <trkpt lat="44.70421" lon="5.6501">
        <ele>1381.07</ele>
        <time>2020-10-01T12:05:26Z</time>
      </trkpt>
      <trkpt lat="44.70415" lon="5.64998">
        <ele>1378.19</ele>
        <time>2020-10-01T12:05:37Z</time>
      </trkpt>
      <trkpt lat="44.70412" lon="5.64995">
        <ele>1376.75</ele>
        <time>2020-10-01T12:05:41Z</time>
      </trkpt>
      <trkpt lat="44.70412" lon="5.64994">
        <ele>1376.26</ele>
        <time>2020-10-01T12:05:42Z</time>
      </trkpt>
      <trkpt lat="44.70411" lon="5.64993">
        <ele>1376.26</ele>
        <time>2020-10-01T12:05:43Z</time>
      </trkpt>
      <trkpt lat="44.70404" lon="5.64981">
        <ele>1372.9</ele>
        <time>2020-10-01T12:05:55Z</time>
      </trkpt>
      <trkpt lat="44.70399" lon="5.64972">
        <ele>1370.98</ele>
        <time>2020-10-01T12:06:04Z</time>
      </trkpt>
      <trkpt lat="44.70397" lon="5.64968">
        <ele>1370.02</ele>
        <time>2020-10-01T12:06:07Z</time>
      </trkpt>
      <trkpt lat="44.70396" lon="5.64967">
        <ele>1370.02</ele>
        <time>2020-10-01T12:06:08Z</time>
      </trkpt>
      <trkpt lat="44.70389" lon="5.64956">
        <ele>1366.17</ele>
        <time>2020-10-01T12:06:18Z</time>
      </trkpt>
      <trkpt lat="44.70386" lon="5.64937">
        <ele>1363.29</ele>
        <time>2020-10-01T12:06:32Z</time>
      </trkpt>
      <trkpt lat="44.70384" lon="5.64932">
        <ele>1362.33</ele>
        <time>2020-10-01T12:06:36Z</time>
      </trkpt>
      <trkpt lat="44.7038" lon="5.6492">
        <ele>1359.44</ele>
        <time>2020-10-01T12:06:51Z</time>
      </trkpt>
      <trkpt lat="44.70379" lon="5.64912">
        <ele>1358.48</ele>
        <time>2020-10-01T12:06:59Z</time>
      </trkpt>
      <trkpt lat="44.70378" lon="5.64911">
        <ele>1358</ele>
        <time>2020-10-01T12:07:00Z</time>
      </trkpt>
      <trkpt lat="44.70372" lon="5.64898">
        <ele>1355.12</ele>
        <time>2020-10-01T12:07:11Z</time>
      </trkpt>
      <trkpt lat="44.70372" lon="5.64896">
        <ele>1354.63</ele>
        <time>2020-10-01T12:07:12Z</time>
      </trkpt>
      <trkpt lat="44.70372" lon="5.64895">
        <ele>1354.63</ele>
        <time>2020-10-01T12:07:13Z</time>
      </trkpt>
      <trkpt lat="44.70371" lon="5.64893">
        <ele>1354.63</ele>
        <time>2020-10-01T12:07:14Z</time>
      </trkpt>
      <trkpt lat="44.70371" lon="5.64892">
        <ele>1354.15</ele>
        <time>2020-10-01T12:07:15Z</time>
      </trkpt>
      <trkpt lat="44.7037" lon="5.64891">
        <ele>1354.15</ele>
        <time>2020-10-01T12:07:16Z</time>
      </trkpt>
      <trkpt lat="44.70369" lon="5.64891">
        <ele>1353.67</ele>
        <time>2020-10-01T12:07:17Z</time>
      </trkpt>
      <trkpt lat="44.70368" lon="5.64889">
        <ele>1353.19</ele>
        <time>2020-10-01T12:07:19Z</time>
      </trkpt>
      <trkpt lat="44.70367" lon="5.64879">
        <ele>1350.31</ele>
        <time>2020-10-01T12:07:27Z</time>
      </trkpt>
      <trkpt lat="44.70366" lon="5.64875">
        <ele>1347.91</ele>
        <time>2020-10-01T12:07:49Z</time>
      </trkpt>
      <trkpt lat="44.70359" lon="5.6486">
        <ele>1345.02</ele>
        <time>2020-10-01T12:08:07Z</time>
      </trkpt>
      <trkpt lat="44.70355" lon="5.64858">
        <ele>1343.1</ele>
        <time>2020-10-01T12:08:14Z</time>
      </trkpt>
      <trkpt lat="44.70354" lon="5.64859">
        <ele>1343.1</ele>
        <time>2020-10-01T12:08:15Z</time>
      </trkpt>
      <trkpt lat="44.70352" lon="5.64859">
        <ele>1341.66</ele>
        <time>2020-10-01T12:08:31Z</time>
      </trkpt>
      <trkpt lat="44.70353" lon="5.64861">
        <ele>1341.18</ele>
        <time>2020-10-01T12:08:55Z</time>
      </trkpt>
      <trkpt lat="44.70354" lon="5.64861">
        <ele>1341.66</ele>
        <time>2020-10-01T12:09:14Z</time>
      </trkpt>
      <trkpt lat="44.7035" lon="5.64858">
        <ele>1341.18</ele>
        <time>2020-10-01T12:09:26Z</time>
      </trkpt>
      <trkpt lat="44.70349" lon="5.64857">
        <ele>1341.18</ele>
        <time>2020-10-01T12:09:27Z</time>
      </trkpt>
      <trkpt lat="44.70348" lon="5.64856">
        <ele>1341.18</ele>
        <time>2020-10-01T12:09:28Z</time>
      </trkpt>
      <trkpt lat="44.70346" lon="5.64855">
        <ele>1341.18</ele>
        <time>2020-10-01T12:09:29Z</time>
      </trkpt>
      <trkpt lat="44.70345" lon="5.64855">
        <ele>1341.18</ele>
        <time>2020-10-01T12:09:30Z</time>
      </trkpt>
      <trkpt lat="44.70344" lon="5.64854">
        <ele>1340.7</ele>
        <time>2020-10-01T12:09:31Z</time>
      </trkpt>
      <trkpt lat="44.70343" lon="5.64853">
        <ele>1340.7</ele>
        <time>2020-10-01T12:09:32Z</time>
      </trkpt>
      <trkpt lat="44.70342" lon="5.64852">
        <ele>1340.22</ele>
        <time>2020-10-01T12:09:33Z</time>
      </trkpt>
      <trkpt lat="44.70341" lon="5.6485">
        <ele>1340.22</ele>
        <time>2020-10-01T12:09:34Z</time>
      </trkpt>
      <trkpt lat="44.7034" lon="5.64849">
        <ele>1339.73</ele>
        <time>2020-10-01T12:09:35Z</time>
      </trkpt>
      <trkpt lat="44.70329" lon="5.6484">
        <ele>1336.85</ele>
        <time>2020-10-01T12:09:45Z</time>
      </trkpt>
      <trkpt lat="44.70326" lon="5.6484">
        <ele>1336.37</ele>
        <time>2020-10-01T12:09:47Z</time>
      </trkpt>
      <trkpt lat="44.70321" lon="5.64833">
        <ele>1334.93</ele>
        <time>2020-10-01T12:09:52Z</time>
      </trkpt>
      <trkpt lat="44.7031" lon="5.64821">
        <ele>1331.56</ele>
        <time>2020-10-01T12:10:03Z</time>
      </trkpt>
      <trkpt lat="44.70293" lon="5.64802">
        <ele>1328.68</ele>
        <time>2020-10-01T12:10:18Z</time>
      </trkpt>
      <trkpt lat="44.7028" lon="5.64791">
        <ele>1325.8</ele>
        <time>2020-10-01T12:10:29Z</time>
      </trkpt>
      <trkpt lat="44.70269" lon="5.6478">
        <ele>1323.39</ele>
        <time>2020-10-01T12:10:46Z</time>
      </trkpt>
      <trkpt lat="44.7027" lon="5.6478">
        <ele>1322.91</ele>
        <time>2020-10-01T12:11:20Z</time>
      </trkpt>
      <trkpt lat="44.7027" lon="5.6478">
        <ele>1322.43</ele>
        <time>2020-10-01T12:11:46Z</time>
      </trkpt>
      <trkpt lat="44.70269" lon="5.64779">
        <ele>1322.43</ele>
        <time>2020-10-01T12:11:49Z</time>
      </trkpt>
      <trkpt lat="44.70267" lon="5.64778">
        <ele>1322.43</ele>
        <time>2020-10-01T12:11:50Z</time>
      </trkpt>
      <trkpt lat="44.70266" lon="5.64777">
        <ele>1322.43</ele>
        <time>2020-10-01T12:11:51Z</time>
      </trkpt>
      <trkpt lat="44.70264" lon="5.64776">
        <ele>1322.43</ele>
        <time>2020-10-01T12:11:52Z</time>
      </trkpt>
      <trkpt lat="44.70263" lon="5.64775">
        <ele>1322.43</ele>
        <time>2020-10-01T12:11:53Z</time>
      </trkpt>
      <trkpt lat="44.7026" lon="5.64773">
        <ele>1321.95</ele>
        <time>2020-10-01T12:11:56Z</time>
      </trkpt>
      <trkpt lat="44.70259" lon="5.64772">
        <ele>1321.95</ele>
        <time>2020-10-01T12:11:57Z</time>
      </trkpt>
      <trkpt lat="44.70258" lon="5.6477">
        <ele>1321.47</ele>
        <time>2020-10-01T12:11:58Z</time>
      </trkpt>
      <trkpt lat="44.70249" lon="5.64749">
        <ele>1320.51</ele>
        <time>2020-10-01T12:12:13Z</time>
      </trkpt>
      <trkpt lat="44.70241" lon="5.6473">
        <ele>1318.59</ele>
        <time>2020-10-01T12:12:28Z</time>
      </trkpt>
      <trkpt lat="44.70233" lon="5.64711">
        <ele>1316.18</ele>
        <time>2020-10-01T12:12:42Z</time>
      </trkpt>
      <trkpt lat="44.70232" lon="5.64705">
        <ele>1315.22</ele>
        <time>2020-10-01T12:12:46Z</time>
      </trkpt>
      <trkpt lat="44.70228" lon="5.64683">
        <ele>1312.82</ele>
        <time>2020-10-01T12:13:01Z</time>
      </trkpt>
      <trkpt lat="44.70228" lon="5.64681">
        <ele>1312.82</ele>
        <time>2020-10-01T12:13:02Z</time>
      </trkpt>
      <trkpt lat="44.70228" lon="5.6468">
        <ele>1312.82</ele>
        <time>2020-10-01T12:13:03Z</time>
      </trkpt>
      <trkpt lat="44.70228" lon="5.64678">
        <ele>1312.82</ele>
        <time>2020-10-01T12:13:04Z</time>
      </trkpt>
      <trkpt lat="44.70228" lon="5.64677">
        <ele>1312.34</ele>
        <time>2020-10-01T12:13:05Z</time>
      </trkpt>
      <trkpt lat="44.70228" lon="5.64675">
        <ele>1312.34</ele>
        <time>2020-10-01T12:13:06Z</time>
      </trkpt>
      <trkpt lat="44.70231" lon="5.64654">
        <ele>1308.49</ele>
        <time>2020-10-01T12:13:20Z</time>
      </trkpt>
      <trkpt lat="44.70222" lon="5.64631">
        <ele>1305.61</ele>
        <time>2020-10-01T12:13:38Z</time>
      </trkpt>
      <trkpt lat="44.7022" lon="5.64629">
        <ele>1304.17</ele>
        <time>2020-10-01T12:13:40Z</time>
      </trkpt>
      <trkpt lat="44.70218" lon="5.64625">
        <ele>1302.24</ele>
        <time>2020-10-01T12:13:44Z</time>
      </trkpt>
      <trkpt lat="44.70211" lon="5.6461">
        <ele>1302.24</ele>
        <time>2020-10-01T12:13:57Z</time>
      </trkpt>
      <trkpt lat="44.70211" lon="5.64609">
        <ele>1306.57</ele>
        <time>2020-10-01T12:14:00Z</time>
      </trkpt>
      <trkpt lat="44.7021" lon="5.64606">
        <ele>1308.97</ele>
        <time>2020-10-01T12:14:03Z</time>
      </trkpt>
      <trkpt lat="44.7021" lon="5.64605">
        <ele>1308.97</ele>
        <time>2020-10-01T12:14:04Z</time>
      </trkpt>
      <trkpt lat="44.70209" lon="5.64603">
        <ele>1308.49</ele>
        <time>2020-10-01T12:14:05Z</time>
      </trkpt>
      <trkpt lat="44.70208" lon="5.64597">
        <ele>1305.61</ele>
        <time>2020-10-01T12:14:10Z</time>
      </trkpt>
      <trkpt lat="44.70206" lon="5.64593">
        <ele>1304.17</ele>
        <time>2020-10-01T12:14:13Z</time>
      </trkpt>
      <trkpt lat="44.70198" lon="5.64564">
        <ele>1301.76</ele>
        <time>2020-10-01T12:14:32Z</time>
      </trkpt>
      <trkpt lat="44.70193" lon="5.64549">
        <ele>1300.8</ele>
        <time>2020-10-01T12:14:48Z</time>
      </trkpt>
      <trkpt lat="44.70187" lon="5.64533">
        <ele>1299.84</ele>
        <time>2020-10-01T12:15:04Z</time>
      </trkpt>
      <trkpt lat="44.70184" lon="5.64516">
        <ele>1298.4</ele>
        <time>2020-10-01T12:15:18Z</time>
      </trkpt>
      <trkpt lat="44.70184" lon="5.64518">
        <ele>1297.92</ele>
        <time>2020-10-01T12:15:42Z</time>
      </trkpt>
      <trkpt lat="44.70186" lon="5.64518">
        <ele>1297.44</ele>
        <time>2020-10-01T12:15:54Z</time>
      </trkpt>
      <trkpt lat="44.70186" lon="5.64518">
        <ele>1298.4</ele>
        <time>2020-10-01T12:16:17Z</time>
      </trkpt>
      <trkpt lat="44.70185" lon="5.64515">
        <ele>1298.88</ele>
        <time>2020-10-01T12:16:48Z</time>
      </trkpt>
      <trkpt lat="44.70182" lon="5.64506">
        <ele>1298.88</ele>
        <time>2020-10-01T12:16:59Z</time>
      </trkpt>
      <trkpt lat="44.70181" lon="5.645">
        <ele>1297.92</ele>
        <time>2020-10-01T12:17:05Z</time>
      </trkpt>
      <trkpt lat="44.70179" lon="5.64492">
        <ele>1296.96</ele>
        <time>2020-10-01T12:17:12Z</time>
      </trkpt>
      <trkpt lat="44.70178" lon="5.6449">
        <ele>1296.96</ele>
        <time>2020-10-01T12:17:13Z</time>
      </trkpt>
      <trkpt lat="44.70169" lon="5.64468">
        <ele>1295.51</ele>
        <time>2020-10-01T12:17:31Z</time>
      </trkpt>
      <trkpt lat="44.70168" lon="5.64466">
        <ele>1295.03</ele>
        <time>2020-10-01T12:17:33Z</time>
      </trkpt>
      <trkpt lat="44.70167" lon="5.64464">
        <ele>1295.03</ele>
        <time>2020-10-01T12:17:34Z</time>
      </trkpt>
      <trkpt lat="44.70166" lon="5.64461">
        <ele>1295.03</ele>
        <time>2020-10-01T12:17:36Z</time>
      </trkpt>
      <trkpt lat="44.70166" lon="5.6446">
        <ele>1295.03</ele>
        <time>2020-10-01T12:17:37Z</time>
      </trkpt>
      <trkpt lat="44.70166" lon="5.64458">
        <ele>1295.03</ele>
        <time>2020-10-01T12:17:38Z</time>
      </trkpt>
      <trkpt lat="44.70165" lon="5.64456">
        <ele>1293.59</ele>
        <time>2020-10-01T12:17:52Z</time>
      </trkpt>
      <trkpt lat="44.70165" lon="5.64457">
        <ele>1293.59</ele>
        <time>2020-10-01T12:18:12Z</time>
      </trkpt>
      <trkpt lat="44.70165" lon="5.64456">
        <ele>1294.07</ele>
        <time>2020-10-01T12:18:33Z</time>
      </trkpt>
      <trkpt lat="44.70163" lon="5.64452">
        <ele>1294.07</ele>
        <time>2020-10-01T12:18:37Z</time>
      </trkpt>
      <trkpt lat="44.70159" lon="5.64446">
        <ele>1293.11</ele>
        <time>2020-10-01T12:18:51Z</time>
      </trkpt>
      <trkpt lat="44.70159" lon="5.64445">
        <ele>1293.11</ele>
        <time>2020-10-01T12:18:58Z</time>
      </trkpt>
      <trkpt lat="44.70153" lon="5.64444">
        <ele>1292.15</ele>
        <time>2020-10-01T12:19:12Z</time>
      </trkpt>
      <trkpt lat="44.70153" lon="5.64449">
        <ele>1291.67</ele>
        <time>2020-10-01T12:19:25Z</time>
      </trkpt>
      <trkpt lat="44.70153" lon="5.64449">
        <ele>1291.19</ele>
        <time>2020-10-01T12:19:42Z</time>
      </trkpt>
      <trkpt lat="44.70153" lon="5.6445">
        <ele>1291.19</ele>
        <time>2020-10-01T12:19:55Z</time>
      </trkpt>
      <trkpt lat="44.70153" lon="5.64445">
        <ele>1292.63</ele>
        <time>2020-10-01T12:20:14Z</time>
      </trkpt>
      <trkpt lat="44.70156" lon="5.64441">
        <ele>1292.15</ele>
        <time>2020-10-01T12:20:27Z</time>
      </trkpt>
      <trkpt lat="44.70157" lon="5.64439">
        <ele>1292.15</ele>
        <time>2020-10-01T12:20:29Z</time>
      </trkpt>
      <trkpt lat="44.70155" lon="5.64431">
        <ele>1292.63</ele>
        <time>2020-10-01T12:20:39Z</time>
      </trkpt>
      <trkpt lat="44.70149" lon="5.64418">
        <ele>1292.15</ele>
        <time>2020-10-01T12:20:52Z</time>
      </trkpt>
      <trkpt lat="44.70148" lon="5.64417">
        <ele>1292.15</ele>
        <time>2020-10-01T12:20:53Z</time>
      </trkpt>
      <trkpt lat="44.70144" lon="5.64409">
        <ele>1291.19</ele>
        <time>2020-10-01T12:21:00Z</time>
      </trkpt>
      <trkpt lat="44.70144" lon="5.64408">
        <ele>1291.19</ele>
        <time>2020-10-01T12:21:01Z</time>
      </trkpt>
      <trkpt lat="44.70143" lon="5.64406">
        <ele>1291.19</ele>
        <time>2020-10-01T12:21:02Z</time>
      </trkpt>
      <trkpt lat="44.70143" lon="5.64405">
        <ele>1291.19</ele>
        <time>2020-10-01T12:21:03Z</time>
      </trkpt>
      <trkpt lat="44.70142" lon="5.64404">
        <ele>1290.71</ele>
        <time>2020-10-01T12:21:04Z</time>
      </trkpt>
      <trkpt lat="44.70142" lon="5.64402">
        <ele>1290.71</ele>
        <time>2020-10-01T12:21:05Z</time>
      </trkpt>
      <trkpt lat="44.7014" lon="5.64394">
        <ele>1288.78</ele>
        <time>2020-10-01T12:21:18Z</time>
      </trkpt>
      <trkpt lat="44.70139" lon="5.6439">
        <ele>1288.3</ele>
        <time>2020-10-01T12:21:27Z</time>
      </trkpt>
      <trkpt lat="44.70136" lon="5.64383">
        <ele>1287.82</ele>
        <time>2020-10-01T12:21:34Z</time>
      </trkpt>
      <trkpt lat="44.70133" lon="5.64371">
        <ele>1286.38</ele>
        <time>2020-10-01T12:21:51Z</time>
      </trkpt>
      <trkpt lat="44.70133" lon="5.64372">
        <ele>1285.42</ele>
        <time>2020-10-01T12:22:22Z</time>
      </trkpt>
      <trkpt lat="44.70128" lon="5.6436">
        <ele>1285.42</ele>
        <time>2020-10-01T12:22:41Z</time>
      </trkpt>
      <trkpt lat="44.70121" lon="5.64341">
        <ele>1283.5</ele>
        <time>2020-10-01T12:22:58Z</time>
      </trkpt>
      <trkpt lat="44.70116" lon="5.64327">
        <ele>1281.57</ele>
        <time>2020-10-01T12:23:12Z</time>
      </trkpt>
      <trkpt lat="44.70112" lon="5.64309">
        <ele>1280.13</ele>
        <time>2020-10-01T12:23:28Z</time>
      </trkpt>
      <trkpt lat="44.70111" lon="5.64304">
        <ele>1280.13</ele>
        <time>2020-10-01T12:23:32Z</time>
      </trkpt>
      <trkpt lat="44.7011" lon="5.64303">
        <ele>1280.13</ele>
        <time>2020-10-01T12:23:33Z</time>
      </trkpt>
      <trkpt lat="44.70101" lon="5.64294">
        <ele>1278.21</ele>
        <time>2020-10-01T12:23:46Z</time>
      </trkpt>
      <trkpt lat="44.70096" lon="5.64289">
        <ele>1276.77</ele>
        <time>2020-10-01T12:23:53Z</time>
      </trkpt>
      <trkpt lat="44.70084" lon="5.64279">
        <ele>1273.88</ele>
        <time>2020-10-01T12:24:10Z</time>
      </trkpt>
      <trkpt lat="44.70073" lon="5.64273">
        <ele>1270.52</ele>
        <time>2020-10-01T12:24:25Z</time>
      </trkpt>
      <trkpt lat="44.70067" lon="5.64269">
        <ele>1269.08</ele>
        <time>2020-10-01T12:24:36Z</time>
      </trkpt>
      <trkpt lat="44.70054" lon="5.6426">
        <ele>1266.19</ele>
        <time>2020-10-01T12:24:53Z</time>
      </trkpt>
      <trkpt lat="44.70049" lon="5.64256">
        <ele>1263.79</ele>
        <time>2020-10-01T12:25:09Z</time>
      </trkpt>
      <trkpt lat="44.7004" lon="5.64249">
        <ele>1261.87</ele>
        <time>2020-10-01T12:25:23Z</time>
      </trkpt>
      <trkpt lat="44.70039" lon="5.64248">
        <ele>1261.39</ele>
        <time>2020-10-01T12:25:24Z</time>
      </trkpt>
      <trkpt lat="44.70029" lon="5.64241">
        <ele>1258.02</ele>
        <time>2020-10-01T12:25:37Z</time>
      </trkpt>
      <trkpt lat="44.70026" lon="5.64238">
        <ele>1256.58</ele>
        <time>2020-10-01T12:25:50Z</time>
      </trkpt>
      <trkpt lat="44.70024" lon="5.64236">
        <ele>1256.58</ele>
        <time>2020-10-01T12:25:53Z</time>
      </trkpt>
      <trkpt lat="44.70022" lon="5.64235">
        <ele>1256.58</ele>
        <time>2020-10-01T12:25:55Z</time>
      </trkpt>
      <trkpt lat="44.70021" lon="5.64234">
        <ele>1256.1</ele>
        <time>2020-10-01T12:25:56Z</time>
      </trkpt>
      <trkpt lat="44.7002" lon="5.64235">
        <ele>1256.1</ele>
        <time>2020-10-01T12:25:57Z</time>
      </trkpt>
      <trkpt lat="44.70019" lon="5.64235">
        <ele>1255.62</ele>
        <time>2020-10-01T12:25:58Z</time>
      </trkpt>
      <trkpt lat="44.70018" lon="5.64235">
        <ele>1255.62</ele>
        <time>2020-10-01T12:25:59Z</time>
      </trkpt>
      <trkpt lat="44.70017" lon="5.64235">
        <ele>1255.62</ele>
        <time>2020-10-01T12:26:00Z</time>
      </trkpt>
      <trkpt lat="44.70016" lon="5.64234">
        <ele>1255.62</ele>
        <time>2020-10-01T12:26:01Z</time>
      </trkpt>
      <trkpt lat="44.70014" lon="5.6423">
        <ele>1254.66</ele>
        <time>2020-10-01T12:26:06Z</time>
      </trkpt>
      <trkpt lat="44.70014" lon="5.64229">
        <ele>1254.66</ele>
        <time>2020-10-01T12:26:07Z</time>
      </trkpt>
      <trkpt lat="44.70013" lon="5.64227">
        <ele>1254.66</ele>
        <time>2020-10-01T12:26:08Z</time>
      </trkpt>
      <trkpt lat="44.70004" lon="5.64211">
        <ele>1253.22</ele>
        <time>2020-10-01T12:26:24Z</time>
      </trkpt>
      <trkpt lat="44.70003" lon="5.64207">
        <ele>1253.22</ele>
        <time>2020-10-01T12:26:27Z</time>
      </trkpt>
      <trkpt lat="44.69996" lon="5.64202">
        <ele>1252.25</ele>
        <time>2020-10-01T12:26:41Z</time>
      </trkpt>
      <trkpt lat="44.69997" lon="5.64202">
        <ele>1251.29</ele>
        <time>2020-10-01T12:27:07Z</time>
      </trkpt>
      <trkpt lat="44.69996" lon="5.64202">
        <ele>1250.81</ele>
        <time>2020-10-01T12:27:27Z</time>
      </trkpt>
      <trkpt lat="44.69996" lon="5.64202">
        <ele>1250.81</ele>
        <time>2020-10-01T12:27:42Z</time>
      </trkpt>
      <trkpt lat="44.69994" lon="5.64202">
        <ele>1250.81</ele>
        <time>2020-10-01T12:28:14Z</time>
      </trkpt>
      <trkpt lat="44.69994" lon="5.64202">
        <ele>1250.81</ele>
        <time>2020-10-01T12:28:34Z</time>
      </trkpt>
      <trkpt lat="44.69994" lon="5.64202">
        <ele>1250.81</ele>
        <time>2020-10-01T12:29:08Z</time>
      </trkpt>
      <trkpt lat="44.69993" lon="5.64202">
        <ele>1250.81</ele>
        <time>2020-10-01T12:29:40Z</time>
      </trkpt>
      <trkpt lat="44.69993" lon="5.64202">
        <ele>1250.81</ele>
        <time>2020-10-01T12:30:04Z</time>
      </trkpt>
      <trkpt lat="44.69992" lon="5.64202">
        <ele>1250.81</ele>
        <time>2020-10-01T12:30:33Z</time>
      </trkpt>
      <trkpt lat="44.69992" lon="5.64201">
        <ele>1250.81</ele>
        <time>2020-10-01T12:31:20Z</time>
      </trkpt>
      <trkpt lat="44.69993" lon="5.64199">
        <ele>1250.81</ele>
        <time>2020-10-01T12:31:41Z</time>
      </trkpt>
      <trkpt lat="44.69986" lon="5.64197">
        <ele>1250.81</ele>
        <time>2020-10-01T12:32:05Z</time>
      </trkpt>
      <trkpt lat="44.69978" lon="5.64191">
        <ele>1250.81</ele>
        <time>2020-10-01T12:32:17Z</time>
      </trkpt>
      <trkpt lat="44.69977" lon="5.64191">
        <ele>1250.33</ele>
        <time>2020-10-01T12:32:18Z</time>
      </trkpt>
      <trkpt lat="44.69974" lon="5.64188">
        <ele>1248.89</ele>
        <time>2020-10-01T12:32:23Z</time>
      </trkpt>
      <trkpt lat="44.69968" lon="5.64183">
        <ele>1247.45</ele>
        <time>2020-10-01T12:32:31Z</time>
      </trkpt>
      <trkpt lat="44.69956" lon="5.64173">
        <ele>1244.56</ele>
        <time>2020-10-01T12:32:48Z</time>
      </trkpt>
      <trkpt lat="44.69949" lon="5.64162">
        <ele>1242.16</ele>
        <time>2020-10-01T12:33:03Z</time>
      </trkpt>
      <trkpt lat="44.69942" lon="5.64148">
        <ele>1239.28</ele>
        <time>2020-10-01T12:33:20Z</time>
      </trkpt>
      <trkpt lat="44.69942" lon="5.64146">
        <ele>1239.28</ele>
        <time>2020-10-01T12:33:21Z</time>
      </trkpt>
      <trkpt lat="44.69936" lon="5.64131">
        <ele>1237.35</ele>
        <time>2020-10-01T12:33:36Z</time>
      </trkpt>
      <trkpt lat="44.69935" lon="5.6413">
        <ele>1236.87</ele>
        <time>2020-10-01T12:33:37Z</time>
      </trkpt>
      <trkpt lat="44.69935" lon="5.64129">
        <ele>1236.87</ele>
        <time>2020-10-01T12:33:38Z</time>
      </trkpt>
      <trkpt lat="44.69934" lon="5.64127">
        <ele>1236.87</ele>
        <time>2020-10-01T12:33:39Z</time>
      </trkpt>
      <trkpt lat="44.69932" lon="5.64125">
        <ele>1236.39</ele>
        <time>2020-10-01T12:33:41Z</time>
      </trkpt>
      <trkpt lat="44.69932" lon="5.64123">
        <ele>1236.39</ele>
        <time>2020-10-01T12:33:42Z</time>
      </trkpt>
      <trkpt lat="44.69932" lon="5.64122">
        <ele>1236.39</ele>
        <time>2020-10-01T12:33:43Z</time>
      </trkpt>
      <trkpt lat="44.69924" lon="5.64103">
        <ele>1234.47</ele>
        <time>2020-10-01T12:33:59Z</time>
      </trkpt>
      <trkpt lat="44.69916" lon="5.64086">
        <ele>1233.03</ele>
        <time>2020-10-01T12:34:14Z</time>
      </trkpt>
      <trkpt lat="44.69916" lon="5.64084">
        <ele>1232.55</ele>
        <time>2020-10-01T12:34:15Z</time>
      </trkpt>
      <trkpt lat="44.69916" lon="5.64083">
        <ele>1232.55</ele>
        <time>2020-10-01T12:34:16Z</time>
      </trkpt>
      <trkpt lat="44.69915" lon="5.64081">
        <ele>1232.55</ele>
        <time>2020-10-01T12:34:17Z</time>
      </trkpt>
      <trkpt lat="44.6991" lon="5.64073">
        <ele>1231.11</ele>
        <time>2020-10-01T12:34:29Z</time>
      </trkpt>
      <trkpt lat="44.69907" lon="5.64066">
        <ele>1230.62</ele>
        <time>2020-10-01T12:34:35Z</time>
      </trkpt>
      <trkpt lat="44.69898" lon="5.64042">
        <ele>1228.22</ele>
        <time>2020-10-01T12:34:53Z</time>
      </trkpt>
      <trkpt lat="44.69896" lon="5.64034">
        <ele>1227.26</ele>
        <time>2020-10-01T12:34:59Z</time>
      </trkpt>
      <trkpt lat="44.69895" lon="5.64032">
        <ele>1227.26</ele>
        <time>2020-10-01T12:35:00Z</time>
      </trkpt>
      <trkpt lat="44.69895" lon="5.64031">
        <ele>1227.26</ele>
        <time>2020-10-01T12:35:01Z</time>
      </trkpt>
      <trkpt lat="44.69894" lon="5.6403">
        <ele>1227.26</ele>
        <time>2020-10-01T12:35:02Z</time>
      </trkpt>
      <trkpt lat="44.69893" lon="5.64028">
        <ele>1226.78</ele>
        <time>2020-10-01T12:35:03Z</time>
      </trkpt>
      <trkpt lat="44.69892" lon="5.64024">
        <ele>1226.3</ele>
        <time>2020-10-01T12:35:06Z</time>
      </trkpt>
      <trkpt lat="44.69891" lon="5.64023">
        <ele>1226.3</ele>
        <time>2020-10-01T12:35:07Z</time>
      </trkpt>
      <trkpt lat="44.69888" lon="5.64014">
        <ele>1225.34</ele>
        <time>2020-10-01T12:35:14Z</time>
      </trkpt>
      <trkpt lat="44.6988" lon="5.6399">
        <ele>1223.42</ele>
        <time>2020-10-01T12:35:31Z</time>
      </trkpt>
      <trkpt lat="44.69874" lon="5.63966">
        <ele>1221.97</ele>
        <time>2020-10-01T12:35:48Z</time>
      </trkpt>
      <trkpt lat="44.69869" lon="5.63951">
        <ele>1221.01</ele>
        <time>2020-10-01T12:36:02Z</time>
      </trkpt>
      <trkpt lat="44.69868" lon="5.63947">
        <ele>1220.53</ele>
        <time>2020-10-01T12:36:05Z</time>
      </trkpt>
      <trkpt lat="44.69858" lon="5.63928">
        <ele>1217.65</ele>
        <time>2020-10-01T12:36:22Z</time>
      </trkpt>
      <trkpt lat="44.69858" lon="5.63926">
        <ele>1217.17</ele>
        <time>2020-10-01T12:36:24Z</time>
      </trkpt>
      <trkpt lat="44.69855" lon="5.6391">
        <ele>1215.72</ele>
        <time>2020-10-01T12:36:36Z</time>
      </trkpt>
      <trkpt lat="44.69854" lon="5.63908">
        <ele>1215.24</ele>
        <time>2020-10-01T12:36:37Z</time>
      </trkpt>
      <trkpt lat="44.69854" lon="5.63907">
        <ele>1215.24</ele>
        <time>2020-10-01T12:36:38Z</time>
      </trkpt>
      <trkpt lat="44.69854" lon="5.63905">
        <ele>1215.24</ele>
        <time>2020-10-01T12:36:39Z</time>
      </trkpt>
      <trkpt lat="44.69853" lon="5.63904">
        <ele>1214.76</ele>
        <time>2020-10-01T12:36:40Z</time>
      </trkpt>
      <trkpt lat="44.69853" lon="5.63903">
        <ele>1214.76</ele>
        <time>2020-10-01T12:36:41Z</time>
      </trkpt>
      <trkpt lat="44.69852" lon="5.63901">
        <ele>1214.76</ele>
        <time>2020-10-01T12:36:42Z</time>
      </trkpt>
      <trkpt lat="44.69851" lon="5.639">
        <ele>1214.28</ele>
        <time>2020-10-01T12:36:43Z</time>
      </trkpt>
      <trkpt lat="44.69851" lon="5.63899">
        <ele>1214.28</ele>
        <time>2020-10-01T12:36:44Z</time>
      </trkpt>
      <trkpt lat="44.69851" lon="5.63898">
        <ele>1213.8</ele>
        <time>2020-10-01T12:36:45Z</time>
      </trkpt>
      <trkpt lat="44.6985" lon="5.63896">
        <ele>1213.8</ele>
        <time>2020-10-01T12:36:46Z</time>
      </trkpt>
      <trkpt lat="44.69849" lon="5.63895">
        <ele>1213.8</ele>
        <time>2020-10-01T12:36:47Z</time>
      </trkpt>
      <trkpt lat="44.69837" lon="5.63875">
        <ele>1210.44</ele>
        <time>2020-10-01T12:37:05Z</time>
      </trkpt>
      <trkpt lat="44.69835" lon="5.63872">
        <ele>1209.96</ele>
        <time>2020-10-01T12:37:08Z</time>
      </trkpt>
      <trkpt lat="44.69825" lon="5.63864">
        <ele>1206.11</ele>
        <time>2020-10-01T12:37:20Z</time>
      </trkpt>
      <trkpt lat="44.69823" lon="5.63863">
        <ele>1205.15</ele>
        <time>2020-10-01T12:37:22Z</time>
      </trkpt>
      <trkpt lat="44.6981" lon="5.6385">
        <ele>1203.23</ele>
        <time>2020-10-01T12:37:40Z</time>
      </trkpt>
      <trkpt lat="44.69802" lon="5.63841">
        <ele>1199.86</ele>
        <time>2020-10-01T12:37:50Z</time>
      </trkpt>
      <trkpt lat="44.69793" lon="5.6383">
        <ele>1196.98</ele>
        <time>2020-10-01T12:38:03Z</time>
      </trkpt>
      <trkpt lat="44.69785" lon="5.63816">
        <ele>1193.61</ele>
        <time>2020-10-01T12:38:18Z</time>
      </trkpt>
      <trkpt lat="44.69783" lon="5.63815">
        <ele>1193.61</ele>
        <time>2020-10-01T12:38:20Z</time>
      </trkpt>
      <trkpt lat="44.69782" lon="5.63815">
        <ele>1193.13</ele>
        <time>2020-10-01T12:38:21Z</time>
      </trkpt>
      <trkpt lat="44.69781" lon="5.63814">
        <ele>1193.13</ele>
        <time>2020-10-01T12:38:22Z</time>
      </trkpt>
      <trkpt lat="44.69778" lon="5.6381">
        <ele>1192.17</ele>
        <time>2020-10-01T12:38:26Z</time>
      </trkpt>
      <trkpt lat="44.69776" lon="5.63809">
        <ele>1191.69</ele>
        <time>2020-10-01T12:38:27Z</time>
      </trkpt>
      <trkpt lat="44.69775" lon="5.63809">
        <ele>1191.21</ele>
        <time>2020-10-01T12:38:28Z</time>
      </trkpt>
      <trkpt lat="44.69774" lon="5.63807">
        <ele>1191.21</ele>
        <time>2020-10-01T12:38:29Z</time>
      </trkpt>
      <trkpt lat="44.69767" lon="5.63795">
        <ele>1187.85</ele>
        <time>2020-10-01T12:38:40Z</time>
      </trkpt>
      <trkpt lat="44.69764" lon="5.63792">
        <ele>1186.88</ele>
        <time>2020-10-01T12:38:45Z</time>
      </trkpt>
      <trkpt lat="44.69763" lon="5.63791">
        <ele>1186.88</ele>
        <time>2020-10-01T12:38:46Z</time>
      </trkpt>
      <trkpt lat="44.69762" lon="5.63791">
        <ele>1186.4</ele>
        <time>2020-10-01T12:38:47Z</time>
      </trkpt>
      <trkpt lat="44.6976" lon="5.63792">
        <ele>1186.4</ele>
        <time>2020-10-01T12:38:49Z</time>
      </trkpt>
      <trkpt lat="44.69753" lon="5.6379">
        <ele>1184.48</ele>
        <time>2020-10-01T12:39:05Z</time>
      </trkpt>
      <trkpt lat="44.69752" lon="5.63787">
        <ele>1184</ele>
        <time>2020-10-01T12:39:11Z</time>
      </trkpt>
      <trkpt lat="44.69752" lon="5.63784">
        <ele>1184</ele>
        <time>2020-10-01T12:39:13Z</time>
      </trkpt>
      <trkpt lat="44.69752" lon="5.63783">
        <ele>1184</ele>
        <time>2020-10-01T12:39:14Z</time>
      </trkpt>
      <trkpt lat="44.69752" lon="5.63781">
        <ele>1184</ele>
        <time>2020-10-01T12:39:15Z</time>
      </trkpt>
      <trkpt lat="44.69752" lon="5.63771">
        <ele>1182.56</ele>
        <time>2020-10-01T12:39:22Z</time>
      </trkpt>
      <trkpt lat="44.6975" lon="5.63769">
        <ele>1182.08</ele>
        <time>2020-10-01T12:39:24Z</time>
      </trkpt>
      <trkpt lat="44.69743" lon="5.63753">
        <ele>1179.19</ele>
        <time>2020-10-01T12:39:40Z</time>
      </trkpt>
      <trkpt lat="44.69739" lon="5.63741">
        <ele>1176.79</ele>
        <time>2020-10-01T12:39:51Z</time>
      </trkpt>
      <trkpt lat="44.69735" lon="5.63728">
        <ele>1173.43</ele>
        <time>2020-10-01T12:40:05Z</time>
      </trkpt>
      <trkpt lat="44.6973" lon="5.63712">
        <ele>1170.54</ele>
        <time>2020-10-01T12:40:21Z</time>
      </trkpt>
      <trkpt lat="44.69727" lon="5.63691">
        <ele>1167.66</ele>
        <time>2020-10-01T12:40:39Z</time>
      </trkpt>
      <trkpt lat="44.69721" lon="5.63672">
        <ele>1164.29</ele>
        <time>2020-10-01T12:40:56Z</time>
      </trkpt>
      <trkpt lat="44.69716" lon="5.63652">
        <ele>1161.41</ele>
        <time>2020-10-01T12:41:11Z</time>
      </trkpt>
      <trkpt lat="44.69711" lon="5.63634">
        <ele>1158.05</ele>
        <time>2020-10-01T12:41:26Z</time>
      </trkpt>
      <trkpt lat="44.69708" lon="5.63618">
        <ele>1155.16</ele>
        <time>2020-10-01T12:41:40Z</time>
      </trkpt>
      <trkpt lat="44.69704" lon="5.636">
        <ele>1152.76</ele>
        <time>2020-10-01T12:41:56Z</time>
      </trkpt>
      <trkpt lat="44.69697" lon="5.63584">
        <ele>1149.39</ele>
        <time>2020-10-01T12:42:12Z</time>
      </trkpt>
      <trkpt lat="44.69693" lon="5.63572">
        <ele>1146.99</ele>
        <time>2020-10-01T12:42:30Z</time>
      </trkpt>
      <trkpt lat="44.69685" lon="5.63565">
        <ele>1144.11</ele>
        <time>2020-10-01T12:42:46Z</time>
      </trkpt>
      <trkpt lat="44.69673" lon="5.6356">
        <ele>1141.7</ele>
        <time>2020-10-01T12:43:02Z</time>
      </trkpt>
      <trkpt lat="44.69667" lon="5.63556">
        <ele>1140.26</ele>
        <time>2020-10-01T12:43:20Z</time>
      </trkpt>
      <trkpt lat="44.69666" lon="5.63554">
        <ele>1136.42</ele>
        <time>2020-10-01T12:43:28Z</time>
      </trkpt>
      <trkpt lat="44.69665" lon="5.63553">
        <ele>1133.53</ele>
        <time>2020-10-01T12:43:37Z</time>
      </trkpt>
      <trkpt lat="44.69665" lon="5.63552">
        <ele>1137.86</ele>
        <time>2020-10-01T12:43:40Z</time>
      </trkpt>
      <trkpt lat="44.69665" lon="5.63552">
        <ele>1141.22</ele>
        <time>2020-10-01T12:43:41Z</time>
      </trkpt>
      <trkpt lat="44.69665" lon="5.63553">
        <ele>1144.59</ele>
        <time>2020-10-01T12:43:43Z</time>
      </trkpt>
      <trkpt lat="44.69663" lon="5.63548">
        <ele>1141.7</ele>
        <time>2020-10-01T12:43:53Z</time>
      </trkpt>
      <trkpt lat="44.6966" lon="5.63546">
        <ele>1140.74</ele>
        <time>2020-10-01T12:43:58Z</time>
      </trkpt>
      <trkpt lat="44.69657" lon="5.63543">
        <ele>1139.3</ele>
        <time>2020-10-01T12:44:10Z</time>
      </trkpt>
      <trkpt lat="44.69657" lon="5.63541">
        <ele>1138.34</ele>
        <time>2020-10-01T12:44:26Z</time>
      </trkpt>
      <trkpt lat="44.69657" lon="5.6354">
        <ele>1138.34</ele>
        <time>2020-10-01T12:44:47Z</time>
      </trkpt>
      <trkpt lat="44.69658" lon="5.63541">
        <ele>1138.34</ele>
        <time>2020-10-01T12:45:13Z</time>
      </trkpt>
      <trkpt lat="44.69657" lon="5.63541">
        <ele>1138.34</ele>
        <time>2020-10-01T12:45:37Z</time>
      </trkpt>
      <trkpt lat="44.69659" lon="5.63542">
        <ele>1138.34</ele>
        <time>2020-10-01T12:46:02Z</time>
      </trkpt>
    </trkseg>
  </trk>
</gpx>